<?xml version="1.0" encoding="UTF-8" standalone="no" ?>
<gpx xmlns="http://www.topografix.com/GPX/1/1" xmlns:xsi="http://www.w3.org/2001/XMLSchema-instance" xsi:schemaLocation="http://www.topografix.com/GPX/1/1 http://www.topografix.com/GPX/1/1/gpx.xsd" version="1.1" creator="VisuGPX - https://www.visugpx.com">
  <metadata>
    <name>Mont st cyr au départ de cahors décors</name>
    <desc><![CDATA[rando tranquille]]></desc>
  </metadata>
  <trk>
    <name><![CDATA[Lap 1]]></name>
    <trkseg>
      <trkpt lat="44.4428" lon="1.44031">
        <ele>121</ele>
        <time>2011-04-07T07:38:13</time>
      </trkpt>
      <trkpt lat="44.4428" lon="1.44031">
        <ele>121</ele>
        <time>2011-04-07T07:38:23</time>
      </trkpt>
      <trkpt lat="44.4428" lon="1.44031">
        <ele>121</ele>
        <time>2011-04-07T07:38:32</time>
      </trkpt>
      <trkpt lat="44.4428" lon="1.44031">
        <ele>121</ele>
        <time>2011-04-07T07:38:38</time>
      </trkpt>
      <trkpt lat="44.44283" lon="1.44026">
        <ele>121</ele>
        <time>2011-04-07T07:38:40</time>
      </trkpt>
      <trkpt lat="44.44286" lon="1.44021">
        <ele>121</ele>
        <time>2011-04-07T07:38:53</time>
      </trkpt>
      <trkpt lat="44.44283" lon="1.44025">
        <ele>121</ele>
        <time>2011-04-07T07:38:57</time>
      </trkpt>
      <trkpt lat="44.44283" lon="1.44025">
        <ele>121</ele>
        <time>2011-04-07T07:38:57</time>
      </trkpt>
      <trkpt lat="44.44279" lon="1.44027">
        <ele>121</ele>
        <time>2011-04-07T07:38:59</time>
      </trkpt>
      <trkpt lat="44.44276" lon="1.44029">
        <ele>121</ele>
        <time>2011-04-07T07:39:00</time>
      </trkpt>
      <trkpt lat="44.44271" lon="1.44035">
        <ele>121</ele>
        <time>2011-04-07T07:39:02</time>
      </trkpt>
      <trkpt lat="44.44271" lon="1.44039">
        <ele>121</ele>
        <time>2011-04-07T07:39:04</time>
      </trkpt>
      <trkpt lat="44.4427" lon="1.44044">
        <ele>121</ele>
        <time>2011-04-07T07:39:07</time>
      </trkpt>
      <trkpt lat="44.44267" lon="1.44046">
        <ele>121</ele>
        <time>2011-04-07T07:39:09</time>
      </trkpt>
      <trkpt lat="44.44265" lon="1.44047">
        <ele>121</ele>
        <time>2011-04-07T07:39:10</time>
      </trkpt>
      <trkpt lat="44.44261" lon="1.44049">
        <ele>121</ele>
        <time>2011-04-07T07:39:12</time>
      </trkpt>
      <trkpt lat="44.44259" lon="1.44051">
        <ele>121</ele>
        <time>2011-04-07T07:39:13</time>
      </trkpt>
      <trkpt lat="44.44256" lon="1.44052">
        <ele>121</ele>
        <time>2011-04-07T07:39:14</time>
      </trkpt>
      <trkpt lat="44.44251" lon="1.44055">
        <ele>121</ele>
        <time>2011-04-07T07:39:16</time>
      </trkpt>
      <trkpt lat="44.44246" lon="1.44057">
        <ele>121</ele>
        <time>2011-04-07T07:39:18</time>
      </trkpt>
      <trkpt lat="44.4424" lon="1.44059">
        <ele>121</ele>
        <time>2011-04-07T07:39:20</time>
      </trkpt>
      <trkpt lat="44.44237" lon="1.4406">
        <ele>121</ele>
        <time>2011-04-07T07:39:21</time>
      </trkpt>
      <trkpt lat="44.44234" lon="1.4406">
        <ele>121</ele>
        <time>2011-04-07T07:39:22</time>
      </trkpt>
      <trkpt lat="44.44228" lon="1.44063">
        <ele>121</ele>
        <time>2011-04-07T07:39:24</time>
      </trkpt>
      <trkpt lat="44.44226" lon="1.44063">
        <ele>121</ele>
        <time>2011-04-07T07:39:25</time>
      </trkpt>
      <trkpt lat="44.44221" lon="1.44065">
        <ele>121</ele>
        <time>2011-04-07T07:39:27</time>
      </trkpt>
      <trkpt lat="44.44216" lon="1.4407">
        <ele>121</ele>
        <time>2011-04-07T07:39:29</time>
      </trkpt>
      <trkpt lat="44.44211" lon="1.44072">
        <ele>121</ele>
        <time>2011-04-07T07:39:31</time>
      </trkpt>
      <trkpt lat="44.44207" lon="1.44069">
        <ele>118</ele>
        <time>2011-04-07T07:39:41</time>
      </trkpt>
      <trkpt lat="44.44204" lon="1.44068">
        <ele>118</ele>
        <time>2011-04-07T07:39:44</time>
      </trkpt>
      <trkpt lat="44.44201" lon="1.44066">
        <ele>118</ele>
        <time>2011-04-07T07:39:46</time>
      </trkpt>
      <trkpt lat="44.44199" lon="1.44062">
        <ele>118</ele>
        <time>2011-04-07T07:39:48</time>
      </trkpt>
      <trkpt lat="44.44196" lon="1.44056">
        <ele>118</ele>
        <time>2011-04-07T07:39:50</time>
      </trkpt>
      <trkpt lat="44.44194" lon="1.44049">
        <ele>118</ele>
        <time>2011-04-07T07:39:52</time>
      </trkpt>
      <trkpt lat="44.44192" lon="1.44045">
        <ele>118</ele>
        <time>2011-04-07T07:39:53</time>
      </trkpt>
      <trkpt lat="44.44188" lon="1.44036">
        <ele>119</ele>
        <time>2011-04-07T07:39:55</time>
      </trkpt>
      <trkpt lat="44.44185" lon="1.44027">
        <ele>119</ele>
        <time>2011-04-07T07:39:57</time>
      </trkpt>
      <trkpt lat="44.44182" lon="1.44016">
        <ele>119</ele>
        <time>2011-04-07T07:39:59</time>
      </trkpt>
      <trkpt lat="44.4418" lon="1.44005">
        <ele>119</ele>
        <time>2011-04-07T07:40:01</time>
      </trkpt>
      <trkpt lat="44.44178" lon="1.43999">
        <ele>119</ele>
        <time>2011-04-07T07:40:02</time>
      </trkpt>
      <trkpt lat="44.44175" lon="1.43988">
        <ele>119</ele>
        <time>2011-04-07T07:40:04</time>
      </trkpt>
      <trkpt lat="44.44171" lon="1.43977">
        <ele>119</ele>
        <time>2011-04-07T07:40:06</time>
      </trkpt>
      <trkpt lat="44.4417" lon="1.43972">
        <ele>119</ele>
        <time>2011-04-07T07:40:07</time>
      </trkpt>
      <trkpt lat="44.44167" lon="1.4396">
        <ele>119</ele>
        <time>2011-04-07T07:40:09</time>
      </trkpt>
      <trkpt lat="44.44164" lon="1.43948">
        <ele>119</ele>
        <time>2011-04-07T07:40:11</time>
      </trkpt>
      <trkpt lat="44.44162" lon="1.43943">
        <ele>119</ele>
        <time>2011-04-07T07:40:12</time>
      </trkpt>
      <trkpt lat="44.44161" lon="1.43938">
        <ele>119</ele>
        <time>2011-04-07T07:40:13</time>
      </trkpt>
      <trkpt lat="44.44159" lon="1.43933">
        <ele>119</ele>
        <time>2011-04-07T07:40:14</time>
      </trkpt>
      <trkpt lat="44.44156" lon="1.43923">
        <ele>119</ele>
        <time>2011-04-07T07:40:16</time>
      </trkpt>
      <trkpt lat="44.4415" lon="1.43907">
        <ele>119</ele>
        <time>2011-04-07T07:40:18</time>
      </trkpt>
      <trkpt lat="44.44146" lon="1.43895">
        <ele>119</ele>
        <time>2011-04-07T07:40:20</time>
      </trkpt>
      <trkpt lat="44.44142" lon="1.43882">
        <ele>119</ele>
        <time>2011-04-07T07:40:22</time>
      </trkpt>
      <trkpt lat="44.44139" lon="1.43869">
        <ele>120</ele>
        <time>2011-04-07T07:40:24</time>
      </trkpt>
      <trkpt lat="44.44136" lon="1.43856">
        <ele>120</ele>
        <time>2011-04-07T07:40:26</time>
      </trkpt>
      <trkpt lat="44.44132" lon="1.43841">
        <ele>120</ele>
        <time>2011-04-07T07:40:28</time>
      </trkpt>
      <trkpt lat="44.44131" lon="1.43834">
        <ele>120</ele>
        <time>2011-04-07T07:40:29</time>
      </trkpt>
      <trkpt lat="44.44128" lon="1.43821">
        <ele>120</ele>
        <time>2011-04-07T07:40:31</time>
      </trkpt>
      <trkpt lat="44.44127" lon="1.43815">
        <ele>120</ele>
        <time>2011-04-07T07:40:32</time>
      </trkpt>
      <trkpt lat="44.44126" lon="1.43802">
        <ele>120</ele>
        <time>2011-04-07T07:40:34</time>
      </trkpt>
      <trkpt lat="44.44126" lon="1.43794">
        <ele>120</ele>
        <time>2011-04-07T07:40:37</time>
      </trkpt>
      <trkpt lat="44.44125" lon="1.43787">
        <ele>118</ele>
        <time>2011-04-07T07:40:43</time>
      </trkpt>
      <trkpt lat="44.44126" lon="1.43782">
        <ele>120</ele>
        <time>2011-04-07T07:40:46</time>
      </trkpt>
      <trkpt lat="44.44127" lon="1.43779">
        <ele>120</ele>
        <time>2011-04-07T07:40:48</time>
      </trkpt>
      <trkpt lat="44.44127" lon="1.43774">
        <ele>120</ele>
        <time>2011-04-07T07:40:50</time>
      </trkpt>
      <trkpt lat="44.44128" lon="1.43767">
        <ele>120</ele>
        <time>2011-04-07T07:40:52</time>
      </trkpt>
      <trkpt lat="44.44129" lon="1.43756">
        <ele>120</ele>
        <time>2011-04-07T07:40:54</time>
      </trkpt>
      <trkpt lat="44.44129" lon="1.43746">
        <ele>120</ele>
        <time>2011-04-07T07:40:56</time>
      </trkpt>
      <trkpt lat="44.44129" lon="1.43736">
        <ele>120</ele>
        <time>2011-04-07T07:40:58</time>
      </trkpt>
      <trkpt lat="44.44128" lon="1.43725">
        <ele>120</ele>
        <time>2011-04-07T07:41:00</time>
      </trkpt>
      <trkpt lat="44.44126" lon="1.43714">
        <ele>120</ele>
        <time>2011-04-07T07:41:02</time>
      </trkpt>
      <trkpt lat="44.44126" lon="1.437">
        <ele>118</ele>
        <time>2011-04-07T07:41:04</time>
      </trkpt>
      <trkpt lat="44.44126" lon="1.43686">
        <ele>118</ele>
        <time>2011-04-07T07:41:06</time>
      </trkpt>
      <trkpt lat="44.44126" lon="1.43679">
        <ele>118</ele>
        <time>2011-04-07T07:41:07</time>
      </trkpt>
      <trkpt lat="44.44126" lon="1.43667">
        <ele>118</ele>
        <time>2011-04-07T07:41:09</time>
      </trkpt>
      <trkpt lat="44.44126" lon="1.43661">
        <ele>118</ele>
        <time>2011-04-07T07:41:10</time>
      </trkpt>
      <trkpt lat="44.44126" lon="1.43648">
        <ele>118</ele>
        <time>2011-04-07T07:41:12</time>
      </trkpt>
      <trkpt lat="44.44126" lon="1.43637">
        <ele>118</ele>
        <time>2011-04-07T07:41:14</time>
      </trkpt>
      <trkpt lat="44.44128" lon="1.43628">
        <ele>118</ele>
        <time>2011-04-07T07:41:16</time>
      </trkpt>
      <trkpt lat="44.44129" lon="1.43622">
        <ele>116</ele>
        <time>2011-04-07T07:41:17</time>
      </trkpt>
      <trkpt lat="44.4413" lon="1.4361">
        <ele>116</ele>
        <time>2011-04-07T07:41:19</time>
      </trkpt>
      <trkpt lat="44.44131" lon="1.43606">
        <ele>116</ele>
        <time>2011-04-07T07:41:20</time>
      </trkpt>
      <trkpt lat="44.44131" lon="1.43601">
        <ele>116</ele>
        <time>2011-04-07T07:41:21</time>
      </trkpt>
      <trkpt lat="44.44132" lon="1.43593">
        <ele>116</ele>
        <time>2011-04-07T07:41:23</time>
      </trkpt>
      <trkpt lat="44.44133" lon="1.43587">
        <ele>116</ele>
        <time>2011-04-07T07:41:24</time>
      </trkpt>
      <trkpt lat="44.44134" lon="1.43572">
        <ele>116</ele>
        <time>2011-04-07T07:41:26</time>
      </trkpt>
      <trkpt lat="44.44136" lon="1.43557">
        <ele>116</ele>
        <time>2011-04-07T07:41:28</time>
      </trkpt>
      <trkpt lat="44.44138" lon="1.43549">
        <ele>116</ele>
        <time>2011-04-07T07:41:29</time>
      </trkpt>
      <trkpt lat="44.44141" lon="1.43542">
        <ele>117</ele>
        <time>2011-04-07T07:41:30</time>
      </trkpt>
      <trkpt lat="44.44143" lon="1.43534">
        <ele>117</ele>
        <time>2011-04-07T07:41:31</time>
      </trkpt>
      <trkpt lat="44.44149" lon="1.4352">
        <ele>117</ele>
        <time>2011-04-07T07:41:33</time>
      </trkpt>
      <trkpt lat="44.44153" lon="1.43506">
        <ele>117</ele>
        <time>2011-04-07T07:41:35</time>
      </trkpt>
      <trkpt lat="44.44157" lon="1.43492">
        <ele>117</ele>
        <time>2011-04-07T07:41:37</time>
      </trkpt>
      <trkpt lat="44.44159" lon="1.43485">
        <ele>117</ele>
        <time>2011-04-07T07:41:38</time>
      </trkpt>
      <trkpt lat="44.44165" lon="1.43474">
        <ele>117</ele>
        <time>2011-04-07T07:41:40</time>
      </trkpt>
      <trkpt lat="44.44168" lon="1.43468">
        <ele>117</ele>
        <time>2011-04-07T07:41:41</time>
      </trkpt>
      <trkpt lat="44.44174" lon="1.43459">
        <ele>117</ele>
        <time>2011-04-07T07:41:43</time>
      </trkpt>
      <trkpt lat="44.44178" lon="1.43454">
        <ele>117</ele>
        <time>2011-04-07T07:41:44</time>
      </trkpt>
      <trkpt lat="44.44186" lon="1.43447">
        <ele>117</ele>
        <time>2011-04-07T07:41:46</time>
      </trkpt>
      <trkpt lat="44.4419" lon="1.43443">
        <ele>117</ele>
        <time>2011-04-07T07:41:47</time>
      </trkpt>
      <trkpt lat="44.44198" lon="1.43437">
        <ele>117</ele>
        <time>2011-04-07T07:41:49</time>
      </trkpt>
      <trkpt lat="44.44206" lon="1.43431">
        <ele>117</ele>
        <time>2011-04-07T07:41:51</time>
      </trkpt>
      <trkpt lat="44.44209" lon="1.43427">
        <ele>117</ele>
        <time>2011-04-07T07:41:52</time>
      </trkpt>
      <trkpt lat="44.44213" lon="1.43424">
        <ele>117</ele>
        <time>2011-04-07T07:41:53</time>
      </trkpt>
      <trkpt lat="44.44221" lon="1.43417">
        <ele>117</ele>
        <time>2011-04-07T07:41:55</time>
      </trkpt>
      <trkpt lat="44.44225" lon="1.43414">
        <ele>117</ele>
        <time>2011-04-07T07:41:56</time>
      </trkpt>
      <trkpt lat="44.44229" lon="1.43411">
        <ele>117</ele>
        <time>2011-04-07T07:41:57</time>
      </trkpt>
      <trkpt lat="44.44233" lon="1.43408">
        <ele>117</ele>
        <time>2011-04-07T07:41:58</time>
      </trkpt>
      <trkpt lat="44.44242" lon="1.43401">
        <ele>117</ele>
        <time>2011-04-07T07:42:00</time>
      </trkpt>
      <trkpt lat="44.44246" lon="1.43398">
        <ele>117</ele>
        <time>2011-04-07T07:42:01</time>
      </trkpt>
      <trkpt lat="44.44255" lon="1.43393">
        <ele>117</ele>
        <time>2011-04-07T07:42:03</time>
      </trkpt>
      <trkpt lat="44.44259" lon="1.4339">
        <ele>117</ele>
        <time>2011-04-07T07:42:04</time>
      </trkpt>
      <trkpt lat="44.44268" lon="1.43385">
        <ele>117</ele>
        <time>2011-04-07T07:42:06</time>
      </trkpt>
      <trkpt lat="44.44272" lon="1.43381">
        <ele>117</ele>
        <time>2011-04-07T07:42:07</time>
      </trkpt>
      <trkpt lat="44.44281" lon="1.43374">
        <ele>115</ele>
        <time>2011-04-07T07:42:09</time>
      </trkpt>
      <trkpt lat="44.4429" lon="1.43367">
        <ele>115</ele>
        <time>2011-04-07T07:42:11</time>
      </trkpt>
      <trkpt lat="44.44294" lon="1.43363">
        <ele>116</ele>
        <time>2011-04-07T07:42:12</time>
      </trkpt>
      <trkpt lat="44.44303" lon="1.43356">
        <ele>116</ele>
        <time>2011-04-07T07:42:14</time>
      </trkpt>
      <trkpt lat="44.44311" lon="1.43349">
        <ele>116</ele>
        <time>2011-04-07T07:42:16</time>
      </trkpt>
      <trkpt lat="44.4432" lon="1.43341">
        <ele>116</ele>
        <time>2011-04-07T07:42:18</time>
      </trkpt>
      <trkpt lat="44.44328" lon="1.43334">
        <ele>116</ele>
        <time>2011-04-07T07:42:20</time>
      </trkpt>
      <trkpt lat="44.44333" lon="1.43331">
        <ele>116</ele>
        <time>2011-04-07T07:42:21</time>
      </trkpt>
      <trkpt lat="44.44342" lon="1.43326">
        <ele>116</ele>
        <time>2011-04-07T07:42:23</time>
      </trkpt>
      <trkpt lat="44.44346" lon="1.43323">
        <ele>116</ele>
        <time>2011-04-07T07:42:24</time>
      </trkpt>
      <trkpt lat="44.44356" lon="1.43318">
        <ele>116</ele>
        <time>2011-04-07T07:42:26</time>
      </trkpt>
      <trkpt lat="44.44365" lon="1.43314">
        <ele>116</ele>
        <time>2011-04-07T07:42:28</time>
      </trkpt>
      <trkpt lat="44.4437" lon="1.43312">
        <ele>116</ele>
        <time>2011-04-07T07:42:29</time>
      </trkpt>
      <trkpt lat="44.44379" lon="1.43308">
        <ele>120</ele>
        <time>2011-04-07T07:42:31</time>
      </trkpt>
      <trkpt lat="44.44388" lon="1.43303">
        <ele>120</ele>
        <time>2011-04-07T07:42:33</time>
      </trkpt>
      <trkpt lat="44.44392" lon="1.43301">
        <ele>120</ele>
        <time>2011-04-07T07:42:34</time>
      </trkpt>
      <trkpt lat="44.44397" lon="1.43299">
        <ele>120</ele>
        <time>2011-04-07T07:42:35</time>
      </trkpt>
      <trkpt lat="44.44406" lon="1.43294">
        <ele>120</ele>
        <time>2011-04-07T07:42:37</time>
      </trkpt>
      <trkpt lat="44.4441" lon="1.43292">
        <ele>120</ele>
        <time>2011-04-07T07:42:38</time>
      </trkpt>
      <trkpt lat="44.44419" lon="1.43286">
        <ele>115</ele>
        <time>2011-04-07T07:42:40</time>
      </trkpt>
      <trkpt lat="44.44424" lon="1.43283">
        <ele>115</ele>
        <time>2011-04-07T07:42:41</time>
      </trkpt>
      <trkpt lat="44.44428" lon="1.43281">
        <ele>115</ele>
        <time>2011-04-07T07:42:42</time>
      </trkpt>
      <trkpt lat="44.44438" lon="1.43275">
        <ele>115</ele>
        <time>2011-04-07T07:42:44</time>
      </trkpt>
      <trkpt lat="44.44447" lon="1.4327">
        <ele>115</ele>
        <time>2011-04-07T07:42:46</time>
      </trkpt>
      <trkpt lat="44.44451" lon="1.43267">
        <ele>115</ele>
        <time>2011-04-07T07:42:47</time>
      </trkpt>
      <trkpt lat="44.4446" lon="1.43267">
        <ele>115</ele>
        <time>2011-04-07T07:42:49</time>
      </trkpt>
      <trkpt lat="44.44469" lon="1.43266">
        <ele>115</ele>
        <time>2011-04-07T07:42:51</time>
      </trkpt>
      <trkpt lat="44.44474" lon="1.43266">
        <ele>115</ele>
        <time>2011-04-07T07:42:52</time>
      </trkpt>
      <trkpt lat="44.44484" lon="1.43267">
        <ele>115</ele>
        <time>2011-04-07T07:42:54</time>
      </trkpt>
      <trkpt lat="44.44488" lon="1.43268">
        <ele>115</ele>
        <time>2011-04-07T07:42:55</time>
      </trkpt>
      <trkpt lat="44.44493" lon="1.4327">
        <ele>115</ele>
        <time>2011-04-07T07:42:56</time>
      </trkpt>
      <trkpt lat="44.44497" lon="1.43272">
        <ele>115</ele>
        <time>2011-04-07T07:42:57</time>
      </trkpt>
      <trkpt lat="44.44504" lon="1.4328">
        <ele>115</ele>
        <time>2011-04-07T07:42:59</time>
      </trkpt>
      <trkpt lat="44.44508" lon="1.43285">
        <ele>115</ele>
        <time>2011-04-07T07:43:00</time>
      </trkpt>
      <trkpt lat="44.44513" lon="1.43295">
        <ele>120</ele>
        <time>2011-04-07T07:43:02</time>
      </trkpt>
      <trkpt lat="44.44518" lon="1.43305">
        <ele>120</ele>
        <time>2011-04-07T07:43:04</time>
      </trkpt>
      <trkpt lat="44.44521" lon="1.43314">
        <ele>120</ele>
        <time>2011-04-07T07:43:06</time>
      </trkpt>
      <trkpt lat="44.44524" lon="1.43318">
        <ele>120</ele>
        <time>2011-04-07T07:43:07</time>
      </trkpt>
      <trkpt lat="44.44529" lon="1.43318">
        <ele>120</ele>
        <time>2011-04-07T07:43:09</time>
      </trkpt>
      <trkpt lat="44.4453" lon="1.43311">
        <ele>120</ele>
        <time>2011-04-07T07:43:11</time>
      </trkpt>
      <trkpt lat="44.44529" lon="1.43302">
        <ele>120</ele>
        <time>2011-04-07T07:43:13</time>
      </trkpt>
      <trkpt lat="44.44528" lon="1.43297">
        <ele>120</ele>
        <time>2011-04-07T07:43:14</time>
      </trkpt>
      <trkpt lat="44.44528" lon="1.43292">
        <ele>120</ele>
        <time>2011-04-07T07:43:15</time>
      </trkpt>
      <trkpt lat="44.44526" lon="1.43282">
        <ele>115</ele>
        <time>2011-04-07T07:43:17</time>
      </trkpt>
      <trkpt lat="44.44526" lon="1.43272">
        <ele>115</ele>
        <time>2011-04-07T07:43:19</time>
      </trkpt>
      <trkpt lat="44.44525" lon="1.43267">
        <ele>115</ele>
        <time>2011-04-07T07:43:20</time>
      </trkpt>
      <trkpt lat="44.44525" lon="1.43262">
        <ele>115</ele>
        <time>2011-04-07T07:43:21</time>
      </trkpt>
      <trkpt lat="44.44523" lon="1.43253">
        <ele>115</ele>
        <time>2011-04-07T07:43:23</time>
      </trkpt>
      <trkpt lat="44.44521" lon="1.43243">
        <ele>115</ele>
        <time>2011-04-07T07:43:25</time>
      </trkpt>
      <trkpt lat="44.44521" lon="1.43239">
        <ele>115</ele>
        <time>2011-04-07T07:43:26</time>
      </trkpt>
      <trkpt lat="44.44519" lon="1.4323">
        <ele>115</ele>
        <time>2011-04-07T07:43:28</time>
      </trkpt>
      <trkpt lat="44.44517" lon="1.43222">
        <ele>115</ele>
        <time>2011-04-07T07:43:30</time>
      </trkpt>
      <trkpt lat="44.44516" lon="1.43213">
        <ele>115</ele>
        <time>2011-04-07T07:43:32</time>
      </trkpt>
      <trkpt lat="44.44515" lon="1.43209">
        <ele>115</ele>
        <time>2011-04-07T07:43:33</time>
      </trkpt>
      <trkpt lat="44.44514" lon="1.43205">
        <ele>113</ele>
        <time>2011-04-07T07:43:34</time>
      </trkpt>
      <trkpt lat="44.44513" lon="1.432">
        <ele>113</ele>
        <time>2011-04-07T07:43:35</time>
      </trkpt>
      <trkpt lat="44.44511" lon="1.43191">
        <ele>113</ele>
        <time>2011-04-07T07:43:37</time>
      </trkpt>
      <trkpt lat="44.44511" lon="1.43187">
        <ele>113</ele>
        <time>2011-04-07T07:43:38</time>
      </trkpt>
      <trkpt lat="44.44508" lon="1.43178">
        <ele>113</ele>
        <time>2011-04-07T07:43:40</time>
      </trkpt>
      <trkpt lat="44.44507" lon="1.43174">
        <ele>113</ele>
        <time>2011-04-07T07:43:41</time>
      </trkpt>
      <trkpt lat="44.44507" lon="1.43169">
        <ele>113</ele>
        <time>2011-04-07T07:43:42</time>
      </trkpt>
      <trkpt lat="44.44504" lon="1.4316">
        <ele>113</ele>
        <time>2011-04-07T07:43:44</time>
      </trkpt>
      <trkpt lat="44.44503" lon="1.4315">
        <ele>113</ele>
        <time>2011-04-07T07:43:46</time>
      </trkpt>
      <trkpt lat="44.445" lon="1.43139">
        <ele>113</ele>
        <time>2011-04-07T07:43:48</time>
      </trkpt>
      <trkpt lat="44.44499" lon="1.43134">
        <ele>113</ele>
        <time>2011-04-07T07:43:49</time>
      </trkpt>
      <trkpt lat="44.44497" lon="1.43129">
        <ele>113</ele>
        <time>2011-04-07T07:43:50</time>
      </trkpt>
      <trkpt lat="44.44493" lon="1.4312">
        <ele>122</ele>
        <time>2011-04-07T07:43:52</time>
      </trkpt>
      <trkpt lat="44.4449" lon="1.43109">
        <ele>122</ele>
        <time>2011-04-07T07:43:54</time>
      </trkpt>
      <trkpt lat="44.44488" lon="1.43098">
        <ele>122</ele>
        <time>2011-04-07T07:43:56</time>
      </trkpt>
      <trkpt lat="44.44487" lon="1.43087">
        <ele>122</ele>
        <time>2011-04-07T07:43:58</time>
      </trkpt>
      <trkpt lat="44.44485" lon="1.43076">
        <ele>122</ele>
        <time>2011-04-07T07:44:00</time>
      </trkpt>
      <trkpt lat="44.44488" lon="1.43066">
        <ele>122</ele>
        <time>2011-04-07T07:44:02</time>
      </trkpt>
      <trkpt lat="44.44491" lon="1.43061">
        <ele>122</ele>
        <time>2011-04-07T07:44:04</time>
      </trkpt>
      <trkpt lat="44.44494" lon="1.4306">
        <ele>122</ele>
        <time>2011-04-07T07:44:05</time>
      </trkpt>
      <trkpt lat="44.44502" lon="1.43058">
        <ele>122</ele>
        <time>2011-04-07T07:44:07</time>
      </trkpt>
      <trkpt lat="44.44511" lon="1.43054">
        <ele>122</ele>
        <time>2011-04-07T07:44:09</time>
      </trkpt>
      <trkpt lat="44.44523" lon="1.4305">
        <ele>122</ele>
        <time>2011-04-07T07:44:11</time>
      </trkpt>
      <trkpt lat="44.44535" lon="1.43046">
        <ele>122</ele>
        <time>2011-04-07T07:44:13</time>
      </trkpt>
      <trkpt lat="44.44541" lon="1.43044">
        <ele>122</ele>
        <time>2011-04-07T07:44:15</time>
      </trkpt>
      <trkpt lat="44.44543" lon="1.43046">
        <ele>110</ele>
        <time>2011-04-07T07:44:16</time>
      </trkpt>
      <trkpt lat="44.44538" lon="1.43047">
        <ele>122</ele>
        <time>2011-04-07T07:44:21</time>
      </trkpt>
      <trkpt lat="44.44528" lon="1.43049">
        <ele>122</ele>
        <time>2011-04-07T07:44:23</time>
      </trkpt>
      <trkpt lat="44.44518" lon="1.43052">
        <ele>122</ele>
        <time>2011-04-07T07:44:25</time>
      </trkpt>
      <trkpt lat="44.44513" lon="1.43053">
        <ele>122</ele>
        <time>2011-04-07T07:44:26</time>
      </trkpt>
      <trkpt lat="44.44509" lon="1.43055">
        <ele>122</ele>
        <time>2011-04-07T07:44:27</time>
      </trkpt>
      <trkpt lat="44.44501" lon="1.43062">
        <ele>122</ele>
        <time>2011-04-07T07:44:29</time>
      </trkpt>
      <trkpt lat="44.44497" lon="1.43065">
        <ele>122</ele>
        <time>2011-04-07T07:44:30</time>
      </trkpt>
      <trkpt lat="44.44493" lon="1.43069">
        <ele>122</ele>
        <time>2011-04-07T07:44:31</time>
      </trkpt>
      <trkpt lat="44.44486" lon="1.43073">
        <ele>122</ele>
        <time>2011-04-07T07:44:33</time>
      </trkpt>
      <trkpt lat="44.44483" lon="1.43076">
        <ele>122</ele>
        <time>2011-04-07T07:44:34</time>
      </trkpt>
      <trkpt lat="44.44475" lon="1.43082">
        <ele>122</ele>
        <time>2011-04-07T07:44:36</time>
      </trkpt>
      <trkpt lat="44.44471" lon="1.43086">
        <ele>122</ele>
        <time>2011-04-07T07:44:37</time>
      </trkpt>
      <trkpt lat="44.44462" lon="1.43092">
        <ele>122</ele>
        <time>2011-04-07T07:44:39</time>
      </trkpt>
      <trkpt lat="44.44453" lon="1.43098">
        <ele>159</ele>
        <time>2011-04-07T07:44:41</time>
      </trkpt>
      <trkpt lat="44.44444" lon="1.43104">
        <ele>159</ele>
        <time>2011-04-07T07:44:43</time>
      </trkpt>
      <trkpt lat="44.44435" lon="1.43111">
        <ele>159</ele>
        <time>2011-04-07T07:44:45</time>
      </trkpt>
      <trkpt lat="44.44427" lon="1.43116">
        <ele>159</ele>
        <time>2011-04-07T07:44:47</time>
      </trkpt>
      <trkpt lat="44.44424" lon="1.43117">
        <ele>159</ele>
        <time>2011-04-07T07:44:48</time>
      </trkpt>
      <trkpt lat="44.44419" lon="1.43118">
        <ele>159</ele>
        <time>2011-04-07T07:44:50</time>
      </trkpt>
      <trkpt lat="44.44416" lon="1.43119">
        <ele>159</ele>
        <time>2011-04-07T07:44:51</time>
      </trkpt>
      <trkpt lat="44.44409" lon="1.43124">
        <ele>159</ele>
        <time>2011-04-07T07:44:53</time>
      </trkpt>
      <trkpt lat="44.44401" lon="1.43129">
        <ele>120</ele>
        <time>2011-04-07T07:44:55</time>
      </trkpt>
      <trkpt lat="44.44394" lon="1.43136">
        <ele>120</ele>
        <time>2011-04-07T07:44:57</time>
      </trkpt>
      <trkpt lat="44.44387" lon="1.4314">
        <ele>120</ele>
        <time>2011-04-07T07:44:59</time>
      </trkpt>
      <trkpt lat="44.4438" lon="1.43145">
        <ele>120</ele>
        <time>2011-04-07T07:45:01</time>
      </trkpt>
      <trkpt lat="44.44371" lon="1.4315">
        <ele>130</ele>
        <time>2011-04-07T07:45:03</time>
      </trkpt>
      <trkpt lat="44.44363" lon="1.43154">
        <ele>130</ele>
        <time>2011-04-07T07:45:05</time>
      </trkpt>
      <trkpt lat="44.44359" lon="1.43156">
        <ele>130</ele>
        <time>2011-04-07T07:45:06</time>
      </trkpt>
      <trkpt lat="44.44355" lon="1.43158">
        <ele>130</ele>
        <time>2011-04-07T07:45:07</time>
      </trkpt>
      <trkpt lat="44.44351" lon="1.43159">
        <ele>130</ele>
        <time>2011-04-07T07:45:08</time>
      </trkpt>
      <trkpt lat="44.44348" lon="1.4316">
        <ele>130</ele>
        <time>2011-04-07T07:45:09</time>
      </trkpt>
      <trkpt lat="44.4434" lon="1.43161">
        <ele>130</ele>
        <time>2011-04-07T07:45:11</time>
      </trkpt>
      <trkpt lat="44.44335" lon="1.43162">
        <ele>130</ele>
        <time>2011-04-07T07:45:12</time>
      </trkpt>
      <trkpt lat="44.44324" lon="1.43168">
        <ele>130</ele>
        <time>2011-04-07T07:45:14</time>
      </trkpt>
      <trkpt lat="44.44318" lon="1.43171">
        <ele>130</ele>
        <time>2011-04-07T07:45:15</time>
      </trkpt>
      <trkpt lat="44.44307" lon="1.43179">
        <ele>130</ele>
        <time>2011-04-07T07:45:17</time>
      </trkpt>
      <trkpt lat="44.44301" lon="1.43183">
        <ele>130</ele>
        <time>2011-04-07T07:45:18</time>
      </trkpt>
      <trkpt lat="44.44291" lon="1.43192">
        <ele>160</ele>
        <time>2011-04-07T07:45:20</time>
      </trkpt>
      <trkpt lat="44.44285" lon="1.43196">
        <ele>160</ele>
        <time>2011-04-07T07:45:21</time>
      </trkpt>
      <trkpt lat="44.4428" lon="1.43201">
        <ele>160</ele>
        <time>2011-04-07T07:45:22</time>
      </trkpt>
      <trkpt lat="44.44274" lon="1.43205">
        <ele>160</ele>
        <time>2011-04-07T07:45:23</time>
      </trkpt>
      <trkpt lat="44.44269" lon="1.43209">
        <ele>125</ele>
        <time>2011-04-07T07:45:24</time>
      </trkpt>
      <trkpt lat="44.44259" lon="1.43217">
        <ele>125</ele>
        <time>2011-04-07T07:45:26</time>
      </trkpt>
      <trkpt lat="44.44255" lon="1.4322">
        <ele>125</ele>
        <time>2011-04-07T07:45:27</time>
      </trkpt>
      <trkpt lat="44.44245" lon="1.43227">
        <ele>125</ele>
        <time>2011-04-07T07:45:29</time>
      </trkpt>
      <trkpt lat="44.44241" lon="1.4323">
        <ele>125</ele>
        <time>2011-04-07T07:45:30</time>
      </trkpt>
      <trkpt lat="44.44236" lon="1.43234">
        <ele>125</ele>
        <time>2011-04-07T07:45:31</time>
      </trkpt>
      <trkpt lat="44.44229" lon="1.43242">
        <ele>125</ele>
        <time>2011-04-07T07:45:33</time>
      </trkpt>
      <trkpt lat="44.44225" lon="1.43247">
        <ele>125</ele>
        <time>2011-04-07T07:45:34</time>
      </trkpt>
      <trkpt lat="44.44217" lon="1.43256">
        <ele>125</ele>
        <time>2011-04-07T07:45:36</time>
      </trkpt>
      <trkpt lat="44.44213" lon="1.43261">
        <ele>125</ele>
        <time>2011-04-07T07:45:37</time>
      </trkpt>
      <trkpt lat="44.44205" lon="1.4327">
        <ele>165</ele>
        <time>2011-04-07T07:45:39</time>
      </trkpt>
      <trkpt lat="44.44197" lon="1.43279">
        <ele>165</ele>
        <time>2011-04-07T07:45:41</time>
      </trkpt>
      <trkpt lat="44.44193" lon="1.43283">
        <ele>165</ele>
        <time>2011-04-07T07:45:42</time>
      </trkpt>
      <trkpt lat="44.44184" lon="1.43292">
        <ele>165</ele>
        <time>2011-04-07T07:45:44</time>
      </trkpt>
      <trkpt lat="44.44179" lon="1.43296">
        <ele>138</ele>
        <time>2011-04-07T07:45:45</time>
      </trkpt>
      <trkpt lat="44.4417" lon="1.43304">
        <ele>138</ele>
        <time>2011-04-07T07:45:47</time>
      </trkpt>
      <trkpt lat="44.44166" lon="1.43308">
        <ele>138</ele>
        <time>2011-04-07T07:45:48</time>
      </trkpt>
      <trkpt lat="44.44156" lon="1.43317">
        <ele>138</ele>
        <time>2011-04-07T07:45:50</time>
      </trkpt>
      <trkpt lat="44.44146" lon="1.43326">
        <ele>138</ele>
        <time>2011-04-07T07:45:52</time>
      </trkpt>
      <trkpt lat="44.44141" lon="1.4333">
        <ele>138</ele>
        <time>2011-04-07T07:45:53</time>
      </trkpt>
      <trkpt lat="44.4413" lon="1.43338">
        <ele>138</ele>
        <time>2011-04-07T07:45:55</time>
      </trkpt>
      <trkpt lat="44.44119" lon="1.43347">
        <ele>150</ele>
        <time>2011-04-07T07:45:57</time>
      </trkpt>
      <trkpt lat="44.44113" lon="1.43351">
        <ele>150</ele>
        <time>2011-04-07T07:45:58</time>
      </trkpt>
      <trkpt lat="44.44108" lon="1.43355">
        <ele>150</ele>
        <time>2011-04-07T07:45:59</time>
      </trkpt>
      <trkpt lat="44.44096" lon="1.43363">
        <ele>150</ele>
        <time>2011-04-07T07:46:01</time>
      </trkpt>
      <trkpt lat="44.4409" lon="1.43367">
        <ele>150</ele>
        <time>2011-04-07T07:46:02</time>
      </trkpt>
      <trkpt lat="44.44085" lon="1.43371">
        <ele>150</ele>
        <time>2011-04-07T07:46:03</time>
      </trkpt>
      <trkpt lat="44.44075" lon="1.4338">
        <ele>115</ele>
        <time>2011-04-07T07:46:05</time>
      </trkpt>
      <trkpt lat="44.4407" lon="1.43385">
        <ele>115</ele>
        <time>2011-04-07T07:46:06</time>
      </trkpt>
      <trkpt lat="44.44065" lon="1.4339">
        <ele>115</ele>
        <time>2011-04-07T07:46:07</time>
      </trkpt>
      <trkpt lat="44.44055" lon="1.434">
        <ele>115</ele>
        <time>2011-04-07T07:46:09</time>
      </trkpt>
      <trkpt lat="44.4405" lon="1.43405">
        <ele>115</ele>
        <time>2011-04-07T07:46:10</time>
      </trkpt>
      <trkpt lat="44.44042" lon="1.43417">
        <ele>115</ele>
        <time>2011-04-07T07:46:12</time>
      </trkpt>
      <trkpt lat="44.44038" lon="1.43423">
        <ele>152</ele>
        <time>2011-04-07T07:46:13</time>
      </trkpt>
      <trkpt lat="44.44033" lon="1.43437">
        <ele>152</ele>
        <time>2011-04-07T07:46:15</time>
      </trkpt>
      <trkpt lat="44.44031" lon="1.43445">
        <ele>152</ele>
        <time>2011-04-07T07:46:16</time>
      </trkpt>
      <trkpt lat="44.44029" lon="1.43453">
        <ele>152</ele>
        <time>2011-04-07T07:46:17</time>
      </trkpt>
      <trkpt lat="44.44024" lon="1.4347">
        <ele>128</ele>
        <time>2011-04-07T07:46:19</time>
      </trkpt>
      <trkpt lat="44.44022" lon="1.43488">
        <ele>128</ele>
        <time>2011-04-07T07:46:21</time>
      </trkpt>
      <trkpt lat="44.44022" lon="1.43498">
        <ele>128</ele>
        <time>2011-04-07T07:46:22</time>
      </trkpt>
      <trkpt lat="44.44021" lon="1.43508">
        <ele>128</ele>
        <time>2011-04-07T07:46:23</time>
      </trkpt>
      <trkpt lat="44.4402" lon="1.43527">
        <ele>128</ele>
        <time>2011-04-07T07:46:25</time>
      </trkpt>
      <trkpt lat="44.4402" lon="1.43536">
        <ele>128</ele>
        <time>2011-04-07T07:46:26</time>
      </trkpt>
      <trkpt lat="44.44019" lon="1.43545">
        <ele>116</ele>
        <time>2011-04-07T07:46:27</time>
      </trkpt>
      <trkpt lat="44.44018" lon="1.43553">
        <ele>116</ele>
        <time>2011-04-07T07:46:28</time>
      </trkpt>
      <trkpt lat="44.44017" lon="1.43562">
        <ele>116</ele>
        <time>2011-04-07T07:46:29</time>
      </trkpt>
      <trkpt lat="44.44016" lon="1.4357">
        <ele>116</ele>
        <time>2011-04-07T07:46:30</time>
      </trkpt>
      <trkpt lat="44.44013" lon="1.43588">
        <ele>116</ele>
        <time>2011-04-07T07:46:32</time>
      </trkpt>
      <trkpt lat="44.44012" lon="1.43596">
        <ele>116</ele>
        <time>2011-04-07T07:46:33</time>
      </trkpt>
      <trkpt lat="44.4401" lon="1.43613">
        <ele>116</ele>
        <time>2011-04-07T07:46:35</time>
      </trkpt>
      <trkpt lat="44.44007" lon="1.43629">
        <ele>115</ele>
        <time>2011-04-07T07:46:37</time>
      </trkpt>
      <trkpt lat="44.44005" lon="1.43646">
        <ele>115</ele>
        <time>2011-04-07T07:46:39</time>
      </trkpt>
      <trkpt lat="44.44003" lon="1.43661">
        <ele>115</ele>
        <time>2011-04-07T07:46:41</time>
      </trkpt>
      <trkpt lat="44.44001" lon="1.43678">
        <ele>115</ele>
        <time>2011-04-07T07:46:43</time>
      </trkpt>
      <trkpt lat="44.44001" lon="1.43688">
        <ele>115</ele>
        <time>2011-04-07T07:46:45</time>
      </trkpt>
      <trkpt lat="44.43999" lon="1.43702">
        <ele>115</ele>
        <time>2011-04-07T07:46:47</time>
      </trkpt>
      <trkpt lat="44.43998" lon="1.43712">
        <ele>117</ele>
        <time>2011-04-07T07:46:48</time>
      </trkpt>
      <trkpt lat="44.43997" lon="1.43721">
        <ele>117</ele>
        <time>2011-04-07T07:46:49</time>
      </trkpt>
      <trkpt lat="44.43996" lon="1.43732">
        <ele>117</ele>
        <time>2011-04-07T07:46:50</time>
      </trkpt>
      <trkpt lat="44.43994" lon="1.43751">
        <ele>117</ele>
        <time>2011-04-07T07:46:52</time>
      </trkpt>
      <trkpt lat="44.43994" lon="1.4376">
        <ele>117</ele>
        <time>2011-04-07T07:46:53</time>
      </trkpt>
      <trkpt lat="44.43993" lon="1.43778">
        <ele>117</ele>
        <time>2011-04-07T07:46:55</time>
      </trkpt>
      <trkpt lat="44.43992" lon="1.43787">
        <ele>117</ele>
        <time>2011-04-07T07:46:56</time>
      </trkpt>
      <trkpt lat="44.43992" lon="1.43795">
        <ele>115</ele>
        <time>2011-04-07T07:46:57</time>
      </trkpt>
      <trkpt lat="44.43991" lon="1.43812">
        <ele>115</ele>
        <time>2011-04-07T07:46:59</time>
      </trkpt>
      <trkpt lat="44.43991" lon="1.4382">
        <ele>115</ele>
        <time>2011-04-07T07:47:00</time>
      </trkpt>
      <trkpt lat="44.4399" lon="1.43837">
        <ele>115</ele>
        <time>2011-04-07T07:47:02</time>
      </trkpt>
      <trkpt lat="44.4399" lon="1.43845">
        <ele>115</ele>
        <time>2011-04-07T07:47:03</time>
      </trkpt>
      <trkpt lat="44.4399" lon="1.43854">
        <ele>115</ele>
        <time>2011-04-07T07:47:04</time>
      </trkpt>
      <trkpt lat="44.43989" lon="1.4387">
        <ele>115</ele>
        <time>2011-04-07T07:47:06</time>
      </trkpt>
      <trkpt lat="44.43988" lon="1.43886">
        <ele>115</ele>
        <time>2011-04-07T07:47:08</time>
      </trkpt>
      <trkpt lat="44.43988" lon="1.43902">
        <ele>115</ele>
        <time>2011-04-07T07:47:10</time>
      </trkpt>
      <trkpt lat="44.43987" lon="1.43911">
        <ele>115</ele>
        <time>2011-04-07T07:47:11</time>
      </trkpt>
      <trkpt lat="44.43987" lon="1.43927">
        <ele>115</ele>
        <time>2011-04-07T07:47:13</time>
      </trkpt>
      <trkpt lat="44.43986" lon="1.43945">
        <ele>115</ele>
        <time>2011-04-07T07:47:15</time>
      </trkpt>
      <trkpt lat="44.43985" lon="1.43953">
        <ele>115</ele>
        <time>2011-04-07T07:47:16</time>
      </trkpt>
      <trkpt lat="44.43985" lon="1.43969">
        <ele>116</ele>
        <time>2011-04-07T07:47:18</time>
      </trkpt>
      <trkpt lat="44.43984" lon="1.43984">
        <ele>116</ele>
        <time>2011-04-07T07:47:20</time>
      </trkpt>
      <trkpt lat="44.43986" lon="1.43992">
        <ele>116</ele>
        <time>2011-04-07T07:47:21</time>
      </trkpt>
      <trkpt lat="44.43988" lon="1.44008">
        <ele>116</ele>
        <time>2011-04-07T07:47:23</time>
      </trkpt>
      <trkpt lat="44.43989" lon="1.44016">
        <ele>116</ele>
        <time>2011-04-07T07:47:24</time>
      </trkpt>
      <trkpt lat="44.4399" lon="1.44024">
        <ele>116</ele>
        <time>2011-04-07T07:47:25</time>
      </trkpt>
      <trkpt lat="44.43992" lon="1.44039">
        <ele>116</ele>
        <time>2011-04-07T07:47:27</time>
      </trkpt>
      <trkpt lat="44.43993" lon="1.44047">
        <ele>116</ele>
        <time>2011-04-07T07:47:28</time>
      </trkpt>
      <trkpt lat="44.43996" lon="1.44063">
        <ele>116</ele>
        <time>2011-04-07T07:47:30</time>
      </trkpt>
      <trkpt lat="44.43998" lon="1.44071">
        <ele>116</ele>
        <time>2011-04-07T07:47:31</time>
      </trkpt>
      <trkpt lat="44.44" lon="1.44086">
        <ele>116</ele>
        <time>2011-04-07T07:47:33</time>
      </trkpt>
      <trkpt lat="44.44001" lon="1.44094">
        <ele>116</ele>
        <time>2011-04-07T07:47:34</time>
      </trkpt>
      <trkpt lat="44.44003" lon="1.44109">
        <ele>116</ele>
        <time>2011-04-07T07:47:36</time>
      </trkpt>
      <trkpt lat="44.44004" lon="1.44116">
        <ele>116</ele>
        <time>2011-04-07T07:47:37</time>
      </trkpt>
      <trkpt lat="44.44005" lon="1.44129">
        <ele>118</ele>
        <time>2011-04-07T07:47:39</time>
      </trkpt>
      <trkpt lat="44.44006" lon="1.44135">
        <ele>118</ele>
        <time>2011-04-07T07:47:40</time>
      </trkpt>
      <trkpt lat="44.44008" lon="1.44144">
        <ele>118</ele>
        <time>2011-04-07T07:47:42</time>
      </trkpt>
      <trkpt lat="44.44009" lon="1.44148">
        <ele>118</ele>
        <time>2011-04-07T07:47:43</time>
      </trkpt>
      <trkpt lat="44.4401" lon="1.44155">
        <ele>118</ele>
        <time>2011-04-07T07:47:45</time>
      </trkpt>
      <trkpt lat="44.44008" lon="1.44161">
        <ele>118</ele>
        <time>2011-04-07T07:47:47</time>
      </trkpt>
      <trkpt lat="44.44005" lon="1.44171">
        <ele>118</ele>
        <time>2011-04-07T07:47:49</time>
      </trkpt>
      <trkpt lat="44.44004" lon="1.44176">
        <ele>118</ele>
        <time>2011-04-07T07:47:50</time>
      </trkpt>
      <trkpt lat="44.44001" lon="1.44187">
        <ele>118</ele>
        <time>2011-04-07T07:47:52</time>
      </trkpt>
      <trkpt lat="44.43997" lon="1.44191">
        <ele>118</ele>
        <time>2011-04-07T07:47:53</time>
      </trkpt>
      <trkpt lat="44.43994" lon="1.44195">
        <ele>118</ele>
        <time>2011-04-07T07:47:54</time>
      </trkpt>
      <trkpt lat="44.43991" lon="1.44199">
        <ele>118</ele>
        <time>2011-04-07T07:47:55</time>
      </trkpt>
      <trkpt lat="44.43984" lon="1.44208">
        <ele>118</ele>
        <time>2011-04-07T07:47:57</time>
      </trkpt>
      <trkpt lat="44.43977" lon="1.44216">
        <ele>121</ele>
        <time>2011-04-07T07:47:59</time>
      </trkpt>
      <trkpt lat="44.4397" lon="1.44225">
        <ele>121</ele>
        <time>2011-04-07T07:48:01</time>
      </trkpt>
      <trkpt lat="44.43966" lon="1.44236">
        <ele>121</ele>
        <time>2011-04-07T07:48:03</time>
      </trkpt>
      <trkpt lat="44.43964" lon="1.44249">
        <ele>121</ele>
        <time>2011-04-07T07:48:05</time>
      </trkpt>
      <trkpt lat="44.43964" lon="1.44256">
        <ele>121</ele>
        <time>2011-04-07T07:48:06</time>
      </trkpt>
      <trkpt lat="44.43964" lon="1.44262">
        <ele>121</ele>
        <time>2011-04-07T07:48:07</time>
      </trkpt>
      <trkpt lat="44.43964" lon="1.44275">
        <ele>121</ele>
        <time>2011-04-07T07:48:09</time>
      </trkpt>
      <trkpt lat="44.43963" lon="1.44281">
        <ele>121</ele>
        <time>2011-04-07T07:48:10</time>
      </trkpt>
      <trkpt lat="44.43962" lon="1.44294">
        <ele>130</ele>
        <time>2011-04-07T07:48:12</time>
      </trkpt>
      <trkpt lat="44.43961" lon="1.443">
        <ele>130</ele>
        <time>2011-04-07T07:48:13</time>
      </trkpt>
      <trkpt lat="44.43959" lon="1.44306">
        <ele>130</ele>
        <time>2011-04-07T07:48:14</time>
      </trkpt>
      <trkpt lat="44.43958" lon="1.44312">
        <ele>127</ele>
        <time>2011-04-07T07:48:15</time>
      </trkpt>
      <trkpt lat="44.43955" lon="1.44323">
        <ele>127</ele>
        <time>2011-04-07T07:48:17</time>
      </trkpt>
      <trkpt lat="44.43952" lon="1.44335">
        <ele>127</ele>
        <time>2011-04-07T07:48:19</time>
      </trkpt>
      <trkpt lat="44.43951" lon="1.44341">
        <ele>127</ele>
        <time>2011-04-07T07:48:20</time>
      </trkpt>
      <trkpt lat="44.43948" lon="1.44352">
        <ele>127</ele>
        <time>2011-04-07T07:48:22</time>
      </trkpt>
      <trkpt lat="44.43947" lon="1.44358">
        <ele>127</ele>
        <time>2011-04-07T07:48:23</time>
      </trkpt>
      <trkpt lat="44.43946" lon="1.44364">
        <ele>127</ele>
        <time>2011-04-07T07:48:24</time>
      </trkpt>
      <trkpt lat="44.43943" lon="1.44375">
        <ele>128</ele>
        <time>2011-04-07T07:48:26</time>
      </trkpt>
      <trkpt lat="44.43942" lon="1.44387">
        <ele>128</ele>
        <time>2011-04-07T07:48:28</time>
      </trkpt>
      <trkpt lat="44.4394" lon="1.44394">
        <ele>128</ele>
        <time>2011-04-07T07:48:29</time>
      </trkpt>
      <trkpt lat="44.43939" lon="1.444">
        <ele>128</ele>
        <time>2011-04-07T07:48:30</time>
      </trkpt>
      <trkpt lat="44.43938" lon="1.44406">
        <ele>128</ele>
        <time>2011-04-07T07:48:31</time>
      </trkpt>
      <trkpt lat="44.43934" lon="1.44418">
        <ele>128</ele>
        <time>2011-04-07T07:48:33</time>
      </trkpt>
      <trkpt lat="44.4393" lon="1.44429">
        <ele>128</ele>
        <time>2011-04-07T07:48:35</time>
      </trkpt>
      <trkpt lat="44.43926" lon="1.4444">
        <ele>128</ele>
        <time>2011-04-07T07:48:37</time>
      </trkpt>
      <trkpt lat="44.43921" lon="1.4445">
        <ele>128</ele>
        <time>2011-04-07T07:48:39</time>
      </trkpt>
      <trkpt lat="44.43916" lon="1.4446">
        <ele>134</ele>
        <time>2011-04-07T07:48:41</time>
      </trkpt>
      <trkpt lat="44.43913" lon="1.44464">
        <ele>134</ele>
        <time>2011-04-07T07:48:42</time>
      </trkpt>
      <trkpt lat="44.43907" lon="1.44474">
        <ele>134</ele>
        <time>2011-04-07T07:48:44</time>
      </trkpt>
      <trkpt lat="44.43901" lon="1.44484">
        <ele>134</ele>
        <time>2011-04-07T07:48:46</time>
      </trkpt>
      <trkpt lat="44.43898" lon="1.44489">
        <ele>134</ele>
        <time>2011-04-07T07:48:47</time>
      </trkpt>
      <trkpt lat="44.43893" lon="1.445">
        <ele>134</ele>
        <time>2011-04-07T07:48:49</time>
      </trkpt>
      <trkpt lat="44.43889" lon="1.4451">
        <ele>134</ele>
        <time>2011-04-07T07:48:51</time>
      </trkpt>
      <trkpt lat="44.43885" lon="1.44521">
        <ele>134</ele>
        <time>2011-04-07T07:48:53</time>
      </trkpt>
      <trkpt lat="44.43882" lon="1.44526">
        <ele>134</ele>
        <time>2011-04-07T07:48:54</time>
      </trkpt>
      <trkpt lat="44.43877" lon="1.44537">
        <ele>134</ele>
        <time>2011-04-07T07:48:56</time>
      </trkpt>
      <trkpt lat="44.43875" lon="1.44542">
        <ele>142</ele>
        <time>2011-04-07T07:48:57</time>
      </trkpt>
      <trkpt lat="44.43871" lon="1.44553">
        <ele>128</ele>
        <time>2011-04-07T07:48:59</time>
      </trkpt>
      <trkpt lat="44.43867" lon="1.44564">
        <ele>128</ele>
        <time>2011-04-07T07:49:01</time>
      </trkpt>
      <trkpt lat="44.43865" lon="1.44569">
        <ele>128</ele>
        <time>2011-04-07T07:49:02</time>
      </trkpt>
      <trkpt lat="44.43861" lon="1.4458">
        <ele>128</ele>
        <time>2011-04-07T07:49:04</time>
      </trkpt>
      <trkpt lat="44.43858" lon="1.44592">
        <ele>128</ele>
        <time>2011-04-07T07:49:06</time>
      </trkpt>
      <trkpt lat="44.43857" lon="1.44598">
        <ele>128</ele>
        <time>2011-04-07T07:49:07</time>
      </trkpt>
      <trkpt lat="44.43856" lon="1.44604">
        <ele>128</ele>
        <time>2011-04-07T07:49:08</time>
      </trkpt>
      <trkpt lat="44.43853" lon="1.44617">
        <ele>128</ele>
        <time>2011-04-07T07:49:10</time>
      </trkpt>
      <trkpt lat="44.43852" lon="1.4463">
        <ele>132</ele>
        <time>2011-04-07T07:49:12</time>
      </trkpt>
      <trkpt lat="44.43851" lon="1.44636">
        <ele>132</ele>
        <time>2011-04-07T07:49:13</time>
      </trkpt>
      <trkpt lat="44.4385" lon="1.44643">
        <ele>132</ele>
        <time>2011-04-07T07:49:14</time>
      </trkpt>
      <trkpt lat="44.43849" lon="1.44655">
        <ele>132</ele>
        <time>2011-04-07T07:49:16</time>
      </trkpt>
      <trkpt lat="44.43848" lon="1.44662">
        <ele>132</ele>
        <time>2011-04-07T07:49:17</time>
      </trkpt>
      <trkpt lat="44.43848" lon="1.44675">
        <ele>132</ele>
        <time>2011-04-07T07:49:19</time>
      </trkpt>
      <trkpt lat="44.43848" lon="1.44687">
        <ele>132</ele>
        <time>2011-04-07T07:49:21</time>
      </trkpt>
      <trkpt lat="44.43848" lon="1.44699">
        <ele>132</ele>
        <time>2011-04-07T07:49:23</time>
      </trkpt>
      <trkpt lat="44.43848" lon="1.44705">
        <ele>132</ele>
        <time>2011-04-07T07:49:24</time>
      </trkpt>
      <trkpt lat="44.43848" lon="1.44712">
        <ele>134</ele>
        <time>2011-04-07T07:49:25</time>
      </trkpt>
      <trkpt lat="44.43848" lon="1.44718">
        <ele>134</ele>
        <time>2011-04-07T07:49:26</time>
      </trkpt>
      <trkpt lat="44.43849" lon="1.44731">
        <ele>134</ele>
        <time>2011-04-07T07:49:28</time>
      </trkpt>
      <trkpt lat="44.4385" lon="1.44745">
        <ele>134</ele>
        <time>2011-04-07T07:49:30</time>
      </trkpt>
      <trkpt lat="44.4385" lon="1.44751">
        <ele>134</ele>
        <time>2011-04-07T07:49:31</time>
      </trkpt>
      <trkpt lat="44.43851" lon="1.44764">
        <ele>134</ele>
        <time>2011-04-07T07:49:33</time>
      </trkpt>
      <trkpt lat="44.43851" lon="1.44771">
        <ele>134</ele>
        <time>2011-04-07T07:49:34</time>
      </trkpt>
      <trkpt lat="44.43851" lon="1.44784">
        <ele>134</ele>
        <time>2011-04-07T07:49:36</time>
      </trkpt>
      <trkpt lat="44.4385" lon="1.44796">
        <ele>134</ele>
        <time>2011-04-07T07:49:38</time>
      </trkpt>
      <trkpt lat="44.4385" lon="1.44802">
        <ele>134</ele>
        <time>2011-04-07T07:49:39</time>
      </trkpt>
      <trkpt lat="44.43848" lon="1.44815">
        <ele>134</ele>
        <time>2011-04-07T07:49:41</time>
      </trkpt>
      <trkpt lat="44.43846" lon="1.44827">
        <ele>134</ele>
        <time>2011-04-07T07:49:43</time>
      </trkpt>
      <trkpt lat="44.43845" lon="1.44833">
        <ele>134</ele>
        <time>2011-04-07T07:49:44</time>
      </trkpt>
      <trkpt lat="44.43844" lon="1.4484">
        <ele>134</ele>
        <time>2011-04-07T07:49:45</time>
      </trkpt>
      <trkpt lat="44.43843" lon="1.44846">
        <ele>134</ele>
        <time>2011-04-07T07:49:46</time>
      </trkpt>
      <trkpt lat="44.43843" lon="1.44853">
        <ele>134</ele>
        <time>2011-04-07T07:49:47</time>
      </trkpt>
      <trkpt lat="44.4384" lon="1.44865">
        <ele>134</ele>
        <time>2011-04-07T07:49:49</time>
      </trkpt>
      <trkpt lat="44.43838" lon="1.44877">
        <ele>135</ele>
        <time>2011-04-07T07:49:51</time>
      </trkpt>
      <trkpt lat="44.43836" lon="1.44883">
        <ele>135</ele>
        <time>2011-04-07T07:49:52</time>
      </trkpt>
      <trkpt lat="44.43832" lon="1.44895">
        <ele>135</ele>
        <time>2011-04-07T07:49:54</time>
      </trkpt>
      <trkpt lat="44.43828" lon="1.44906">
        <ele>135</ele>
        <time>2011-04-07T07:49:56</time>
      </trkpt>
      <trkpt lat="44.43824" lon="1.44917">
        <ele>135</ele>
        <time>2011-04-07T07:49:58</time>
      </trkpt>
      <trkpt lat="44.43822" lon="1.44922">
        <ele>135</ele>
        <time>2011-04-07T07:49:59</time>
      </trkpt>
      <trkpt lat="44.43817" lon="1.44933">
        <ele>135</ele>
        <time>2011-04-07T07:50:01</time>
      </trkpt>
      <trkpt lat="44.43815" lon="1.44939">
        <ele>135</ele>
        <time>2011-04-07T07:50:02</time>
      </trkpt>
      <trkpt lat="44.4381" lon="1.44949">
        <ele>135</ele>
        <time>2011-04-07T07:50:04</time>
      </trkpt>
      <trkpt lat="44.43804" lon="1.44959">
        <ele>143</ele>
        <time>2011-04-07T07:50:06</time>
      </trkpt>
      <trkpt lat="44.43799" lon="1.44968">
        <ele>143</ele>
        <time>2011-04-07T07:50:08</time>
      </trkpt>
      <trkpt lat="44.43796" lon="1.44973">
        <ele>143</ele>
        <time>2011-04-07T07:50:09</time>
      </trkpt>
      <trkpt lat="44.43791" lon="1.44983">
        <ele>137</ele>
        <time>2011-04-07T07:50:11</time>
      </trkpt>
      <trkpt lat="44.43788" lon="1.44988">
        <ele>137</ele>
        <time>2011-04-07T07:50:12</time>
      </trkpt>
      <trkpt lat="44.43783" lon="1.44998">
        <ele>137</ele>
        <time>2011-04-07T07:50:14</time>
      </trkpt>
      <trkpt lat="44.43781" lon="1.45003">
        <ele>137</ele>
        <time>2011-04-07T07:50:15</time>
      </trkpt>
      <trkpt lat="44.43779" lon="1.45009">
        <ele>137</ele>
        <time>2011-04-07T07:50:16</time>
      </trkpt>
      <trkpt lat="44.43775" lon="1.4502">
        <ele>137</ele>
        <time>2011-04-07T07:50:18</time>
      </trkpt>
      <trkpt lat="44.43774" lon="1.45026">
        <ele>137</ele>
        <time>2011-04-07T07:50:19</time>
      </trkpt>
      <trkpt lat="44.43773" lon="1.45032">
        <ele>137</ele>
        <time>2011-04-07T07:50:20</time>
      </trkpt>
      <trkpt lat="44.4377" lon="1.45044">
        <ele>136</ele>
        <time>2011-04-07T07:50:22</time>
      </trkpt>
      <trkpt lat="44.43769" lon="1.4505">
        <ele>136</ele>
        <time>2011-04-07T07:50:23</time>
      </trkpt>
      <trkpt lat="44.43767" lon="1.45062">
        <ele>136</ele>
        <time>2011-04-07T07:50:25</time>
      </trkpt>
      <trkpt lat="44.43765" lon="1.45068">
        <ele>136</ele>
        <time>2011-04-07T07:50:26</time>
      </trkpt>
      <trkpt lat="44.43763" lon="1.45079">
        <ele>136</ele>
        <time>2011-04-07T07:50:28</time>
      </trkpt>
      <trkpt lat="44.43762" lon="1.45091">
        <ele>136</ele>
        <time>2011-04-07T07:50:30</time>
      </trkpt>
      <trkpt lat="44.43761" lon="1.45097">
        <ele>136</ele>
        <time>2011-04-07T07:50:31</time>
      </trkpt>
      <trkpt lat="44.43759" lon="1.45108">
        <ele>136</ele>
        <time>2011-04-07T07:50:33</time>
      </trkpt>
      <trkpt lat="44.43758" lon="1.45114">
        <ele>136</ele>
        <time>2011-04-07T07:50:34</time>
      </trkpt>
      <trkpt lat="44.43757" lon="1.4512">
        <ele>136</ele>
        <time>2011-04-07T07:50:35</time>
      </trkpt>
      <trkpt lat="44.43756" lon="1.45132">
        <ele>140</ele>
        <time>2011-04-07T07:50:37</time>
      </trkpt>
      <trkpt lat="44.43755" lon="1.45138">
        <ele>140</ele>
        <time>2011-04-07T07:50:38</time>
      </trkpt>
      <trkpt lat="44.43754" lon="1.45144">
        <ele>140</ele>
        <time>2011-04-07T07:50:39</time>
      </trkpt>
      <trkpt lat="44.43753" lon="1.4515">
        <ele>140</ele>
        <time>2011-04-07T07:50:40</time>
      </trkpt>
      <trkpt lat="44.43753" lon="1.45156">
        <ele>140</ele>
        <time>2011-04-07T07:50:41</time>
      </trkpt>
      <trkpt lat="44.4375" lon="1.45168">
        <ele>140</ele>
        <time>2011-04-07T07:50:43</time>
      </trkpt>
      <trkpt lat="44.43749" lon="1.45174">
        <ele>140</ele>
        <time>2011-04-07T07:50:44</time>
      </trkpt>
      <trkpt lat="44.43747" lon="1.45179">
        <ele>140</ele>
        <time>2011-04-07T07:50:45</time>
      </trkpt>
      <trkpt lat="44.43742" lon="1.45189">
        <ele>140</ele>
        <time>2011-04-07T07:50:47</time>
      </trkpt>
      <trkpt lat="44.4374" lon="1.45195">
        <ele>140</ele>
        <time>2011-04-07T07:50:48</time>
      </trkpt>
      <trkpt lat="44.43735" lon="1.45206">
        <ele>140</ele>
        <time>2011-04-07T07:50:50</time>
      </trkpt>
      <trkpt lat="44.4373" lon="1.45216">
        <ele>147</ele>
        <time>2011-04-07T07:50:52</time>
      </trkpt>
      <trkpt lat="44.43727" lon="1.4522">
        <ele>147</ele>
        <time>2011-04-07T07:50:53</time>
      </trkpt>
      <trkpt lat="44.43723" lon="1.4523">
        <ele>147</ele>
        <time>2011-04-07T07:50:55</time>
      </trkpt>
      <trkpt lat="44.43717" lon="1.45239">
        <ele>147</ele>
        <time>2011-04-07T07:50:57</time>
      </trkpt>
      <trkpt lat="44.43714" lon="1.45243">
        <ele>147</ele>
        <time>2011-04-07T07:50:58</time>
      </trkpt>
      <trkpt lat="44.43709" lon="1.45252">
        <ele>147</ele>
        <time>2011-04-07T07:51:00</time>
      </trkpt>
      <trkpt lat="44.43703" lon="1.45262">
        <ele>146</ele>
        <time>2011-04-07T07:51:02</time>
      </trkpt>
      <trkpt lat="44.43696" lon="1.45271">
        <ele>146</ele>
        <time>2011-04-07T07:51:04</time>
      </trkpt>
      <trkpt lat="44.43692" lon="1.45276">
        <ele>146</ele>
        <time>2011-04-07T07:51:05</time>
      </trkpt>
      <trkpt lat="44.4369" lon="1.45281">
        <ele>146</ele>
        <time>2011-04-07T07:51:06</time>
      </trkpt>
      <trkpt lat="44.43683" lon="1.4529">
        <ele>146</ele>
        <time>2011-04-07T07:51:08</time>
      </trkpt>
      <trkpt lat="44.4368" lon="1.45295">
        <ele>145</ele>
        <time>2011-04-07T07:51:09</time>
      </trkpt>
      <trkpt lat="44.43677" lon="1.453">
        <ele>145</ele>
        <time>2011-04-07T07:51:10</time>
      </trkpt>
      <trkpt lat="44.43671" lon="1.45309">
        <ele>145</ele>
        <time>2011-04-07T07:51:12</time>
      </trkpt>
      <trkpt lat="44.43664" lon="1.45318">
        <ele>145</ele>
        <time>2011-04-07T07:51:14</time>
      </trkpt>
      <trkpt lat="44.43661" lon="1.45323">
        <ele>145</ele>
        <time>2011-04-07T07:51:15</time>
      </trkpt>
      <trkpt lat="44.43655" lon="1.45332">
        <ele>145</ele>
        <time>2011-04-07T07:51:17</time>
      </trkpt>
      <trkpt lat="44.43651" lon="1.45337">
        <ele>145</ele>
        <time>2011-04-07T07:51:18</time>
      </trkpt>
      <trkpt lat="44.43645" lon="1.45346">
        <ele>145</ele>
        <time>2011-04-07T07:51:20</time>
      </trkpt>
      <trkpt lat="44.43642" lon="1.45351">
        <ele>145</ele>
        <time>2011-04-07T07:51:21</time>
      </trkpt>
      <trkpt lat="44.43636" lon="1.4536">
        <ele>145</ele>
        <time>2011-04-07T07:51:23</time>
      </trkpt>
      <trkpt lat="44.43633" lon="1.45364">
        <ele>145</ele>
        <time>2011-04-07T07:51:24</time>
      </trkpt>
      <trkpt lat="44.43628" lon="1.45374">
        <ele>145</ele>
        <time>2011-04-07T07:51:26</time>
      </trkpt>
      <trkpt lat="44.43622" lon="1.45383">
        <ele>146</ele>
        <time>2011-04-07T07:51:28</time>
      </trkpt>
      <trkpt lat="44.4362" lon="1.45388">
        <ele>146</ele>
        <time>2011-04-07T07:51:29</time>
      </trkpt>
      <trkpt lat="44.43614" lon="1.45398">
        <ele>146</ele>
        <time>2011-04-07T07:51:31</time>
      </trkpt>
      <trkpt lat="44.43612" lon="1.45403">
        <ele>146</ele>
        <time>2011-04-07T07:51:32</time>
      </trkpt>
      <trkpt lat="44.43606" lon="1.45413">
        <ele>146</ele>
        <time>2011-04-07T07:51:34</time>
      </trkpt>
      <trkpt lat="44.43604" lon="1.45418">
        <ele>146</ele>
        <time>2011-04-07T07:51:35</time>
      </trkpt>
      <trkpt lat="44.43598" lon="1.45428">
        <ele>146</ele>
        <time>2011-04-07T07:51:37</time>
      </trkpt>
      <trkpt lat="44.43595" lon="1.45433">
        <ele>146</ele>
        <time>2011-04-07T07:51:38</time>
      </trkpt>
      <trkpt lat="44.43588" lon="1.4544">
        <ele>146</ele>
        <time>2011-04-07T07:51:40</time>
      </trkpt>
      <trkpt lat="44.43584" lon="1.45444">
        <ele>146</ele>
        <time>2011-04-07T07:51:41</time>
      </trkpt>
      <trkpt lat="44.43577" lon="1.45451">
        <ele>146</ele>
        <time>2011-04-07T07:51:43</time>
      </trkpt>
      <trkpt lat="44.43573" lon="1.45454">
        <ele>146</ele>
        <time>2011-04-07T07:51:44</time>
      </trkpt>
      <trkpt lat="44.43569" lon="1.45457">
        <ele>146</ele>
        <time>2011-04-07T07:51:45</time>
      </trkpt>
      <trkpt lat="44.43562" lon="1.45463">
        <ele>158</ele>
        <time>2011-04-07T07:51:47</time>
      </trkpt>
      <trkpt lat="44.43558" lon="1.45465">
        <ele>158</ele>
        <time>2011-04-07T07:51:48</time>
      </trkpt>
      <trkpt lat="44.4355" lon="1.4547">
        <ele>158</ele>
        <time>2011-04-07T07:51:50</time>
      </trkpt>
      <trkpt lat="44.43541" lon="1.45473">
        <ele>151</ele>
        <time>2011-04-07T07:51:52</time>
      </trkpt>
      <trkpt lat="44.43537" lon="1.45475">
        <ele>151</ele>
        <time>2011-04-07T07:51:53</time>
      </trkpt>
      <trkpt lat="44.43533" lon="1.45477">
        <ele>151</ele>
        <time>2011-04-07T07:51:54</time>
      </trkpt>
      <trkpt lat="44.43529" lon="1.45479">
        <ele>151</ele>
        <time>2011-04-07T07:51:55</time>
      </trkpt>
      <trkpt lat="44.4352" lon="1.45483">
        <ele>151</ele>
        <time>2011-04-07T07:51:57</time>
      </trkpt>
      <trkpt lat="44.43516" lon="1.45485">
        <ele>151</ele>
        <time>2011-04-07T07:51:58</time>
      </trkpt>
      <trkpt lat="44.43508" lon="1.4549">
        <ele>151</ele>
        <time>2011-04-07T07:52:00</time>
      </trkpt>
      <trkpt lat="44.435" lon="1.45495">
        <ele>151</ele>
        <time>2011-04-07T07:52:02</time>
      </trkpt>
      <trkpt lat="44.43492" lon="1.455">
        <ele>151</ele>
        <time>2011-04-07T07:52:04</time>
      </trkpt>
      <trkpt lat="44.43487" lon="1.45503">
        <ele>151</ele>
        <time>2011-04-07T07:52:05</time>
      </trkpt>
      <trkpt lat="44.43483" lon="1.45506">
        <ele>151</ele>
        <time>2011-04-07T07:52:06</time>
      </trkpt>
      <trkpt lat="44.43479" lon="1.45508">
        <ele>151</ele>
        <time>2011-04-07T07:52:07</time>
      </trkpt>
      <trkpt lat="44.43471" lon="1.45513">
        <ele>151</ele>
        <time>2011-04-07T07:52:09</time>
      </trkpt>
      <trkpt lat="44.43466" lon="1.45515">
        <ele>151</ele>
        <time>2011-04-07T07:52:10</time>
      </trkpt>
      <trkpt lat="44.43458" lon="1.45519">
        <ele>151</ele>
        <time>2011-04-07T07:52:12</time>
      </trkpt>
      <trkpt lat="44.43449" lon="1.45525">
        <ele>151</ele>
        <time>2011-04-07T07:52:14</time>
      </trkpt>
      <trkpt lat="44.43445" lon="1.45528">
        <ele>151</ele>
        <time>2011-04-07T07:52:15</time>
      </trkpt>
      <trkpt lat="44.43437" lon="1.45533">
        <ele>151</ele>
        <time>2011-04-07T07:52:17</time>
      </trkpt>
      <trkpt lat="44.43429" lon="1.45538">
        <ele>151</ele>
        <time>2011-04-07T07:52:19</time>
      </trkpt>
      <trkpt lat="44.43421" lon="1.45543">
        <ele>160</ele>
        <time>2011-04-07T07:52:21</time>
      </trkpt>
      <trkpt lat="44.43417" lon="1.45545">
        <ele>160</ele>
        <time>2011-04-07T07:52:22</time>
      </trkpt>
      <trkpt lat="44.43409" lon="1.4555">
        <ele>160</ele>
        <time>2011-04-07T07:52:24</time>
      </trkpt>
      <trkpt lat="44.43405" lon="1.45552">
        <ele>160</ele>
        <time>2011-04-07T07:52:25</time>
      </trkpt>
      <trkpt lat="44.43401" lon="1.45555">
        <ele>160</ele>
        <time>2011-04-07T07:52:26</time>
      </trkpt>
      <trkpt lat="44.43397" lon="1.45557">
        <ele>160</ele>
        <time>2011-04-07T07:52:27</time>
      </trkpt>
      <trkpt lat="44.43389" lon="1.45563">
        <ele>160</ele>
        <time>2011-04-07T07:52:29</time>
      </trkpt>
      <trkpt lat="44.43381" lon="1.45568">
        <ele>160</ele>
        <time>2011-04-07T07:52:31</time>
      </trkpt>
      <trkpt lat="44.43377" lon="1.45571">
        <ele>160</ele>
        <time>2011-04-07T07:52:32</time>
      </trkpt>
      <trkpt lat="44.43369" lon="1.45575">
        <ele>155</ele>
        <time>2011-04-07T07:52:34</time>
      </trkpt>
      <trkpt lat="44.43365" lon="1.45578">
        <ele>155</ele>
        <time>2011-04-07T07:52:35</time>
      </trkpt>
      <trkpt lat="44.43361" lon="1.4558">
        <ele>155</ele>
        <time>2011-04-07T07:52:36</time>
      </trkpt>
      <trkpt lat="44.43353" lon="1.45585">
        <ele>155</ele>
        <time>2011-04-07T07:52:38</time>
      </trkpt>
      <trkpt lat="44.43348" lon="1.45587">
        <ele>155</ele>
        <time>2011-04-07T07:52:39</time>
      </trkpt>
      <trkpt lat="44.4334" lon="1.45592">
        <ele>155</ele>
        <time>2011-04-07T07:52:41</time>
      </trkpt>
      <trkpt lat="44.43331" lon="1.45596">
        <ele>155</ele>
        <time>2011-04-07T07:52:43</time>
      </trkpt>
      <trkpt lat="44.43327" lon="1.45598">
        <ele>155</ele>
        <time>2011-04-07T07:52:44</time>
      </trkpt>
      <trkpt lat="44.4332" lon="1.45603">
        <ele>155</ele>
        <time>2011-04-07T07:52:46</time>
      </trkpt>
      <trkpt lat="44.43316" lon="1.45605">
        <ele>155</ele>
        <time>2011-04-07T07:52:47</time>
      </trkpt>
      <trkpt lat="44.43308" lon="1.4561">
        <ele>155</ele>
        <time>2011-04-07T07:52:49</time>
      </trkpt>
      <trkpt lat="44.43301" lon="1.45614">
        <ele>155</ele>
        <time>2011-04-07T07:52:51</time>
      </trkpt>
      <trkpt lat="44.43297" lon="1.45617">
        <ele>155</ele>
        <time>2011-04-07T07:52:52</time>
      </trkpt>
      <trkpt lat="44.4329" lon="1.45622">
        <ele>162</ele>
        <time>2011-04-07T07:52:54</time>
      </trkpt>
      <trkpt lat="44.43286" lon="1.45625">
        <ele>162</ele>
        <time>2011-04-07T07:52:55</time>
      </trkpt>
      <trkpt lat="44.43283" lon="1.45627">
        <ele>155</ele>
        <time>2011-04-07T07:52:56</time>
      </trkpt>
      <trkpt lat="44.43278" lon="1.45635">
        <ele>155</ele>
        <time>2011-04-07T07:52:58</time>
      </trkpt>
      <trkpt lat="44.43276" lon="1.4564">
        <ele>155</ele>
        <time>2011-04-07T07:52:59</time>
      </trkpt>
      <trkpt lat="44.43275" lon="1.4565">
        <ele>155</ele>
        <time>2011-04-07T07:53:01</time>
      </trkpt>
      <trkpt lat="44.43275" lon="1.45655">
        <ele>155</ele>
        <time>2011-04-07T07:53:02</time>
      </trkpt>
      <trkpt lat="44.43274" lon="1.45666">
        <ele>155</ele>
        <time>2011-04-07T07:53:04</time>
      </trkpt>
      <trkpt lat="44.43275" lon="1.45677">
        <ele>155</ele>
        <time>2011-04-07T07:53:06</time>
      </trkpt>
      <trkpt lat="44.43276" lon="1.45689">
        <ele>155</ele>
        <time>2011-04-07T07:53:08</time>
      </trkpt>
      <trkpt lat="44.43276" lon="1.45694">
        <ele>155</ele>
        <time>2011-04-07T07:53:09</time>
      </trkpt>
      <trkpt lat="44.43277" lon="1.45705">
        <ele>155</ele>
        <time>2011-04-07T07:53:11</time>
      </trkpt>
      <trkpt lat="44.43279" lon="1.45715">
        <ele>157</ele>
        <time>2011-04-07T07:53:13</time>
      </trkpt>
      <trkpt lat="44.4328" lon="1.4572">
        <ele>157</ele>
        <time>2011-04-07T07:53:14</time>
      </trkpt>
      <trkpt lat="44.43281" lon="1.45725">
        <ele>157</ele>
        <time>2011-04-07T07:53:15</time>
      </trkpt>
      <trkpt lat="44.43282" lon="1.45735">
        <ele>157</ele>
        <time>2011-04-07T07:53:17</time>
      </trkpt>
      <trkpt lat="44.43283" lon="1.45741">
        <ele>157</ele>
        <time>2011-04-07T07:53:18</time>
      </trkpt>
      <trkpt lat="44.43284" lon="1.45752">
        <ele>157</ele>
        <time>2011-04-07T07:53:20</time>
      </trkpt>
      <trkpt lat="44.43285" lon="1.45763">
        <ele>157</ele>
        <time>2011-04-07T07:53:22</time>
      </trkpt>
      <trkpt lat="44.43285" lon="1.45773">
        <ele>157</ele>
        <time>2011-04-07T07:53:24</time>
      </trkpt>
      <trkpt lat="44.43286" lon="1.45779">
        <ele>157</ele>
        <time>2011-04-07T07:53:25</time>
      </trkpt>
      <trkpt lat="44.43286" lon="1.45789">
        <ele>157</ele>
        <time>2011-04-07T07:53:27</time>
      </trkpt>
      <trkpt lat="44.43286" lon="1.45794">
        <ele>166</ele>
        <time>2011-04-07T07:53:28</time>
      </trkpt>
      <trkpt lat="44.43286" lon="1.45799">
        <ele>166</ele>
        <time>2011-04-07T07:53:29</time>
      </trkpt>
      <trkpt lat="44.43286" lon="1.45808">
        <ele>166</ele>
        <time>2011-04-07T07:53:31</time>
      </trkpt>
      <trkpt lat="44.43286" lon="1.45813">
        <ele>166</ele>
        <time>2011-04-07T07:53:32</time>
      </trkpt>
      <trkpt lat="44.43286" lon="1.45822">
        <ele>166</ele>
        <time>2011-04-07T07:53:34</time>
      </trkpt>
      <trkpt lat="44.43286" lon="1.45827">
        <ele>166</ele>
        <time>2011-04-07T07:53:35</time>
      </trkpt>
      <trkpt lat="44.43285" lon="1.45836">
        <ele>166</ele>
        <time>2011-04-07T07:53:37</time>
      </trkpt>
      <trkpt lat="44.43284" lon="1.45843">
        <ele>166</ele>
        <time>2011-04-07T07:53:39</time>
      </trkpt>
      <trkpt lat="44.43283" lon="1.45852">
        <ele>166</ele>
        <time>2011-04-07T07:53:42</time>
      </trkpt>
      <trkpt lat="44.43282" lon="1.45857">
        <ele>166</ele>
        <time>2011-04-07T07:53:44</time>
      </trkpt>
      <trkpt lat="44.43282" lon="1.45862">
        <ele>166</ele>
        <time>2011-04-07T07:53:46</time>
      </trkpt>
      <trkpt lat="44.43281" lon="1.45867">
        <ele>166</ele>
        <time>2011-04-07T07:53:48</time>
      </trkpt>
      <trkpt lat="44.43281" lon="1.45872">
        <ele>166</ele>
        <time>2011-04-07T07:53:50</time>
      </trkpt>
      <trkpt lat="44.43279" lon="1.4588">
        <ele>176</ele>
        <time>2011-04-07T07:53:53</time>
      </trkpt>
      <trkpt lat="44.43278" lon="1.45885">
        <ele>176</ele>
        <time>2011-04-07T07:53:55</time>
      </trkpt>
      <trkpt lat="44.43277" lon="1.45889">
        <ele>176</ele>
        <time>2011-04-07T07:53:57</time>
      </trkpt>
      <trkpt lat="44.43277" lon="1.45895">
        <ele>176</ele>
        <time>2011-04-07T07:53:59</time>
      </trkpt>
      <trkpt lat="44.43276" lon="1.459">
        <ele>176</ele>
        <time>2011-04-07T07:54:01</time>
      </trkpt>
      <trkpt lat="44.43275" lon="1.45905">
        <ele>176</ele>
        <time>2011-04-07T07:54:03</time>
      </trkpt>
      <trkpt lat="44.43273" lon="1.4591">
        <ele>176</ele>
        <time>2011-04-07T07:54:05</time>
      </trkpt>
      <trkpt lat="44.43272" lon="1.45915">
        <ele>176</ele>
        <time>2011-04-07T07:54:07</time>
      </trkpt>
      <trkpt lat="44.4327" lon="1.45919">
        <ele>176</ele>
        <time>2011-04-07T07:54:09</time>
      </trkpt>
      <trkpt lat="44.43268" lon="1.45923">
        <ele>176</ele>
        <time>2011-04-07T07:54:11</time>
      </trkpt>
      <trkpt lat="44.43266" lon="1.45926">
        <ele>176</ele>
        <time>2011-04-07T07:54:13</time>
      </trkpt>
      <trkpt lat="44.43265" lon="1.4593">
        <ele>176</ele>
        <time>2011-04-07T07:54:15</time>
      </trkpt>
      <trkpt lat="44.43263" lon="1.45934">
        <ele>176</ele>
        <time>2011-04-07T07:54:17</time>
      </trkpt>
      <trkpt lat="44.43261" lon="1.45936">
        <ele>176</ele>
        <time>2011-04-07T07:54:19</time>
      </trkpt>
      <trkpt lat="44.43259" lon="1.45939">
        <ele>176</ele>
        <time>2011-04-07T07:54:21</time>
      </trkpt>
      <trkpt lat="44.43256" lon="1.45943">
        <ele>176</ele>
        <time>2011-04-07T07:54:23</time>
      </trkpt>
      <trkpt lat="44.43254" lon="1.45946">
        <ele>176</ele>
        <time>2011-04-07T07:54:25</time>
      </trkpt>
      <trkpt lat="44.43251" lon="1.45949">
        <ele>176</ele>
        <time>2011-04-07T07:54:27</time>
      </trkpt>
      <trkpt lat="44.4325" lon="1.45952">
        <ele>176</ele>
        <time>2011-04-07T07:54:29</time>
      </trkpt>
      <trkpt lat="44.43248" lon="1.45955">
        <ele>176</ele>
        <time>2011-04-07T07:54:31</time>
      </trkpt>
      <trkpt lat="44.43246" lon="1.45958">
        <ele>176</ele>
        <time>2011-04-07T07:54:33</time>
      </trkpt>
      <trkpt lat="44.43243" lon="1.4596">
        <ele>169</ele>
        <time>2011-04-07T07:54:35</time>
      </trkpt>
      <trkpt lat="44.43241" lon="1.45961">
        <ele>169</ele>
        <time>2011-04-07T07:54:37</time>
      </trkpt>
      <trkpt lat="44.43238" lon="1.45964">
        <ele>169</ele>
        <time>2011-04-07T07:54:39</time>
      </trkpt>
      <trkpt lat="44.43235" lon="1.45966">
        <ele>169</ele>
        <time>2011-04-07T07:54:41</time>
      </trkpt>
      <trkpt lat="44.43233" lon="1.45968">
        <ele>169</ele>
        <time>2011-04-07T07:54:43</time>
      </trkpt>
      <trkpt lat="44.4323" lon="1.4597">
        <ele>169</ele>
        <time>2011-04-07T07:54:45</time>
      </trkpt>
      <trkpt lat="44.43227" lon="1.45973">
        <ele>169</ele>
        <time>2011-04-07T07:54:47</time>
      </trkpt>
      <trkpt lat="44.43224" lon="1.45975">
        <ele>169</ele>
        <time>2011-04-07T07:54:49</time>
      </trkpt>
      <trkpt lat="44.4322" lon="1.45977">
        <ele>169</ele>
        <time>2011-04-07T07:54:51</time>
      </trkpt>
      <trkpt lat="44.43218" lon="1.45979">
        <ele>169</ele>
        <time>2011-04-07T07:54:53</time>
      </trkpt>
      <trkpt lat="44.43215" lon="1.45982">
        <ele>169</ele>
        <time>2011-04-07T07:54:55</time>
      </trkpt>
      <trkpt lat="44.43213" lon="1.45984">
        <ele>169</ele>
        <time>2011-04-07T07:54:57</time>
      </trkpt>
      <trkpt lat="44.43209" lon="1.45986">
        <ele>169</ele>
        <time>2011-04-07T07:54:59</time>
      </trkpt>
      <trkpt lat="44.43206" lon="1.45987">
        <ele>192</ele>
        <time>2011-04-07T07:55:01</time>
      </trkpt>
      <trkpt lat="44.43204" lon="1.4599">
        <ele>192</ele>
        <time>2011-04-07T07:55:03</time>
      </trkpt>
      <trkpt lat="44.43201" lon="1.45992">
        <ele>192</ele>
        <time>2011-04-07T07:55:05</time>
      </trkpt>
      <trkpt lat="44.43199" lon="1.45995">
        <ele>192</ele>
        <time>2011-04-07T07:55:07</time>
      </trkpt>
      <trkpt lat="44.43197" lon="1.45998">
        <ele>192</ele>
        <time>2011-04-07T07:55:09</time>
      </trkpt>
      <trkpt lat="44.43195" lon="1.46001">
        <ele>192</ele>
        <time>2011-04-07T07:55:11</time>
      </trkpt>
      <trkpt lat="44.43194" lon="1.46004">
        <ele>192</ele>
        <time>2011-04-07T07:55:13</time>
      </trkpt>
      <trkpt lat="44.43192" lon="1.46007">
        <ele>192</ele>
        <time>2011-04-07T07:55:15</time>
      </trkpt>
      <trkpt lat="44.43191" lon="1.4601">
        <ele>192</ele>
        <time>2011-04-07T07:55:17</time>
      </trkpt>
      <trkpt lat="44.43189" lon="1.46012">
        <ele>192</ele>
        <time>2011-04-07T07:55:19</time>
      </trkpt>
      <trkpt lat="44.43187" lon="1.46015">
        <ele>192</ele>
        <time>2011-04-07T07:55:21</time>
      </trkpt>
      <trkpt lat="44.43185" lon="1.46018">
        <ele>192</ele>
        <time>2011-04-07T07:55:23</time>
      </trkpt>
      <trkpt lat="44.43183" lon="1.46021">
        <ele>192</ele>
        <time>2011-04-07T07:55:25</time>
      </trkpt>
      <trkpt lat="44.43181" lon="1.46024">
        <ele>192</ele>
        <time>2011-04-07T07:55:27</time>
      </trkpt>
      <trkpt lat="44.43179" lon="1.46026">
        <ele>192</ele>
        <time>2011-04-07T07:55:29</time>
      </trkpt>
      <trkpt lat="44.43176" lon="1.46029">
        <ele>192</ele>
        <time>2011-04-07T07:55:31</time>
      </trkpt>
      <trkpt lat="44.43173" lon="1.46031">
        <ele>192</ele>
        <time>2011-04-07T07:55:33</time>
      </trkpt>
      <trkpt lat="44.43171" lon="1.46033">
        <ele>192</ele>
        <time>2011-04-07T07:55:35</time>
      </trkpt>
      <trkpt lat="44.43168" lon="1.46035">
        <ele>192</ele>
        <time>2011-04-07T07:55:37</time>
      </trkpt>
      <trkpt lat="44.43166" lon="1.46038">
        <ele>192</ele>
        <time>2011-04-07T07:55:39</time>
      </trkpt>
      <trkpt lat="44.43164" lon="1.46041">
        <ele>192</ele>
        <time>2011-04-07T07:55:41</time>
      </trkpt>
      <trkpt lat="44.43163" lon="1.46043">
        <ele>181</ele>
        <time>2011-04-07T07:55:43</time>
      </trkpt>
      <trkpt lat="44.43161" lon="1.46046">
        <ele>181</ele>
        <time>2011-04-07T07:55:45</time>
      </trkpt>
      <trkpt lat="44.43159" lon="1.46048">
        <ele>181</ele>
        <time>2011-04-07T07:55:47</time>
      </trkpt>
      <trkpt lat="44.43157" lon="1.4605">
        <ele>181</ele>
        <time>2011-04-07T07:55:49</time>
      </trkpt>
      <trkpt lat="44.43155" lon="1.46052">
        <ele>181</ele>
        <time>2011-04-07T07:55:51</time>
      </trkpt>
      <trkpt lat="44.43153" lon="1.46055">
        <ele>181</ele>
        <time>2011-04-07T07:55:53</time>
      </trkpt>
      <trkpt lat="44.43151" lon="1.46058">
        <ele>181</ele>
        <time>2011-04-07T07:55:55</time>
      </trkpt>
      <trkpt lat="44.43149" lon="1.4606">
        <ele>181</ele>
        <time>2011-04-07T07:55:57</time>
      </trkpt>
      <trkpt lat="44.43147" lon="1.46063">
        <ele>181</ele>
        <time>2011-04-07T07:55:59</time>
      </trkpt>
      <trkpt lat="44.43145" lon="1.46066">
        <ele>181</ele>
        <time>2011-04-07T07:56:01</time>
      </trkpt>
      <trkpt lat="44.43143" lon="1.46068">
        <ele>181</ele>
        <time>2011-04-07T07:56:03</time>
      </trkpt>
      <trkpt lat="44.43141" lon="1.4607">
        <ele>181</ele>
        <time>2011-04-07T07:56:05</time>
      </trkpt>
      <trkpt lat="44.43139" lon="1.46073">
        <ele>181</ele>
        <time>2011-04-07T07:56:07</time>
      </trkpt>
      <trkpt lat="44.43137" lon="1.46075">
        <ele>181</ele>
        <time>2011-04-07T07:56:09</time>
      </trkpt>
      <trkpt lat="44.43135" lon="1.46078">
        <ele>181</ele>
        <time>2011-04-07T07:56:11</time>
      </trkpt>
      <trkpt lat="44.43133" lon="1.4608">
        <ele>181</ele>
        <time>2011-04-07T07:56:13</time>
      </trkpt>
      <trkpt lat="44.43131" lon="1.46083">
        <ele>181</ele>
        <time>2011-04-07T07:56:15</time>
      </trkpt>
      <trkpt lat="44.43129" lon="1.46086">
        <ele>181</ele>
        <time>2011-04-07T07:56:17</time>
      </trkpt>
      <trkpt lat="44.43127" lon="1.46089">
        <ele>181</ele>
        <time>2011-04-07T07:56:19</time>
      </trkpt>
      <trkpt lat="44.43125" lon="1.46091">
        <ele>211</ele>
        <time>2011-04-07T07:56:21</time>
      </trkpt>
      <trkpt lat="44.43123" lon="1.46094">
        <ele>211</ele>
        <time>2011-04-07T07:56:23</time>
      </trkpt>
      <trkpt lat="44.43121" lon="1.46097">
        <ele>211</ele>
        <time>2011-04-07T07:56:25</time>
      </trkpt>
      <trkpt lat="44.43119" lon="1.461">
        <ele>211</ele>
        <time>2011-04-07T07:56:27</time>
      </trkpt>
      <trkpt lat="44.43117" lon="1.46104">
        <ele>211</ele>
        <time>2011-04-07T07:56:29</time>
      </trkpt>
      <trkpt lat="44.43116" lon="1.46107">
        <ele>211</ele>
        <time>2011-04-07T07:56:31</time>
      </trkpt>
      <trkpt lat="44.43114" lon="1.4611">
        <ele>211</ele>
        <time>2011-04-07T07:56:33</time>
      </trkpt>
      <trkpt lat="44.43112" lon="1.46113">
        <ele>211</ele>
        <time>2011-04-07T07:56:35</time>
      </trkpt>
      <trkpt lat="44.4311" lon="1.46116">
        <ele>211</ele>
        <time>2011-04-07T07:56:37</time>
      </trkpt>
      <trkpt lat="44.43108" lon="1.46119">
        <ele>211</ele>
        <time>2011-04-07T07:56:39</time>
      </trkpt>
      <trkpt lat="44.43106" lon="1.46122">
        <ele>211</ele>
        <time>2011-04-07T07:56:41</time>
      </trkpt>
      <trkpt lat="44.43104" lon="1.46125">
        <ele>211</ele>
        <time>2011-04-07T07:56:43</time>
      </trkpt>
      <trkpt lat="44.43102" lon="1.46128">
        <ele>201</ele>
        <time>2011-04-07T07:56:45</time>
      </trkpt>
      <trkpt lat="44.431" lon="1.4613">
        <ele>201</ele>
        <time>2011-04-07T07:56:47</time>
      </trkpt>
      <trkpt lat="44.43098" lon="1.46133">
        <ele>201</ele>
        <time>2011-04-07T07:56:49</time>
      </trkpt>
      <trkpt lat="44.43096" lon="1.46135">
        <ele>201</ele>
        <time>2011-04-07T07:56:51</time>
      </trkpt>
      <trkpt lat="44.43094" lon="1.46138">
        <ele>201</ele>
        <time>2011-04-07T07:56:53</time>
      </trkpt>
      <trkpt lat="44.43092" lon="1.46141">
        <ele>201</ele>
        <time>2011-04-07T07:56:55</time>
      </trkpt>
      <trkpt lat="44.4309" lon="1.46143">
        <ele>201</ele>
        <time>2011-04-07T07:56:57</time>
      </trkpt>
      <trkpt lat="44.43088" lon="1.46146">
        <ele>201</ele>
        <time>2011-04-07T07:56:59</time>
      </trkpt>
      <trkpt lat="44.43086" lon="1.46149">
        <ele>201</ele>
        <time>2011-04-07T07:57:01</time>
      </trkpt>
      <trkpt lat="44.43084" lon="1.46152">
        <ele>201</ele>
        <time>2011-04-07T07:57:03</time>
      </trkpt>
      <trkpt lat="44.43083" lon="1.46156">
        <ele>201</ele>
        <time>2011-04-07T07:57:05</time>
      </trkpt>
      <trkpt lat="44.43081" lon="1.46159">
        <ele>201</ele>
        <time>2011-04-07T07:57:07</time>
      </trkpt>
      <trkpt lat="44.43079" lon="1.46162">
        <ele>201</ele>
        <time>2011-04-07T07:57:09</time>
      </trkpt>
      <trkpt lat="44.43078" lon="1.46165">
        <ele>201</ele>
        <time>2011-04-07T07:57:11</time>
      </trkpt>
      <trkpt lat="44.43076" lon="1.46168">
        <ele>201</ele>
        <time>2011-04-07T07:57:13</time>
      </trkpt>
      <trkpt lat="44.43074" lon="1.46171">
        <ele>201</ele>
        <time>2011-04-07T07:57:15</time>
      </trkpt>
      <trkpt lat="44.43072" lon="1.46174">
        <ele>201</ele>
        <time>2011-04-07T07:57:17</time>
      </trkpt>
      <trkpt lat="44.43071" lon="1.46178">
        <ele>201</ele>
        <time>2011-04-07T07:57:19</time>
      </trkpt>
      <trkpt lat="44.43069" lon="1.46181">
        <ele>201</ele>
        <time>2011-04-07T07:57:21</time>
      </trkpt>
      <trkpt lat="44.43067" lon="1.46184">
        <ele>201</ele>
        <time>2011-04-07T07:57:23</time>
      </trkpt>
      <trkpt lat="44.43066" lon="1.46188">
        <ele>201</ele>
        <time>2011-04-07T07:57:25</time>
      </trkpt>
      <trkpt lat="44.43064" lon="1.46191">
        <ele>201</ele>
        <time>2011-04-07T07:57:27</time>
      </trkpt>
      <trkpt lat="44.43063" lon="1.46195">
        <ele>201</ele>
        <time>2011-04-07T07:57:29</time>
      </trkpt>
      <trkpt lat="44.43061" lon="1.46199">
        <ele>201</ele>
        <time>2011-04-07T07:57:31</time>
      </trkpt>
      <trkpt lat="44.4306" lon="1.46202">
        <ele>201</ele>
        <time>2011-04-07T07:57:33</time>
      </trkpt>
      <trkpt lat="44.43058" lon="1.46206">
        <ele>201</ele>
        <time>2011-04-07T07:57:35</time>
      </trkpt>
      <trkpt lat="44.43056" lon="1.4621">
        <ele>194</ele>
        <time>2011-04-07T07:57:37</time>
      </trkpt>
      <trkpt lat="44.43055" lon="1.46214">
        <ele>194</ele>
        <time>2011-04-07T07:57:39</time>
      </trkpt>
      <trkpt lat="44.43053" lon="1.46217">
        <ele>194</ele>
        <time>2011-04-07T07:57:41</time>
      </trkpt>
      <trkpt lat="44.43052" lon="1.46221">
        <ele>194</ele>
        <time>2011-04-07T07:57:43</time>
      </trkpt>
      <trkpt lat="44.4305" lon="1.46224">
        <ele>194</ele>
        <time>2011-04-07T07:57:45</time>
      </trkpt>
      <trkpt lat="44.43049" lon="1.46228">
        <ele>194</ele>
        <time>2011-04-07T07:57:47</time>
      </trkpt>
      <trkpt lat="44.43047" lon="1.46232">
        <ele>194</ele>
        <time>2011-04-07T07:57:49</time>
      </trkpt>
      <trkpt lat="44.43045" lon="1.46235">
        <ele>194</ele>
        <time>2011-04-07T07:57:51</time>
      </trkpt>
      <trkpt lat="44.43044" lon="1.46238">
        <ele>194</ele>
        <time>2011-04-07T07:57:53</time>
      </trkpt>
      <trkpt lat="44.43042" lon="1.46241">
        <ele>194</ele>
        <time>2011-04-07T07:57:55</time>
      </trkpt>
      <trkpt lat="44.43041" lon="1.46244">
        <ele>228</ele>
        <time>2011-04-07T07:57:57</time>
      </trkpt>
      <trkpt lat="44.4304" lon="1.46247">
        <ele>228</ele>
        <time>2011-04-07T07:57:59</time>
      </trkpt>
      <trkpt lat="44.43038" lon="1.4625">
        <ele>228</ele>
        <time>2011-04-07T07:58:01</time>
      </trkpt>
      <trkpt lat="44.43037" lon="1.46254">
        <ele>228</ele>
        <time>2011-04-07T07:58:03</time>
      </trkpt>
      <trkpt lat="44.43036" lon="1.46258">
        <ele>228</ele>
        <time>2011-04-07T07:58:05</time>
      </trkpt>
      <trkpt lat="44.43034" lon="1.46262">
        <ele>228</ele>
        <time>2011-04-07T07:58:07</time>
      </trkpt>
      <trkpt lat="44.43033" lon="1.46266">
        <ele>228</ele>
        <time>2011-04-07T07:58:09</time>
      </trkpt>
      <trkpt lat="44.43031" lon="1.46269">
        <ele>228</ele>
        <time>2011-04-07T07:58:11</time>
      </trkpt>
      <trkpt lat="44.43029" lon="1.46273">
        <ele>228</ele>
        <time>2011-04-07T07:58:13</time>
      </trkpt>
      <trkpt lat="44.43028" lon="1.46277">
        <ele>228</ele>
        <time>2011-04-07T07:58:15</time>
      </trkpt>
      <trkpt lat="44.43027" lon="1.46281">
        <ele>228</ele>
        <time>2011-04-07T07:58:17</time>
      </trkpt>
      <trkpt lat="44.43026" lon="1.46285">
        <ele>228</ele>
        <time>2011-04-07T07:58:19</time>
      </trkpt>
      <trkpt lat="44.43025" lon="1.46288">
        <ele>228</ele>
        <time>2011-04-07T07:58:21</time>
      </trkpt>
      <trkpt lat="44.43024" lon="1.46292">
        <ele>228</ele>
        <time>2011-04-07T07:58:23</time>
      </trkpt>
      <trkpt lat="44.43023" lon="1.46296">
        <ele>228</ele>
        <time>2011-04-07T07:58:25</time>
      </trkpt>
      <trkpt lat="44.43022" lon="1.463">
        <ele>228</ele>
        <time>2011-04-07T07:58:27</time>
      </trkpt>
      <trkpt lat="44.43021" lon="1.46303">
        <ele>228</ele>
        <time>2011-04-07T07:58:29</time>
      </trkpt>
      <trkpt lat="44.4302" lon="1.46307">
        <ele>228</ele>
        <time>2011-04-07T07:58:31</time>
      </trkpt>
      <trkpt lat="44.43021" lon="1.4631">
        <ele>228</ele>
        <time>2011-04-07T07:58:33</time>
      </trkpt>
      <trkpt lat="44.4302" lon="1.46314">
        <ele>228</ele>
        <time>2011-04-07T07:58:35</time>
      </trkpt>
      <trkpt lat="44.43019" lon="1.46316">
        <ele>228</ele>
        <time>2011-04-07T07:58:36</time>
      </trkpt>
      <trkpt lat="44.43018" lon="1.4632">
        <ele>228</ele>
        <time>2011-04-07T07:58:38</time>
      </trkpt>
      <trkpt lat="44.43017" lon="1.46324">
        <ele>228</ele>
        <time>2011-04-07T07:58:40</time>
      </trkpt>
      <trkpt lat="44.43016" lon="1.46328">
        <ele>228</ele>
        <time>2011-04-07T07:58:42</time>
      </trkpt>
      <trkpt lat="44.43015" lon="1.46332">
        <ele>228</ele>
        <time>2011-04-07T07:58:44</time>
      </trkpt>
      <trkpt lat="44.43015" lon="1.46337">
        <ele>228</ele>
        <time>2011-04-07T07:58:46</time>
      </trkpt>
      <trkpt lat="44.43014" lon="1.46341">
        <ele>228</ele>
        <time>2011-04-07T07:58:48</time>
      </trkpt>
      <trkpt lat="44.43014" lon="1.46345">
        <ele>228</ele>
        <time>2011-04-07T07:58:50</time>
      </trkpt>
      <trkpt lat="44.43013" lon="1.4635">
        <ele>228</ele>
        <time>2011-04-07T07:58:52</time>
      </trkpt>
      <trkpt lat="44.43013" lon="1.46354">
        <ele>228</ele>
        <time>2011-04-07T07:58:54</time>
      </trkpt>
      <trkpt lat="44.43012" lon="1.46358">
        <ele>228</ele>
        <time>2011-04-07T07:58:56</time>
      </trkpt>
      <trkpt lat="44.43011" lon="1.46362">
        <ele>228</ele>
        <time>2011-04-07T07:58:58</time>
      </trkpt>
      <trkpt lat="44.43011" lon="1.46366">
        <ele>228</ele>
        <time>2011-04-07T07:59:00</time>
      </trkpt>
      <trkpt lat="44.4301" lon="1.4637">
        <ele>228</ele>
        <time>2011-04-07T07:59:02</time>
      </trkpt>
      <trkpt lat="44.43009" lon="1.46375">
        <ele>228</ele>
        <time>2011-04-07T07:59:04</time>
      </trkpt>
      <trkpt lat="44.43008" lon="1.46379">
        <ele>226</ele>
        <time>2011-04-07T07:59:06</time>
      </trkpt>
      <trkpt lat="44.43007" lon="1.46383">
        <ele>226</ele>
        <time>2011-04-07T07:59:08</time>
      </trkpt>
      <trkpt lat="44.43007" lon="1.46386">
        <ele>226</ele>
        <time>2011-04-07T07:59:10</time>
      </trkpt>
      <trkpt lat="44.43006" lon="1.4639">
        <ele>226</ele>
        <time>2011-04-07T07:59:12</time>
      </trkpt>
      <trkpt lat="44.43005" lon="1.46393">
        <ele>226</ele>
        <time>2011-04-07T07:59:14</time>
      </trkpt>
      <trkpt lat="44.43004" lon="1.46397">
        <ele>226</ele>
        <time>2011-04-07T07:59:16</time>
      </trkpt>
      <trkpt lat="44.43003" lon="1.464">
        <ele>226</ele>
        <time>2011-04-07T07:59:18</time>
      </trkpt>
      <trkpt lat="44.43001" lon="1.46403">
        <ele>226</ele>
        <time>2011-04-07T07:59:20</time>
      </trkpt>
      <trkpt lat="44.43" lon="1.46409">
        <ele>226</ele>
        <time>2011-04-07T07:59:23</time>
      </trkpt>
      <trkpt lat="44.42999" lon="1.46414">
        <ele>226</ele>
        <time>2011-04-07T07:59:25</time>
      </trkpt>
      <trkpt lat="44.42998" lon="1.46418">
        <ele>226</ele>
        <time>2011-04-07T07:59:27</time>
      </trkpt>
      <trkpt lat="44.42997" lon="1.46422">
        <ele>226</ele>
        <time>2011-04-07T07:59:29</time>
      </trkpt>
      <trkpt lat="44.42997" lon="1.46426">
        <ele>226</ele>
        <time>2011-04-07T07:59:31</time>
      </trkpt>
      <trkpt lat="44.42997" lon="1.4643">
        <ele>226</ele>
        <time>2011-04-07T07:59:33</time>
      </trkpt>
      <trkpt lat="44.42996" lon="1.46434">
        <ele>226</ele>
        <time>2011-04-07T07:59:35</time>
      </trkpt>
      <trkpt lat="44.42996" lon="1.46438">
        <ele>226</ele>
        <time>2011-04-07T07:59:37</time>
      </trkpt>
      <trkpt lat="44.42995" lon="1.46442">
        <ele>226</ele>
        <time>2011-04-07T07:59:39</time>
      </trkpt>
      <trkpt lat="44.42994" lon="1.46446">
        <ele>226</ele>
        <time>2011-04-07T07:59:41</time>
      </trkpt>
      <trkpt lat="44.42993" lon="1.46449">
        <ele>226</ele>
        <time>2011-04-07T07:59:43</time>
      </trkpt>
      <trkpt lat="44.42991" lon="1.46453">
        <ele>226</ele>
        <time>2011-04-07T07:59:45</time>
      </trkpt>
      <trkpt lat="44.4299" lon="1.46456">
        <ele>226</ele>
        <time>2011-04-07T07:59:47</time>
      </trkpt>
      <trkpt lat="44.4299" lon="1.4646">
        <ele>230</ele>
        <time>2011-04-07T07:59:49</time>
      </trkpt>
      <trkpt lat="44.42989" lon="1.46464">
        <ele>230</ele>
        <time>2011-04-07T07:59:51</time>
      </trkpt>
      <trkpt lat="44.42988" lon="1.46468">
        <ele>230</ele>
        <time>2011-04-07T07:59:53</time>
      </trkpt>
      <trkpt lat="44.42987" lon="1.46472">
        <ele>230</ele>
        <time>2011-04-07T07:59:55</time>
      </trkpt>
      <trkpt lat="44.42986" lon="1.46476">
        <ele>230</ele>
        <time>2011-04-07T07:59:57</time>
      </trkpt>
      <trkpt lat="44.42985" lon="1.46479">
        <ele>230</ele>
        <time>2011-04-07T07:59:59</time>
      </trkpt>
      <trkpt lat="44.42983" lon="1.46483">
        <ele>230</ele>
        <time>2011-04-07T08:00:01</time>
      </trkpt>
      <trkpt lat="44.42982" lon="1.46487">
        <ele>230</ele>
        <time>2011-04-07T08:00:03</time>
      </trkpt>
      <trkpt lat="44.4298" lon="1.46491">
        <ele>230</ele>
        <time>2011-04-07T08:00:05</time>
      </trkpt>
      <trkpt lat="44.42978" lon="1.46494">
        <ele>230</ele>
        <time>2011-04-07T08:00:07</time>
      </trkpt>
      <trkpt lat="44.42976" lon="1.46497">
        <ele>230</ele>
        <time>2011-04-07T08:00:09</time>
      </trkpt>
      <trkpt lat="44.42974" lon="1.46501">
        <ele>230</ele>
        <time>2011-04-07T08:00:11</time>
      </trkpt>
      <trkpt lat="44.42974" lon="1.46505">
        <ele>230</ele>
        <time>2011-04-07T08:00:13</time>
      </trkpt>
      <trkpt lat="44.42971" lon="1.46508">
        <ele>230</ele>
        <time>2011-04-07T08:00:15</time>
      </trkpt>
      <trkpt lat="44.4297" lon="1.46511">
        <ele>230</ele>
        <time>2011-04-07T08:00:16</time>
      </trkpt>
      <trkpt lat="44.42969" lon="1.46515">
        <ele>230</ele>
        <time>2011-04-07T08:00:18</time>
      </trkpt>
      <trkpt lat="44.42968" lon="1.46519">
        <ele>230</ele>
        <time>2011-04-07T08:00:20</time>
      </trkpt>
      <trkpt lat="44.42967" lon="1.46523">
        <ele>230</ele>
        <time>2011-04-07T08:00:22</time>
      </trkpt>
      <trkpt lat="44.42966" lon="1.46527">
        <ele>230</ele>
        <time>2011-04-07T08:00:24</time>
      </trkpt>
      <trkpt lat="44.42965" lon="1.46532">
        <ele>230</ele>
        <time>2011-04-07T08:00:26</time>
      </trkpt>
      <trkpt lat="44.42965" lon="1.46536">
        <ele>230</ele>
        <time>2011-04-07T08:00:28</time>
      </trkpt>
      <trkpt lat="44.42963" lon="1.4654">
        <ele>230</ele>
        <time>2011-04-07T08:00:30</time>
      </trkpt>
      <trkpt lat="44.42961" lon="1.46543">
        <ele>225</ele>
        <time>2011-04-07T08:00:32</time>
      </trkpt>
      <trkpt lat="44.4296" lon="1.46546">
        <ele>225</ele>
        <time>2011-04-07T08:00:34</time>
      </trkpt>
      <trkpt lat="44.42958" lon="1.46549">
        <ele>246</ele>
        <time>2011-04-07T08:00:36</time>
      </trkpt>
      <trkpt lat="44.42957" lon="1.46551">
        <ele>246</ele>
        <time>2011-04-07T08:00:37</time>
      </trkpt>
      <trkpt lat="44.42955" lon="1.46555">
        <ele>246</ele>
        <time>2011-04-07T08:00:39</time>
      </trkpt>
      <trkpt lat="44.42952" lon="1.46558">
        <ele>246</ele>
        <time>2011-04-07T08:00:41</time>
      </trkpt>
      <trkpt lat="44.42949" lon="1.46561">
        <ele>246</ele>
        <time>2011-04-07T08:00:43</time>
      </trkpt>
      <trkpt lat="44.42947" lon="1.46565">
        <ele>246</ele>
        <time>2011-04-07T08:00:45</time>
      </trkpt>
      <trkpt lat="44.42945" lon="1.46568">
        <ele>246</ele>
        <time>2011-04-07T08:00:47</time>
      </trkpt>
      <trkpt lat="44.42943" lon="1.46571">
        <ele>246</ele>
        <time>2011-04-07T08:00:49</time>
      </trkpt>
      <trkpt lat="44.42941" lon="1.46574">
        <ele>246</ele>
        <time>2011-04-07T08:00:51</time>
      </trkpt>
      <trkpt lat="44.42939" lon="1.46578">
        <ele>246</ele>
        <time>2011-04-07T08:00:53</time>
      </trkpt>
      <trkpt lat="44.42938" lon="1.46582">
        <ele>246</ele>
        <time>2011-04-07T08:00:55</time>
      </trkpt>
      <trkpt lat="44.42936" lon="1.46585">
        <ele>246</ele>
        <time>2011-04-07T08:00:57</time>
      </trkpt>
      <trkpt lat="44.42933" lon="1.46589">
        <ele>246</ele>
        <time>2011-04-07T08:00:59</time>
      </trkpt>
      <trkpt lat="44.42931" lon="1.46592">
        <ele>246</ele>
        <time>2011-04-07T08:01:01</time>
      </trkpt>
      <trkpt lat="44.42929" lon="1.46596">
        <ele>246</ele>
        <time>2011-04-07T08:01:03</time>
      </trkpt>
      <trkpt lat="44.42927" lon="1.46599">
        <ele>246</ele>
        <time>2011-04-07T08:01:05</time>
      </trkpt>
      <trkpt lat="44.42924" lon="1.46603">
        <ele>246</ele>
        <time>2011-04-07T08:01:07</time>
      </trkpt>
      <trkpt lat="44.42923" lon="1.46607">
        <ele>246</ele>
        <time>2011-04-07T08:01:09</time>
      </trkpt>
      <trkpt lat="44.4292" lon="1.46611">
        <ele>246</ele>
        <time>2011-04-07T08:01:11</time>
      </trkpt>
      <trkpt lat="44.42918" lon="1.46615">
        <ele>246</ele>
        <time>2011-04-07T08:01:13</time>
      </trkpt>
      <trkpt lat="44.42917" lon="1.46619">
        <ele>246</ele>
        <time>2011-04-07T08:01:15</time>
      </trkpt>
      <trkpt lat="44.42915" lon="1.46624">
        <ele>246</ele>
        <time>2011-04-07T08:01:17</time>
      </trkpt>
      <trkpt lat="44.42913" lon="1.46628">
        <ele>246</ele>
        <time>2011-04-07T08:01:19</time>
      </trkpt>
      <trkpt lat="44.42911" lon="1.46631">
        <ele>246</ele>
        <time>2011-04-07T08:01:21</time>
      </trkpt>
      <trkpt lat="44.42909" lon="1.46635">
        <ele>246</ele>
        <time>2011-04-07T08:01:23</time>
      </trkpt>
      <trkpt lat="44.42907" lon="1.46638">
        <ele>246</ele>
        <time>2011-04-07T08:01:25</time>
      </trkpt>
      <trkpt lat="44.42905" lon="1.46642">
        <ele>246</ele>
        <time>2011-04-07T08:01:27</time>
      </trkpt>
      <trkpt lat="44.42904" lon="1.46647">
        <ele>246</ele>
        <time>2011-04-07T08:01:29</time>
      </trkpt>
      <trkpt lat="44.42902" lon="1.46651">
        <ele>246</ele>
        <time>2011-04-07T08:01:31</time>
      </trkpt>
      <trkpt lat="44.42901" lon="1.46654">
        <ele>246</ele>
        <time>2011-04-07T08:01:33</time>
      </trkpt>
      <trkpt lat="44.42899" lon="1.46658">
        <ele>246</ele>
        <time>2011-04-07T08:01:35</time>
      </trkpt>
      <trkpt lat="44.42898" lon="1.46663">
        <ele>246</ele>
        <time>2011-04-07T08:01:37</time>
      </trkpt>
      <trkpt lat="44.42897" lon="1.46668">
        <ele>246</ele>
        <time>2011-04-07T08:01:39</time>
      </trkpt>
      <trkpt lat="44.42896" lon="1.46674">
        <ele>246</ele>
        <time>2011-04-07T08:01:41</time>
      </trkpt>
      <trkpt lat="44.42894" lon="1.46678">
        <ele>246</ele>
        <time>2011-04-07T08:01:43</time>
      </trkpt>
      <trkpt lat="44.42893" lon="1.46682">
        <ele>246</ele>
        <time>2011-04-07T08:01:45</time>
      </trkpt>
      <trkpt lat="44.42891" lon="1.46686">
        <ele>246</ele>
        <time>2011-04-07T08:01:47</time>
      </trkpt>
      <trkpt lat="44.4289" lon="1.4669">
        <ele>246</ele>
        <time>2011-04-07T08:01:49</time>
      </trkpt>
      <trkpt lat="44.42888" lon="1.46694">
        <ele>246</ele>
        <time>2011-04-07T08:01:51</time>
      </trkpt>
      <trkpt lat="44.42887" lon="1.46698">
        <ele>246</ele>
        <time>2011-04-07T08:01:53</time>
      </trkpt>
      <trkpt lat="44.42886" lon="1.46702">
        <ele>246</ele>
        <time>2011-04-07T08:01:55</time>
      </trkpt>
      <trkpt lat="44.42885" lon="1.46705">
        <ele>246</ele>
        <time>2011-04-07T08:01:57</time>
      </trkpt>
      <trkpt lat="44.42884" lon="1.46709">
        <ele>253</ele>
        <time>2011-04-07T08:01:59</time>
      </trkpt>
      <trkpt lat="44.42883" lon="1.46714">
        <ele>253</ele>
        <time>2011-04-07T08:02:01</time>
      </trkpt>
      <trkpt lat="44.42882" lon="1.46718">
        <ele>253</ele>
        <time>2011-04-07T08:02:03</time>
      </trkpt>
      <trkpt lat="44.42881" lon="1.46722">
        <ele>253</ele>
        <time>2011-04-07T08:02:05</time>
      </trkpt>
      <trkpt lat="44.4288" lon="1.46726">
        <ele>253</ele>
        <time>2011-04-07T08:02:07</time>
      </trkpt>
      <trkpt lat="44.42879" lon="1.4673">
        <ele>253</ele>
        <time>2011-04-07T08:02:09</time>
      </trkpt>
      <trkpt lat="44.42879" lon="1.46735">
        <ele>253</ele>
        <time>2011-04-07T08:02:11</time>
      </trkpt>
      <trkpt lat="44.42879" lon="1.46741">
        <ele>253</ele>
        <time>2011-04-07T08:02:13</time>
      </trkpt>
      <trkpt lat="44.42879" lon="1.46745">
        <ele>253</ele>
        <time>2011-04-07T08:02:15</time>
      </trkpt>
      <trkpt lat="44.4288" lon="1.4675">
        <ele>253</ele>
        <time>2011-04-07T08:02:17</time>
      </trkpt>
      <trkpt lat="44.42879" lon="1.46756">
        <ele>253</ele>
        <time>2011-04-07T08:02:19</time>
      </trkpt>
      <trkpt lat="44.42878" lon="1.46761">
        <ele>253</ele>
        <time>2011-04-07T08:02:21</time>
      </trkpt>
      <trkpt lat="44.42878" lon="1.46765">
        <ele>253</ele>
        <time>2011-04-07T08:02:23</time>
      </trkpt>
      <trkpt lat="44.42878" lon="1.46769">
        <ele>253</ele>
        <time>2011-04-07T08:02:25</time>
      </trkpt>
      <trkpt lat="44.42877" lon="1.46774">
        <ele>253</ele>
        <time>2011-04-07T08:02:27</time>
      </trkpt>
      <trkpt lat="44.42876" lon="1.46778">
        <ele>253</ele>
        <time>2011-04-07T08:02:29</time>
      </trkpt>
      <trkpt lat="44.42875" lon="1.46783">
        <ele>253</ele>
        <time>2011-04-07T08:02:31</time>
      </trkpt>
      <trkpt lat="44.42876" lon="1.46787">
        <ele>253</ele>
        <time>2011-04-07T08:02:33</time>
      </trkpt>
      <trkpt lat="44.42875" lon="1.46792">
        <ele>257</ele>
        <time>2011-04-07T08:02:35</time>
      </trkpt>
      <trkpt lat="44.42875" lon="1.46797">
        <ele>263</ele>
        <time>2011-04-07T08:02:37</time>
      </trkpt>
      <trkpt lat="44.42874" lon="1.46802">
        <ele>263</ele>
        <time>2011-04-07T08:02:39</time>
      </trkpt>
      <trkpt lat="44.42873" lon="1.46807">
        <ele>263</ele>
        <time>2011-04-07T08:02:41</time>
      </trkpt>
      <trkpt lat="44.42872" lon="1.46811">
        <ele>263</ele>
        <time>2011-04-07T08:02:43</time>
      </trkpt>
      <trkpt lat="44.42872" lon="1.46815">
        <ele>263</ele>
        <time>2011-04-07T08:02:45</time>
      </trkpt>
      <trkpt lat="44.42871" lon="1.4682">
        <ele>263</ele>
        <time>2011-04-07T08:02:47</time>
      </trkpt>
      <trkpt lat="44.4287" lon="1.46824">
        <ele>263</ele>
        <time>2011-04-07T08:02:49</time>
      </trkpt>
      <trkpt lat="44.4287" lon="1.46828">
        <ele>263</ele>
        <time>2011-04-07T08:02:51</time>
      </trkpt>
      <trkpt lat="44.42869" lon="1.46833">
        <ele>263</ele>
        <time>2011-04-07T08:02:53</time>
      </trkpt>
      <trkpt lat="44.42869" lon="1.46838">
        <ele>263</ele>
        <time>2011-04-07T08:02:55</time>
      </trkpt>
      <trkpt lat="44.42868" lon="1.46844">
        <ele>263</ele>
        <time>2011-04-07T08:02:57</time>
      </trkpt>
      <trkpt lat="44.42867" lon="1.4685">
        <ele>263</ele>
        <time>2011-04-07T08:02:59</time>
      </trkpt>
      <trkpt lat="44.42866" lon="1.46856">
        <ele>263</ele>
        <time>2011-04-07T08:03:01</time>
      </trkpt>
      <trkpt lat="44.42866" lon="1.46862">
        <ele>263</ele>
        <time>2011-04-07T08:03:03</time>
      </trkpt>
      <trkpt lat="44.42864" lon="1.46867">
        <ele>263</ele>
        <time>2011-04-07T08:03:05</time>
      </trkpt>
      <trkpt lat="44.42863" lon="1.46872">
        <ele>263</ele>
        <time>2011-04-07T08:03:07</time>
      </trkpt>
      <trkpt lat="44.42862" lon="1.46878">
        <ele>262</ele>
        <time>2011-04-07T08:03:09</time>
      </trkpt>
      <trkpt lat="44.42861" lon="1.46883">
        <ele>262</ele>
        <time>2011-04-07T08:03:11</time>
      </trkpt>
      <trkpt lat="44.4286" lon="1.46889">
        <ele>262</ele>
        <time>2011-04-07T08:03:13</time>
      </trkpt>
      <trkpt lat="44.42859" lon="1.46895">
        <ele>262</ele>
        <time>2011-04-07T08:03:15</time>
      </trkpt>
      <trkpt lat="44.42858" lon="1.46898">
        <ele>262</ele>
        <time>2011-04-07T08:03:16</time>
      </trkpt>
      <trkpt lat="44.42858" lon="1.46906">
        <ele>262</ele>
        <time>2011-04-07T08:03:18</time>
      </trkpt>
      <trkpt lat="44.42858" lon="1.46909">
        <ele>262</ele>
        <time>2011-04-07T08:03:19</time>
      </trkpt>
      <trkpt lat="44.42858" lon="1.46916">
        <ele>262</ele>
        <time>2011-04-07T08:03:21</time>
      </trkpt>
      <trkpt lat="44.42857" lon="1.46922">
        <ele>262</ele>
        <time>2011-04-07T08:03:23</time>
      </trkpt>
      <trkpt lat="44.42856" lon="1.46929">
        <ele>262</ele>
        <time>2011-04-07T08:03:25</time>
      </trkpt>
      <trkpt lat="44.42856" lon="1.46932">
        <ele>262</ele>
        <time>2011-04-07T08:03:26</time>
      </trkpt>
      <trkpt lat="44.42856" lon="1.46939">
        <ele>262</ele>
        <time>2011-04-07T08:03:28</time>
      </trkpt>
      <trkpt lat="44.42855" lon="1.46946">
        <ele>262</ele>
        <time>2011-04-07T08:03:30</time>
      </trkpt>
      <trkpt lat="44.42855" lon="1.4695">
        <ele>262</ele>
        <time>2011-04-07T08:03:31</time>
      </trkpt>
      <trkpt lat="44.42854" lon="1.46956">
        <ele>262</ele>
        <time>2011-04-07T08:03:33</time>
      </trkpt>
      <trkpt lat="44.42853" lon="1.46963">
        <ele>265</ele>
        <time>2011-04-07T08:03:35</time>
      </trkpt>
      <trkpt lat="44.42852" lon="1.46966">
        <ele>265</ele>
        <time>2011-04-07T08:03:36</time>
      </trkpt>
      <trkpt lat="44.42851" lon="1.46973">
        <ele>265</ele>
        <time>2011-04-07T08:03:38</time>
      </trkpt>
      <trkpt lat="44.42851" lon="1.46976">
        <ele>265</ele>
        <time>2011-04-07T08:03:39</time>
      </trkpt>
      <trkpt lat="44.4285" lon="1.46982">
        <ele>265</ele>
        <time>2011-04-07T08:03:41</time>
      </trkpt>
      <trkpt lat="44.42849" lon="1.46988">
        <ele>265</ele>
        <time>2011-04-07T08:03:43</time>
      </trkpt>
      <trkpt lat="44.42848" lon="1.46994">
        <ele>265</ele>
        <time>2011-04-07T08:03:45</time>
      </trkpt>
      <trkpt lat="44.42847" lon="1.47001">
        <ele>265</ele>
        <time>2011-04-07T08:03:47</time>
      </trkpt>
      <trkpt lat="44.42846" lon="1.47008">
        <ele>265</ele>
        <time>2011-04-07T08:03:49</time>
      </trkpt>
      <trkpt lat="44.42846" lon="1.47011">
        <ele>265</ele>
        <time>2011-04-07T08:03:50</time>
      </trkpt>
      <trkpt lat="44.42845" lon="1.47014">
        <ele>265</ele>
        <time>2011-04-07T08:03:51</time>
      </trkpt>
      <trkpt lat="44.42844" lon="1.47017">
        <ele>265</ele>
        <time>2011-04-07T08:03:52</time>
      </trkpt>
      <trkpt lat="44.42843" lon="1.47024">
        <ele>265</ele>
        <time>2011-04-07T08:03:54</time>
      </trkpt>
      <trkpt lat="44.42842" lon="1.47031">
        <ele>265</ele>
        <time>2011-04-07T08:03:56</time>
      </trkpt>
      <trkpt lat="44.42841" lon="1.47038">
        <ele>265</ele>
        <time>2011-04-07T08:03:58</time>
      </trkpt>
      <trkpt lat="44.42841" lon="1.47044">
        <ele>269</ele>
        <time>2011-04-07T08:04:00</time>
      </trkpt>
      <trkpt lat="44.42841" lon="1.47048">
        <ele>269</ele>
        <time>2011-04-07T08:04:01</time>
      </trkpt>
      <trkpt lat="44.4284" lon="1.47054">
        <ele>269</ele>
        <time>2011-04-07T08:04:03</time>
      </trkpt>
      <trkpt lat="44.4284" lon="1.47057">
        <ele>269</ele>
        <time>2011-04-07T08:04:04</time>
      </trkpt>
      <trkpt lat="44.4284" lon="1.47064">
        <ele>269</ele>
        <time>2011-04-07T08:04:06</time>
      </trkpt>
      <trkpt lat="44.4284" lon="1.47068">
        <ele>269</ele>
        <time>2011-04-07T08:04:07</time>
      </trkpt>
      <trkpt lat="44.4284" lon="1.47074">
        <ele>269</ele>
        <time>2011-04-07T08:04:09</time>
      </trkpt>
      <trkpt lat="44.4284" lon="1.47081">
        <ele>269</ele>
        <time>2011-04-07T08:04:11</time>
      </trkpt>
      <trkpt lat="44.42839" lon="1.47087">
        <ele>269</ele>
        <time>2011-04-07T08:04:13</time>
      </trkpt>
      <trkpt lat="44.42839" lon="1.47091">
        <ele>269</ele>
        <time>2011-04-07T08:04:14</time>
      </trkpt>
      <trkpt lat="44.42839" lon="1.47097">
        <ele>269</ele>
        <time>2011-04-07T08:04:16</time>
      </trkpt>
      <trkpt lat="44.42839" lon="1.47101">
        <ele>269</ele>
        <time>2011-04-07T08:04:17</time>
      </trkpt>
      <trkpt lat="44.4284" lon="1.47104">
        <ele>269</ele>
        <time>2011-04-07T08:04:18</time>
      </trkpt>
      <trkpt lat="44.42839" lon="1.47112">
        <ele>269</ele>
        <time>2011-04-07T08:04:20</time>
      </trkpt>
      <trkpt lat="44.42838" lon="1.47119">
        <ele>269</ele>
        <time>2011-04-07T08:04:22</time>
      </trkpt>
      <trkpt lat="44.42838" lon="1.47122">
        <ele>269</ele>
        <time>2011-04-07T08:04:23</time>
      </trkpt>
      <trkpt lat="44.42837" lon="1.47128">
        <ele>275</ele>
        <time>2011-04-07T08:04:25</time>
      </trkpt>
      <trkpt lat="44.42836" lon="1.47132">
        <ele>275</ele>
        <time>2011-04-07T08:04:26</time>
      </trkpt>
      <trkpt lat="44.42835" lon="1.47138">
        <ele>275</ele>
        <time>2011-04-07T08:04:28</time>
      </trkpt>
      <trkpt lat="44.42835" lon="1.47142">
        <ele>275</ele>
        <time>2011-04-07T08:04:29</time>
      </trkpt>
      <trkpt lat="44.42834" lon="1.47149">
        <ele>275</ele>
        <time>2011-04-07T08:04:31</time>
      </trkpt>
      <trkpt lat="44.42833" lon="1.47156">
        <ele>275</ele>
        <time>2011-04-07T08:04:33</time>
      </trkpt>
      <trkpt lat="44.42832" lon="1.47163">
        <ele>275</ele>
        <time>2011-04-07T08:04:35</time>
      </trkpt>
      <trkpt lat="44.42832" lon="1.47166">
        <ele>275</ele>
        <time>2011-04-07T08:04:36</time>
      </trkpt>
      <trkpt lat="44.42831" lon="1.47173">
        <ele>275</ele>
        <time>2011-04-07T08:04:38</time>
      </trkpt>
      <trkpt lat="44.4283" lon="1.47177">
        <ele>275</ele>
        <time>2011-04-07T08:04:39</time>
      </trkpt>
      <trkpt lat="44.42829" lon="1.4718">
        <ele>275</ele>
        <time>2011-04-07T08:04:40</time>
      </trkpt>
      <trkpt lat="44.42829" lon="1.47184">
        <ele>275</ele>
        <time>2011-04-07T08:04:41</time>
      </trkpt>
      <trkpt lat="44.42828" lon="1.47188">
        <ele>275</ele>
        <time>2011-04-07T08:04:42</time>
      </trkpt>
      <trkpt lat="44.42827" lon="1.47196">
        <ele>275</ele>
        <time>2011-04-07T08:04:44</time>
      </trkpt>
      <trkpt lat="44.42825" lon="1.47203">
        <ele>275</ele>
        <time>2011-04-07T08:04:46</time>
      </trkpt>
      <trkpt lat="44.42824" lon="1.47207">
        <ele>275</ele>
        <time>2011-04-07T08:04:47</time>
      </trkpt>
      <trkpt lat="44.42823" lon="1.4721">
        <ele>279</ele>
        <time>2011-04-07T08:04:48</time>
      </trkpt>
      <trkpt lat="44.42822" lon="1.47217">
        <ele>279</ele>
        <time>2011-04-07T08:04:50</time>
      </trkpt>
      <trkpt lat="44.42821" lon="1.47221">
        <ele>279</ele>
        <time>2011-04-07T08:04:51</time>
      </trkpt>
      <trkpt lat="44.42821" lon="1.47225">
        <ele>279</ele>
        <time>2011-04-07T08:04:52</time>
      </trkpt>
      <trkpt lat="44.42821" lon="1.4723">
        <ele>279</ele>
        <time>2011-04-07T08:04:53</time>
      </trkpt>
      <trkpt lat="44.4282" lon="1.47239">
        <ele>279</ele>
        <time>2011-04-07T08:04:55</time>
      </trkpt>
      <trkpt lat="44.4282" lon="1.47248">
        <ele>279</ele>
        <time>2011-04-07T08:04:57</time>
      </trkpt>
      <trkpt lat="44.42819" lon="1.47252">
        <ele>279</ele>
        <time>2011-04-07T08:04:58</time>
      </trkpt>
      <trkpt lat="44.42819" lon="1.47257">
        <ele>279</ele>
        <time>2011-04-07T08:04:59</time>
      </trkpt>
      <trkpt lat="44.42819" lon="1.47267">
        <ele>279</ele>
        <time>2011-04-07T08:05:01</time>
      </trkpt>
      <trkpt lat="44.42818" lon="1.47275">
        <ele>279</ele>
        <time>2011-04-07T08:05:03</time>
      </trkpt>
      <trkpt lat="44.42817" lon="1.4728">
        <ele>279</ele>
        <time>2011-04-07T08:05:04</time>
      </trkpt>
      <trkpt lat="44.42817" lon="1.47284">
        <ele>279</ele>
        <time>2011-04-07T08:05:05</time>
      </trkpt>
      <trkpt lat="44.42816" lon="1.47293">
        <ele>280</ele>
        <time>2011-04-07T08:05:07</time>
      </trkpt>
      <trkpt lat="44.42815" lon="1.47302">
        <ele>280</ele>
        <time>2011-04-07T08:05:09</time>
      </trkpt>
      <trkpt lat="44.42814" lon="1.47311">
        <ele>280</ele>
        <time>2011-04-07T08:05:11</time>
      </trkpt>
      <trkpt lat="44.42814" lon="1.47316">
        <ele>280</ele>
        <time>2011-04-07T08:05:12</time>
      </trkpt>
      <trkpt lat="44.42813" lon="1.47325">
        <ele>280</ele>
        <time>2011-04-07T08:05:14</time>
      </trkpt>
      <trkpt lat="44.42812" lon="1.4733">
        <ele>280</ele>
        <time>2011-04-07T08:05:15</time>
      </trkpt>
      <trkpt lat="44.42811" lon="1.47339">
        <ele>280</ele>
        <time>2011-04-07T08:05:17</time>
      </trkpt>
      <trkpt lat="44.4281" lon="1.47348">
        <ele>280</ele>
        <time>2011-04-07T08:05:19</time>
      </trkpt>
      <trkpt lat="44.4281" lon="1.47353">
        <ele>280</ele>
        <time>2011-04-07T08:05:20</time>
      </trkpt>
      <trkpt lat="44.42809" lon="1.47362">
        <ele>280</ele>
        <time>2011-04-07T08:05:22</time>
      </trkpt>
      <trkpt lat="44.42809" lon="1.47366">
        <ele>280</ele>
        <time>2011-04-07T08:05:23</time>
      </trkpt>
      <trkpt lat="44.4281" lon="1.47375">
        <ele>280</ele>
        <time>2011-04-07T08:05:25</time>
      </trkpt>
      <trkpt lat="44.42813" lon="1.47381">
        <ele>284</ele>
        <time>2011-04-07T08:05:27</time>
      </trkpt>
      <trkpt lat="44.42816" lon="1.47389">
        <ele>284</ele>
        <time>2011-04-07T08:05:29</time>
      </trkpt>
      <trkpt lat="44.42818" lon="1.47393">
        <ele>284</ele>
        <time>2011-04-07T08:05:30</time>
      </trkpt>
      <trkpt lat="44.42822" lon="1.47402">
        <ele>284</ele>
        <time>2011-04-07T08:05:32</time>
      </trkpt>
      <trkpt lat="44.42825" lon="1.47407">
        <ele>284</ele>
        <time>2011-04-07T08:05:33</time>
      </trkpt>
      <trkpt lat="44.4283" lon="1.47416">
        <ele>284</ele>
        <time>2011-04-07T08:05:35</time>
      </trkpt>
      <trkpt lat="44.42833" lon="1.47422">
        <ele>284</ele>
        <time>2011-04-07T08:05:36</time>
      </trkpt>
      <trkpt lat="44.42835" lon="1.47428">
        <ele>284</ele>
        <time>2011-04-07T08:05:37</time>
      </trkpt>
      <trkpt lat="44.42838" lon="1.47435">
        <ele>284</ele>
        <time>2011-04-07T08:05:38</time>
      </trkpt>
      <trkpt lat="44.42843" lon="1.47448">
        <ele>284</ele>
        <time>2011-04-07T08:05:40</time>
      </trkpt>
      <trkpt lat="44.42849" lon="1.47461">
        <ele>285</ele>
        <time>2011-04-07T08:05:42</time>
      </trkpt>
      <trkpt lat="44.42857" lon="1.47473">
        <ele>285</ele>
        <time>2011-04-07T08:05:44</time>
      </trkpt>
      <trkpt lat="44.42861" lon="1.47477">
        <ele>285</ele>
        <time>2011-04-07T08:05:45</time>
      </trkpt>
      <trkpt lat="44.42871" lon="1.47484">
        <ele>285</ele>
        <time>2011-04-07T08:05:47</time>
      </trkpt>
      <trkpt lat="44.42881" lon="1.47488">
        <ele>281</ele>
        <time>2011-04-07T08:05:49</time>
      </trkpt>
      <trkpt lat="44.42886" lon="1.47492">
        <ele>281</ele>
        <time>2011-04-07T08:05:50</time>
      </trkpt>
      <trkpt lat="44.42892" lon="1.47495">
        <ele>281</ele>
        <time>2011-04-07T08:05:51</time>
      </trkpt>
      <trkpt lat="44.42897" lon="1.47499">
        <ele>281</ele>
        <time>2011-04-07T08:05:52</time>
      </trkpt>
      <trkpt lat="44.42908" lon="1.47506">
        <ele>281</ele>
        <time>2011-04-07T08:05:54</time>
      </trkpt>
      <trkpt lat="44.42917" lon="1.47514">
        <ele>281</ele>
        <time>2011-04-07T08:05:56</time>
      </trkpt>
      <trkpt lat="44.42922" lon="1.47518">
        <ele>281</ele>
        <time>2011-04-07T08:05:57</time>
      </trkpt>
      <trkpt lat="44.42931" lon="1.47526">
        <ele>281</ele>
        <time>2011-04-07T08:05:59</time>
      </trkpt>
      <trkpt lat="44.42935" lon="1.4753">
        <ele>281</ele>
        <time>2011-04-07T08:06:00</time>
      </trkpt>
      <trkpt lat="44.42943" lon="1.47539">
        <ele>281</ele>
        <time>2011-04-07T08:06:02</time>
      </trkpt>
      <trkpt lat="44.42947" lon="1.47543">
        <ele>277</ele>
        <time>2011-04-07T08:06:03</time>
      </trkpt>
      <trkpt lat="44.42956" lon="1.47551">
        <ele>277</ele>
        <time>2011-04-07T08:06:05</time>
      </trkpt>
      <trkpt lat="44.4296" lon="1.47554">
        <ele>277</ele>
        <time>2011-04-07T08:06:06</time>
      </trkpt>
      <trkpt lat="44.42968" lon="1.47561">
        <ele>277</ele>
        <time>2011-04-07T08:06:08</time>
      </trkpt>
      <trkpt lat="44.42971" lon="1.47565">
        <ele>277</ele>
        <time>2011-04-07T08:06:09</time>
      </trkpt>
      <trkpt lat="44.42977" lon="1.47571">
        <ele>277</ele>
        <time>2011-04-07T08:06:11</time>
      </trkpt>
      <trkpt lat="44.42978" lon="1.47573">
        <ele>277</ele>
        <time>2011-04-07T08:06:12</time>
      </trkpt>
      <trkpt lat="44.42979" lon="1.47577">
        <ele>277</ele>
        <time>2011-04-07T08:06:14</time>
      </trkpt>
      <trkpt lat="44.42976" lon="1.4758">
        <ele>277</ele>
        <time>2011-04-07T08:06:16</time>
      </trkpt>
      <trkpt lat="44.42972" lon="1.47584">
        <ele>277</ele>
        <time>2011-04-07T08:06:18</time>
      </trkpt>
      <trkpt lat="44.42968" lon="1.47589">
        <ele>277</ele>
        <time>2011-04-07T08:06:20</time>
      </trkpt>
      <trkpt lat="44.42966" lon="1.47597">
        <ele>277</ele>
        <time>2011-04-07T08:06:23</time>
      </trkpt>
      <trkpt lat="44.42971" lon="1.47601">
        <ele>277</ele>
        <time>2011-04-07T08:06:25</time>
      </trkpt>
      <trkpt lat="44.42978" lon="1.47604">
        <ele>277</ele>
        <time>2011-04-07T08:06:27</time>
      </trkpt>
      <trkpt lat="44.42982" lon="1.47605">
        <ele>277</ele>
        <time>2011-04-07T08:06:28</time>
      </trkpt>
      <trkpt lat="44.42986" lon="1.47606">
        <ele>277</ele>
        <time>2011-04-07T08:06:29</time>
      </trkpt>
      <trkpt lat="44.42994" lon="1.47607">
        <ele>277</ele>
        <time>2011-04-07T08:06:31</time>
      </trkpt>
      <trkpt lat="44.42998" lon="1.47607">
        <ele>277</ele>
        <time>2011-04-07T08:06:32</time>
      </trkpt>
      <trkpt lat="44.43007" lon="1.47605">
        <ele>277</ele>
        <time>2011-04-07T08:06:34</time>
      </trkpt>
      <trkpt lat="44.43012" lon="1.47603">
        <ele>277</ele>
        <time>2011-04-07T08:06:35</time>
      </trkpt>
      <trkpt lat="44.43023" lon="1.47599">
        <ele>277</ele>
        <time>2011-04-07T08:06:37</time>
      </trkpt>
      <trkpt lat="44.43028" lon="1.47596">
        <ele>277</ele>
        <time>2011-04-07T08:06:38</time>
      </trkpt>
      <trkpt lat="44.43038" lon="1.47591">
        <ele>277</ele>
        <time>2011-04-07T08:06:40</time>
      </trkpt>
      <trkpt lat="44.43048" lon="1.47586">
        <ele>276</ele>
        <time>2011-04-07T08:06:42</time>
      </trkpt>
      <trkpt lat="44.43053" lon="1.47585">
        <ele>276</ele>
        <time>2011-04-07T08:06:43</time>
      </trkpt>
      <trkpt lat="44.43063" lon="1.47581">
        <ele>276</ele>
        <time>2011-04-07T08:06:45</time>
      </trkpt>
      <trkpt lat="44.43075" lon="1.47578">
        <ele>276</ele>
        <time>2011-04-07T08:06:47</time>
      </trkpt>
      <trkpt lat="44.43087" lon="1.47574">
        <ele>276</ele>
        <time>2011-04-07T08:06:49</time>
      </trkpt>
      <trkpt lat="44.43092" lon="1.4757">
        <ele>276</ele>
        <time>2011-04-07T08:06:50</time>
      </trkpt>
      <trkpt lat="44.43104" lon="1.47562">
        <ele>276</ele>
        <time>2011-04-07T08:06:52</time>
      </trkpt>
      <trkpt lat="44.43109" lon="1.47558">
        <ele>276</ele>
        <time>2011-04-07T08:06:53</time>
      </trkpt>
      <trkpt lat="44.43114" lon="1.47554">
        <ele>276</ele>
        <time>2011-04-07T08:06:54</time>
      </trkpt>
      <trkpt lat="44.43124" lon="1.47547">
        <ele>276</ele>
        <time>2011-04-07T08:06:56</time>
      </trkpt>
      <trkpt lat="44.43129" lon="1.47543">
        <ele>273</ele>
        <time>2011-04-07T08:06:57</time>
      </trkpt>
      <trkpt lat="44.43139" lon="1.47536">
        <ele>270</ele>
        <time>2011-04-07T08:06:59</time>
      </trkpt>
      <trkpt lat="44.43144" lon="1.47532">
        <ele>270</ele>
        <time>2011-04-07T08:07:00</time>
      </trkpt>
      <trkpt lat="44.43155" lon="1.47524">
        <ele>270</ele>
        <time>2011-04-07T08:07:02</time>
      </trkpt>
      <trkpt lat="44.4316" lon="1.47519">
        <ele>270</ele>
        <time>2011-04-07T08:07:03</time>
      </trkpt>
      <trkpt lat="44.4317" lon="1.47509">
        <ele>270</ele>
        <time>2011-04-07T08:07:05</time>
      </trkpt>
      <trkpt lat="44.43181" lon="1.47499">
        <ele>270</ele>
        <time>2011-04-07T08:07:07</time>
      </trkpt>
      <trkpt lat="44.43185" lon="1.47494">
        <ele>270</ele>
        <time>2011-04-07T08:07:08</time>
      </trkpt>
      <trkpt lat="44.43194" lon="1.47481">
        <ele>270</ele>
        <time>2011-04-07T08:07:10</time>
      </trkpt>
      <trkpt lat="44.43198" lon="1.47474">
        <ele>270</ele>
        <time>2011-04-07T08:07:11</time>
      </trkpt>
      <trkpt lat="44.43205" lon="1.47459">
        <ele>270</ele>
        <time>2011-04-07T08:07:13</time>
      </trkpt>
      <trkpt lat="44.43212" lon="1.47444">
        <ele>271</ele>
        <time>2011-04-07T08:07:15</time>
      </trkpt>
      <trkpt lat="44.43217" lon="1.4743">
        <ele>271</ele>
        <time>2011-04-07T08:07:17</time>
      </trkpt>
      <trkpt lat="44.43223" lon="1.47418">
        <ele>271</ele>
        <time>2011-04-07T08:07:19</time>
      </trkpt>
      <trkpt lat="44.43225" lon="1.47412">
        <ele>271</ele>
        <time>2011-04-07T08:07:20</time>
      </trkpt>
      <trkpt lat="44.43231" lon="1.47401">
        <ele>271</ele>
        <time>2011-04-07T08:07:22</time>
      </trkpt>
      <trkpt lat="44.43234" lon="1.47395">
        <ele>271</ele>
        <time>2011-04-07T08:07:23</time>
      </trkpt>
      <trkpt lat="44.43242" lon="1.47385">
        <ele>271</ele>
        <time>2011-04-07T08:07:25</time>
      </trkpt>
      <trkpt lat="44.4325" lon="1.47376">
        <ele>271</ele>
        <time>2011-04-07T08:07:27</time>
      </trkpt>
      <trkpt lat="44.43258" lon="1.47367">
        <ele>269</ele>
        <time>2011-04-07T08:07:29</time>
      </trkpt>
      <trkpt lat="44.43262" lon="1.47363">
        <ele>269</ele>
        <time>2011-04-07T08:07:30</time>
      </trkpt>
      <trkpt lat="44.43269" lon="1.47356">
        <ele>269</ele>
        <time>2011-04-07T08:07:32</time>
      </trkpt>
      <trkpt lat="44.43277" lon="1.47349">
        <ele>269</ele>
        <time>2011-04-07T08:07:34</time>
      </trkpt>
      <trkpt lat="44.43281" lon="1.47346">
        <ele>269</ele>
        <time>2011-04-07T08:07:35</time>
      </trkpt>
      <trkpt lat="44.43285" lon="1.47342">
        <ele>269</ele>
        <time>2011-04-07T08:07:36</time>
      </trkpt>
      <trkpt lat="44.43292" lon="1.47335">
        <ele>273</ele>
        <time>2011-04-07T08:07:38</time>
      </trkpt>
      <trkpt lat="44.43296" lon="1.47332">
        <ele>273</ele>
        <time>2011-04-07T08:07:39</time>
      </trkpt>
      <trkpt lat="44.43304" lon="1.47325">
        <ele>273</ele>
        <time>2011-04-07T08:07:41</time>
      </trkpt>
      <trkpt lat="44.43308" lon="1.47322">
        <ele>273</ele>
        <time>2011-04-07T08:07:42</time>
      </trkpt>
      <trkpt lat="44.43312" lon="1.47318">
        <ele>273</ele>
        <time>2011-04-07T08:07:43</time>
      </trkpt>
      <trkpt lat="44.43315" lon="1.47315">
        <ele>273</ele>
        <time>2011-04-07T08:07:44</time>
      </trkpt>
      <trkpt lat="44.43323" lon="1.47308">
        <ele>273</ele>
        <time>2011-04-07T08:07:46</time>
      </trkpt>
      <trkpt lat="44.43327" lon="1.47305">
        <ele>273</ele>
        <time>2011-04-07T08:07:47</time>
      </trkpt>
      <trkpt lat="44.43334" lon="1.47298">
        <ele>273</ele>
        <time>2011-04-07T08:07:49</time>
      </trkpt>
      <trkpt lat="44.43337" lon="1.47295">
        <ele>273</ele>
        <time>2011-04-07T08:07:50</time>
      </trkpt>
      <trkpt lat="44.43344" lon="1.47287">
        <ele>276</ele>
        <time>2011-04-07T08:07:52</time>
      </trkpt>
      <trkpt lat="44.43348" lon="1.47283">
        <ele>276</ele>
        <time>2011-04-07T08:07:53</time>
      </trkpt>
      <trkpt lat="44.43351" lon="1.47279">
        <ele>276</ele>
        <time>2011-04-07T08:07:54</time>
      </trkpt>
      <trkpt lat="44.43358" lon="1.4727">
        <ele>276</ele>
        <time>2011-04-07T08:07:56</time>
      </trkpt>
      <trkpt lat="44.43361" lon="1.47266">
        <ele>276</ele>
        <time>2011-04-07T08:07:57</time>
      </trkpt>
      <trkpt lat="44.43367" lon="1.47257">
        <ele>276</ele>
        <time>2011-04-07T08:07:59</time>
      </trkpt>
      <trkpt lat="44.4337" lon="1.47253">
        <ele>276</ele>
        <time>2011-04-07T08:08:00</time>
      </trkpt>
      <trkpt lat="44.43377" lon="1.47244">
        <ele>278</ele>
        <time>2011-04-07T08:08:02</time>
      </trkpt>
      <trkpt lat="44.43384" lon="1.47235">
        <ele>278</ele>
        <time>2011-04-07T08:08:04</time>
      </trkpt>
      <trkpt lat="44.43387" lon="1.47231">
        <ele>278</ele>
        <time>2011-04-07T08:08:05</time>
      </trkpt>
      <trkpt lat="44.43394" lon="1.47223">
        <ele>278</ele>
        <time>2011-04-07T08:08:07</time>
      </trkpt>
      <trkpt lat="44.43401" lon="1.47216">
        <ele>278</ele>
        <time>2011-04-07T08:08:09</time>
      </trkpt>
      <trkpt lat="44.43405" lon="1.47212">
        <ele>278</ele>
        <time>2011-04-07T08:08:10</time>
      </trkpt>
      <trkpt lat="44.43412" lon="1.47204">
        <ele>276</ele>
        <time>2011-04-07T08:08:12</time>
      </trkpt>
      <trkpt lat="44.4342" lon="1.47197">
        <ele>276</ele>
        <time>2011-04-07T08:08:14</time>
      </trkpt>
      <trkpt lat="44.43424" lon="1.47193">
        <ele>276</ele>
        <time>2011-04-07T08:08:15</time>
      </trkpt>
      <trkpt lat="44.43433" lon="1.47187">
        <ele>276</ele>
        <time>2011-04-07T08:08:17</time>
      </trkpt>
      <trkpt lat="44.43442" lon="1.47181">
        <ele>276</ele>
        <time>2011-04-07T08:08:19</time>
      </trkpt>
      <trkpt lat="44.4345" lon="1.47175">
        <ele>276</ele>
        <time>2011-04-07T08:08:21</time>
      </trkpt>
      <trkpt lat="44.43455" lon="1.47173">
        <ele>276</ele>
        <time>2011-04-07T08:08:22</time>
      </trkpt>
      <trkpt lat="44.43459" lon="1.4717">
        <ele>281</ele>
        <time>2011-04-07T08:08:23</time>
      </trkpt>
      <trkpt lat="44.43463" lon="1.47167">
        <ele>281</ele>
        <time>2011-04-07T08:08:24</time>
      </trkpt>
      <trkpt lat="44.43468" lon="1.47165">
        <ele>281</ele>
        <time>2011-04-07T08:08:25</time>
      </trkpt>
      <trkpt lat="44.43477" lon="1.4716">
        <ele>281</ele>
        <time>2011-04-07T08:08:27</time>
      </trkpt>
      <trkpt lat="44.43485" lon="1.47155">
        <ele>281</ele>
        <time>2011-04-07T08:08:29</time>
      </trkpt>
      <trkpt lat="44.43489" lon="1.47153">
        <ele>281</ele>
        <time>2011-04-07T08:08:30</time>
      </trkpt>
      <trkpt lat="44.43498" lon="1.47148">
        <ele>281</ele>
        <time>2011-04-07T08:08:32</time>
      </trkpt>
      <trkpt lat="44.43508" lon="1.47142">
        <ele>281</ele>
        <time>2011-04-07T08:08:34</time>
      </trkpt>
      <trkpt lat="44.43512" lon="1.4714">
        <ele>281</ele>
        <time>2011-04-07T08:08:35</time>
      </trkpt>
      <trkpt lat="44.43522" lon="1.47135">
        <ele>281</ele>
        <time>2011-04-07T08:08:37</time>
      </trkpt>
      <trkpt lat="44.43532" lon="1.4713">
        <ele>281</ele>
        <time>2011-04-07T08:08:39</time>
      </trkpt>
      <trkpt lat="44.43542" lon="1.47126">
        <ele>282</ele>
        <time>2011-04-07T08:08:41</time>
      </trkpt>
      <trkpt lat="44.43552" lon="1.47122">
        <ele>278</ele>
        <time>2011-04-07T08:08:43</time>
      </trkpt>
      <trkpt lat="44.43557" lon="1.4712">
        <ele>278</ele>
        <time>2011-04-07T08:08:44</time>
      </trkpt>
      <trkpt lat="44.43567" lon="1.47116">
        <ele>278</ele>
        <time>2011-04-07T08:08:46</time>
      </trkpt>
      <trkpt lat="44.43572" lon="1.47115">
        <ele>278</ele>
        <time>2011-04-07T08:08:47</time>
      </trkpt>
      <trkpt lat="44.43581" lon="1.4711">
        <ele>278</ele>
        <time>2011-04-07T08:08:49</time>
      </trkpt>
      <trkpt lat="44.43585" lon="1.47108">
        <ele>278</ele>
        <time>2011-04-07T08:08:50</time>
      </trkpt>
      <trkpt lat="44.43589" lon="1.47105">
        <ele>278</ele>
        <time>2011-04-07T08:08:51</time>
      </trkpt>
      <trkpt lat="44.43597" lon="1.471">
        <ele>278</ele>
        <time>2011-04-07T08:08:53</time>
      </trkpt>
      <trkpt lat="44.43601" lon="1.47098">
        <ele>278</ele>
        <time>2011-04-07T08:08:54</time>
      </trkpt>
      <trkpt lat="44.43605" lon="1.47095">
        <ele>278</ele>
        <time>2011-04-07T08:08:55</time>
      </trkpt>
      <trkpt lat="44.43612" lon="1.4709">
        <ele>278</ele>
        <time>2011-04-07T08:08:57</time>
      </trkpt>
      <trkpt lat="44.43618" lon="1.47083">
        <ele>278</ele>
        <time>2011-04-07T08:08:59</time>
      </trkpt>
      <trkpt lat="44.43625" lon="1.47076">
        <ele>278</ele>
        <time>2011-04-07T08:09:01</time>
      </trkpt>
      <trkpt lat="44.43628" lon="1.47072">
        <ele>279</ele>
        <time>2011-04-07T08:09:02</time>
      </trkpt>
      <trkpt lat="44.43632" lon="1.47062">
        <ele>279</ele>
        <time>2011-04-07T08:09:04</time>
      </trkpt>
      <trkpt lat="44.43636" lon="1.47051">
        <ele>279</ele>
        <time>2011-04-07T08:09:06</time>
      </trkpt>
      <trkpt lat="44.43641" lon="1.47041">
        <ele>282</ele>
        <time>2011-04-07T08:09:08</time>
      </trkpt>
      <trkpt lat="44.43643" lon="1.47036">
        <ele>282</ele>
        <time>2011-04-07T08:09:09</time>
      </trkpt>
      <trkpt lat="44.43648" lon="1.47026">
        <ele>282</ele>
        <time>2011-04-07T08:09:11</time>
      </trkpt>
      <trkpt lat="44.43653" lon="1.47015">
        <ele>282</ele>
        <time>2011-04-07T08:09:13</time>
      </trkpt>
      <trkpt lat="44.43659" lon="1.47006">
        <ele>282</ele>
        <time>2011-04-07T08:09:15</time>
      </trkpt>
      <trkpt lat="44.43665" lon="1.46996">
        <ele>282</ele>
        <time>2011-04-07T08:09:17</time>
      </trkpt>
      <trkpt lat="44.43667" lon="1.46992">
        <ele>282</ele>
        <time>2011-04-07T08:09:18</time>
      </trkpt>
      <trkpt lat="44.43673" lon="1.46982">
        <ele>282</ele>
        <time>2011-04-07T08:09:20</time>
      </trkpt>
      <trkpt lat="44.43677" lon="1.46977">
        <ele>282</ele>
        <time>2011-04-07T08:09:21</time>
      </trkpt>
      <trkpt lat="44.43683" lon="1.46967">
        <ele>282</ele>
        <time>2011-04-07T08:09:23</time>
      </trkpt>
      <trkpt lat="44.4369" lon="1.46956">
        <ele>279</ele>
        <time>2011-04-07T08:09:25</time>
      </trkpt>
      <trkpt lat="44.43695" lon="1.46951">
        <ele>279</ele>
        <time>2011-04-07T08:09:26</time>
      </trkpt>
      <trkpt lat="44.43704" lon="1.46938">
        <ele>279</ele>
        <time>2011-04-07T08:09:28</time>
      </trkpt>
      <trkpt lat="44.43716" lon="1.46926">
        <ele>275</ele>
        <time>2011-04-07T08:09:30</time>
      </trkpt>
      <trkpt lat="44.43727" lon="1.46915">
        <ele>275</ele>
        <time>2011-04-07T08:09:32</time>
      </trkpt>
      <trkpt lat="44.43738" lon="1.46905">
        <ele>275</ele>
        <time>2011-04-07T08:09:34</time>
      </trkpt>
      <trkpt lat="44.4375" lon="1.46894">
        <ele>275</ele>
        <time>2011-04-07T08:09:36</time>
      </trkpt>
      <trkpt lat="44.43756" lon="1.4689">
        <ele>275</ele>
        <time>2011-04-07T08:09:37</time>
      </trkpt>
      <trkpt lat="44.43767" lon="1.46882">
        <ele>275</ele>
        <time>2011-04-07T08:09:39</time>
      </trkpt>
      <trkpt lat="44.43777" lon="1.46875">
        <ele>275</ele>
        <time>2011-04-07T08:09:41</time>
      </trkpt>
      <trkpt lat="44.43787" lon="1.46871">
        <ele>266</ele>
        <time>2011-04-07T08:09:43</time>
      </trkpt>
      <trkpt lat="44.43792" lon="1.46868">
        <ele>266</ele>
        <time>2011-04-07T08:09:44</time>
      </trkpt>
      <trkpt lat="44.43801" lon="1.46864">
        <ele>273</ele>
        <time>2011-04-07T08:09:46</time>
      </trkpt>
      <trkpt lat="44.4381" lon="1.46861">
        <ele>273</ele>
        <time>2011-04-07T08:09:48</time>
      </trkpt>
      <trkpt lat="44.43817" lon="1.46864">
        <ele>273</ele>
        <time>2011-04-07T08:09:50</time>
      </trkpt>
      <trkpt lat="44.43823" lon="1.46868">
        <ele>273</ele>
        <time>2011-04-07T08:09:52</time>
      </trkpt>
      <trkpt lat="44.43826" lon="1.46869">
        <ele>273</ele>
        <time>2011-04-07T08:09:53</time>
      </trkpt>
      <trkpt lat="44.43834" lon="1.46871">
        <ele>273</ele>
        <time>2011-04-07T08:09:55</time>
      </trkpt>
      <trkpt lat="44.43838" lon="1.46872">
        <ele>273</ele>
        <time>2011-04-07T08:09:56</time>
      </trkpt>
      <trkpt lat="44.43846" lon="1.46875">
        <ele>273</ele>
        <time>2011-04-07T08:09:58</time>
      </trkpt>
      <trkpt lat="44.43854" lon="1.46877">
        <ele>269</ele>
        <time>2011-04-07T08:10:00</time>
      </trkpt>
      <trkpt lat="44.43863" lon="1.46879">
        <ele>269</ele>
        <time>2011-04-07T08:10:02</time>
      </trkpt>
      <trkpt lat="44.43871" lon="1.46881">
        <ele>269</ele>
        <time>2011-04-07T08:10:04</time>
      </trkpt>
      <trkpt lat="44.43881" lon="1.46884">
        <ele>271</ele>
        <time>2011-04-07T08:10:06</time>
      </trkpt>
      <trkpt lat="44.4389" lon="1.46887">
        <ele>271</ele>
        <time>2011-04-07T08:10:08</time>
      </trkpt>
      <trkpt lat="44.43901" lon="1.4689">
        <ele>271</ele>
        <time>2011-04-07T08:10:10</time>
      </trkpt>
      <trkpt lat="44.43911" lon="1.46891">
        <ele>271</ele>
        <time>2011-04-07T08:10:12</time>
      </trkpt>
      <trkpt lat="44.43921" lon="1.46891">
        <ele>271</ele>
        <time>2011-04-07T08:10:14</time>
      </trkpt>
      <trkpt lat="44.43932" lon="1.4689">
        <ele>271</ele>
        <time>2011-04-07T08:10:16</time>
      </trkpt>
      <trkpt lat="44.43938" lon="1.46889">
        <ele>271</ele>
        <time>2011-04-07T08:10:17</time>
      </trkpt>
      <trkpt lat="44.43949" lon="1.46888">
        <ele>271</ele>
        <time>2011-04-07T08:10:19</time>
      </trkpt>
      <trkpt lat="44.43961" lon="1.46886">
        <ele>268</ele>
        <time>2011-04-07T08:10:21</time>
      </trkpt>
      <trkpt lat="44.43971" lon="1.46884">
        <ele>268</ele>
        <time>2011-04-07T08:10:23</time>
      </trkpt>
      <trkpt lat="44.43976" lon="1.46882">
        <ele>268</ele>
        <time>2011-04-07T08:10:24</time>
      </trkpt>
      <trkpt lat="44.43985" lon="1.46881">
        <ele>268</ele>
        <time>2011-04-07T08:10:26</time>
      </trkpt>
      <trkpt lat="44.4399" lon="1.46882">
        <ele>268</ele>
        <time>2011-04-07T08:10:27</time>
      </trkpt>
      <trkpt lat="44.43999" lon="1.46884">
        <ele>268</ele>
        <time>2011-04-07T08:10:29</time>
      </trkpt>
      <trkpt lat="44.44011" lon="1.46885">
        <ele>268</ele>
        <time>2011-04-07T08:10:31</time>
      </trkpt>
      <trkpt lat="44.44023" lon="1.46886">
        <ele>268</ele>
        <time>2011-04-07T08:10:33</time>
      </trkpt>
      <trkpt lat="44.44037" lon="1.46886">
        <ele>268</ele>
        <time>2011-04-07T08:10:35</time>
      </trkpt>
      <trkpt lat="44.44051" lon="1.46888">
        <ele>266</ele>
        <time>2011-04-07T08:10:37</time>
      </trkpt>
      <trkpt lat="44.44063" lon="1.46889">
        <ele>266</ele>
        <time>2011-04-07T08:10:39</time>
      </trkpt>
      <trkpt lat="44.44069" lon="1.46889">
        <ele>266</ele>
        <time>2011-04-07T08:10:40</time>
      </trkpt>
      <trkpt lat="44.4408" lon="1.46891">
        <ele>266</ele>
        <time>2011-04-07T08:10:42</time>
      </trkpt>
      <trkpt lat="44.44086" lon="1.46892">
        <ele>266</ele>
        <time>2011-04-07T08:10:43</time>
      </trkpt>
      <trkpt lat="44.44097" lon="1.46895">
        <ele>266</ele>
        <time>2011-04-07T08:10:45</time>
      </trkpt>
      <trkpt lat="44.44102" lon="1.46897">
        <ele>266</ele>
        <time>2011-04-07T08:10:46</time>
      </trkpt>
      <trkpt lat="44.44112" lon="1.46903">
        <ele>266</ele>
        <time>2011-04-07T08:10:48</time>
      </trkpt>
      <trkpt lat="44.44121" lon="1.46912">
        <ele>266</ele>
        <time>2011-04-07T08:10:50</time>
      </trkpt>
      <trkpt lat="44.4413" lon="1.4692">
        <ele>267</ele>
        <time>2011-04-07T08:10:52</time>
      </trkpt>
      <trkpt lat="44.44134" lon="1.46924">
        <ele>267</ele>
        <time>2011-04-07T08:10:53</time>
      </trkpt>
      <trkpt lat="44.44143" lon="1.46932">
        <ele>267</ele>
        <time>2011-04-07T08:10:55</time>
      </trkpt>
      <trkpt lat="44.44147" lon="1.46935">
        <ele>267</ele>
        <time>2011-04-07T08:10:56</time>
      </trkpt>
      <trkpt lat="44.44156" lon="1.46943">
        <ele>267</ele>
        <time>2011-04-07T08:10:58</time>
      </trkpt>
      <trkpt lat="44.4416" lon="1.46947">
        <ele>267</ele>
        <time>2011-04-07T08:10:59</time>
      </trkpt>
      <trkpt lat="44.44168" lon="1.46955">
        <ele>267</ele>
        <time>2011-04-07T08:11:01</time>
      </trkpt>
      <trkpt lat="44.44173" lon="1.46959">
        <ele>265</ele>
        <time>2011-04-07T08:11:02</time>
      </trkpt>
      <trkpt lat="44.44181" lon="1.46967">
        <ele>265</ele>
        <time>2011-04-07T08:11:04</time>
      </trkpt>
      <trkpt lat="44.4419" lon="1.46975">
        <ele>265</ele>
        <time>2011-04-07T08:11:06</time>
      </trkpt>
      <trkpt lat="44.44198" lon="1.46982">
        <ele>265</ele>
        <time>2011-04-07T08:11:08</time>
      </trkpt>
      <trkpt lat="44.44207" lon="1.46991">
        <ele>265</ele>
        <time>2011-04-07T08:11:10</time>
      </trkpt>
      <trkpt lat="44.44215" lon="1.46999">
        <ele>270</ele>
        <time>2011-04-07T08:11:12</time>
      </trkpt>
      <trkpt lat="44.44219" lon="1.47002">
        <ele>270</ele>
        <time>2011-04-07T08:11:13</time>
      </trkpt>
      <trkpt lat="44.44223" lon="1.47006">
        <ele>270</ele>
        <time>2011-04-07T08:11:14</time>
      </trkpt>
      <trkpt lat="44.4423" lon="1.47013">
        <ele>270</ele>
        <time>2011-04-07T08:11:16</time>
      </trkpt>
      <trkpt lat="44.44234" lon="1.47016">
        <ele>270</ele>
        <time>2011-04-07T08:11:17</time>
      </trkpt>
      <trkpt lat="44.44237" lon="1.47019">
        <ele>270</ele>
        <time>2011-04-07T08:11:18</time>
      </trkpt>
      <trkpt lat="44.44245" lon="1.47025">
        <ele>270</ele>
        <time>2011-04-07T08:11:20</time>
      </trkpt>
      <trkpt lat="44.44252" lon="1.47031">
        <ele>270</ele>
        <time>2011-04-07T08:11:22</time>
      </trkpt>
      <trkpt lat="44.44255" lon="1.47033">
        <ele>270</ele>
        <time>2011-04-07T08:11:23</time>
      </trkpt>
      <trkpt lat="44.44258" lon="1.47034">
        <ele>270</ele>
        <time>2011-04-07T08:11:24</time>
      </trkpt>
      <trkpt lat="44.44262" lon="1.47036">
        <ele>270</ele>
        <time>2011-04-07T08:11:25</time>
      </trkpt>
      <trkpt lat="44.44269" lon="1.47041">
        <ele>270</ele>
        <time>2011-04-07T08:11:27</time>
      </trkpt>
      <trkpt lat="44.44277" lon="1.47046">
        <ele>273</ele>
        <time>2011-04-07T08:11:29</time>
      </trkpt>
      <trkpt lat="44.44285" lon="1.4705">
        <ele>273</ele>
        <time>2011-04-07T08:11:31</time>
      </trkpt>
      <trkpt lat="44.44289" lon="1.47053">
        <ele>273</ele>
        <time>2011-04-07T08:11:32</time>
      </trkpt>
      <trkpt lat="44.44298" lon="1.47058">
        <ele>275</ele>
        <time>2011-04-07T08:11:34</time>
      </trkpt>
      <trkpt lat="44.44302" lon="1.47061">
        <ele>275</ele>
        <time>2011-04-07T08:11:35</time>
      </trkpt>
      <trkpt lat="44.4431" lon="1.47067">
        <ele>275</ele>
        <time>2011-04-07T08:11:37</time>
      </trkpt>
      <trkpt lat="44.44314" lon="1.4707">
        <ele>275</ele>
        <time>2011-04-07T08:11:38</time>
      </trkpt>
      <trkpt lat="44.44318" lon="1.47073">
        <ele>275</ele>
        <time>2011-04-07T08:11:39</time>
      </trkpt>
      <trkpt lat="44.44326" lon="1.47079">
        <ele>275</ele>
        <time>2011-04-07T08:11:41</time>
      </trkpt>
      <trkpt lat="44.4433" lon="1.47082">
        <ele>275</ele>
        <time>2011-04-07T08:11:42</time>
      </trkpt>
      <trkpt lat="44.44334" lon="1.47085">
        <ele>275</ele>
        <time>2011-04-07T08:11:43</time>
      </trkpt>
      <trkpt lat="44.44342" lon="1.47091">
        <ele>275</ele>
        <time>2011-04-07T08:11:45</time>
      </trkpt>
      <trkpt lat="44.44346" lon="1.47094">
        <ele>275</ele>
        <time>2011-04-07T08:11:46</time>
      </trkpt>
      <trkpt lat="44.44354" lon="1.471">
        <ele>275</ele>
        <time>2011-04-07T08:11:48</time>
      </trkpt>
      <trkpt lat="44.44357" lon="1.47104">
        <ele>275</ele>
        <time>2011-04-07T08:11:49</time>
      </trkpt>
      <trkpt lat="44.4436" lon="1.47107">
        <ele>275</ele>
        <time>2011-04-07T08:11:50</time>
      </trkpt>
      <trkpt lat="44.44368" lon="1.47115">
        <ele>275</ele>
        <time>2011-04-07T08:11:52</time>
      </trkpt>
      <trkpt lat="44.44371" lon="1.47119">
        <ele>275</ele>
        <time>2011-04-07T08:11:53</time>
      </trkpt>
      <trkpt lat="44.44377" lon="1.47127">
        <ele>273</ele>
        <time>2011-04-07T08:11:55</time>
      </trkpt>
      <trkpt lat="44.44382" lon="1.47134">
        <ele>273</ele>
        <time>2011-04-07T08:11:57</time>
      </trkpt>
      <trkpt lat="44.44388" lon="1.47141">
        <ele>273</ele>
        <time>2011-04-07T08:11:59</time>
      </trkpt>
      <trkpt lat="44.44391" lon="1.47145">
        <ele>273</ele>
        <time>2011-04-07T08:12:00</time>
      </trkpt>
      <trkpt lat="44.44396" lon="1.47152">
        <ele>273</ele>
        <time>2011-04-07T08:12:02</time>
      </trkpt>
      <trkpt lat="44.44399" lon="1.47155">
        <ele>273</ele>
        <time>2011-04-07T08:12:03</time>
      </trkpt>
      <trkpt lat="44.44402" lon="1.47158">
        <ele>273</ele>
        <time>2011-04-07T08:12:04</time>
      </trkpt>
      <trkpt lat="44.44407" lon="1.47164">
        <ele>273</ele>
        <time>2011-04-07T08:12:06</time>
      </trkpt>
      <trkpt lat="44.44412" lon="1.4717">
        <ele>273</ele>
        <time>2011-04-07T08:12:08</time>
      </trkpt>
      <trkpt lat="44.44414" lon="1.47172">
        <ele>273</ele>
        <time>2011-04-07T08:12:09</time>
      </trkpt>
      <trkpt lat="44.44417" lon="1.47175">
        <ele>273</ele>
        <time>2011-04-07T08:12:10</time>
      </trkpt>
      <trkpt lat="44.44421" lon="1.4718">
        <ele>273</ele>
        <time>2011-04-07T08:12:12</time>
      </trkpt>
      <trkpt lat="44.44424" lon="1.47182">
        <ele>273</ele>
        <time>2011-04-07T08:12:13</time>
      </trkpt>
      <trkpt lat="44.44426" lon="1.47185">
        <ele>273</ele>
        <time>2011-04-07T08:12:14</time>
      </trkpt>
      <trkpt lat="44.44432" lon="1.47189">
        <ele>273</ele>
        <time>2011-04-07T08:12:16</time>
      </trkpt>
      <trkpt lat="44.44438" lon="1.47193">
        <ele>273</ele>
        <time>2011-04-07T08:12:18</time>
      </trkpt>
      <trkpt lat="44.4444" lon="1.47195">
        <ele>273</ele>
        <time>2011-04-07T08:12:19</time>
      </trkpt>
      <trkpt lat="44.44443" lon="1.47198">
        <ele>273</ele>
        <time>2011-04-07T08:12:20</time>
      </trkpt>
      <trkpt lat="44.4445" lon="1.47202">
        <ele>273</ele>
        <time>2011-04-07T08:12:22</time>
      </trkpt>
      <trkpt lat="44.44454" lon="1.47204">
        <ele>273</ele>
        <time>2011-04-07T08:12:23</time>
      </trkpt>
      <trkpt lat="44.44464" lon="1.4721">
        <ele>273</ele>
        <time>2011-04-07T08:12:25</time>
      </trkpt>
      <trkpt lat="44.4447" lon="1.47213">
        <ele>273</ele>
        <time>2011-04-07T08:12:26</time>
      </trkpt>
      <trkpt lat="44.44483" lon="1.47217">
        <ele>273</ele>
        <time>2011-04-07T08:12:28</time>
      </trkpt>
      <trkpt lat="44.44496" lon="1.47217">
        <ele>273</ele>
        <time>2011-04-07T08:12:30</time>
      </trkpt>
      <trkpt lat="44.4451" lon="1.47216">
        <ele>273</ele>
        <time>2011-04-07T08:12:32</time>
      </trkpt>
      <trkpt lat="44.44516" lon="1.47215">
        <ele>273</ele>
        <time>2011-04-07T08:12:33</time>
      </trkpt>
      <trkpt lat="44.44529" lon="1.47213">
        <ele>273</ele>
        <time>2011-04-07T08:12:35</time>
      </trkpt>
      <trkpt lat="44.44542" lon="1.47209">
        <ele>272</ele>
        <time>2011-04-07T08:12:37</time>
      </trkpt>
      <trkpt lat="44.44555" lon="1.47205">
        <ele>269</ele>
        <time>2011-04-07T08:12:39</time>
      </trkpt>
      <trkpt lat="44.44561" lon="1.47202">
        <ele>269</ele>
        <time>2011-04-07T08:12:40</time>
      </trkpt>
      <trkpt lat="44.44574" lon="1.47197">
        <ele>269</ele>
        <time>2011-04-07T08:12:42</time>
      </trkpt>
      <trkpt lat="44.44587" lon="1.47194">
        <ele>269</ele>
        <time>2011-04-07T08:12:44</time>
      </trkpt>
      <trkpt lat="44.446" lon="1.47191">
        <ele>269</ele>
        <time>2011-04-07T08:12:46</time>
      </trkpt>
      <trkpt lat="44.44612" lon="1.47194">
        <ele>269</ele>
        <time>2011-04-07T08:12:48</time>
      </trkpt>
      <trkpt lat="44.44618" lon="1.47197">
        <ele>269</ele>
        <time>2011-04-07T08:12:49</time>
      </trkpt>
      <trkpt lat="44.4463" lon="1.47206">
        <ele>269</ele>
        <time>2011-04-07T08:12:51</time>
      </trkpt>
      <trkpt lat="44.44636" lon="1.4721">
        <ele>266</ele>
        <time>2011-04-07T08:12:52</time>
      </trkpt>
      <trkpt lat="44.44649" lon="1.4722">
        <ele>266</ele>
        <time>2011-04-07T08:12:54</time>
      </trkpt>
      <trkpt lat="44.44655" lon="1.47226">
        <ele>266</ele>
        <time>2011-04-07T08:12:55</time>
      </trkpt>
      <trkpt lat="44.44668" lon="1.47237">
        <ele>266</ele>
        <time>2011-04-07T08:12:57</time>
      </trkpt>
      <trkpt lat="44.44675" lon="1.47243">
        <ele>266</ele>
        <time>2011-04-07T08:12:58</time>
      </trkpt>
      <trkpt lat="44.44689" lon="1.47256">
        <ele>266</ele>
        <time>2011-04-07T08:13:00</time>
      </trkpt>
      <trkpt lat="44.44697" lon="1.47262">
        <ele>266</ele>
        <time>2011-04-07T08:13:01</time>
      </trkpt>
      <trkpt lat="44.44704" lon="1.47268">
        <ele>266</ele>
        <time>2011-04-07T08:13:02</time>
      </trkpt>
      <trkpt lat="44.44718" lon="1.47279">
        <ele>263</ele>
        <time>2011-04-07T08:13:04</time>
      </trkpt>
      <trkpt lat="44.44724" lon="1.47285">
        <ele>263</ele>
        <time>2011-04-07T08:13:05</time>
      </trkpt>
      <trkpt lat="44.44735" lon="1.47296">
        <ele>266</ele>
        <time>2011-04-07T08:13:07</time>
      </trkpt>
      <trkpt lat="44.44741" lon="1.47301">
        <ele>266</ele>
        <time>2011-04-07T08:13:08</time>
      </trkpt>
      <trkpt lat="44.44751" lon="1.47311">
        <ele>266</ele>
        <time>2011-04-07T08:13:10</time>
      </trkpt>
      <trkpt lat="44.44756" lon="1.47314">
        <ele>266</ele>
        <time>2011-04-07T08:13:11</time>
      </trkpt>
      <trkpt lat="44.44766" lon="1.4732">
        <ele>266</ele>
        <time>2011-04-07T08:13:13</time>
      </trkpt>
      <trkpt lat="44.44775" lon="1.47323">
        <ele>266</ele>
        <time>2011-04-07T08:13:15</time>
      </trkpt>
      <trkpt lat="44.44779" lon="1.47325">
        <ele>266</ele>
        <time>2011-04-07T08:13:16</time>
      </trkpt>
      <trkpt lat="44.44784" lon="1.47327">
        <ele>266</ele>
        <time>2011-04-07T08:13:17</time>
      </trkpt>
      <trkpt lat="44.44792" lon="1.47329">
        <ele>266</ele>
        <time>2011-04-07T08:13:19</time>
      </trkpt>
      <trkpt lat="44.44796" lon="1.4733">
        <ele>273</ele>
        <time>2011-04-07T08:13:20</time>
      </trkpt>
      <trkpt lat="44.44803" lon="1.4733">
        <ele>273</ele>
        <time>2011-04-07T08:13:22</time>
      </trkpt>
      <trkpt lat="44.44807" lon="1.4733">
        <ele>273</ele>
        <time>2011-04-07T08:13:23</time>
      </trkpt>
      <trkpt lat="44.44811" lon="1.4733">
        <ele>273</ele>
        <time>2011-04-07T08:13:24</time>
      </trkpt>
      <trkpt lat="44.4482" lon="1.47326">
        <ele>273</ele>
        <time>2011-04-07T08:13:26</time>
      </trkpt>
      <trkpt lat="44.44824" lon="1.47324">
        <ele>273</ele>
        <time>2011-04-07T08:13:27</time>
      </trkpt>
      <trkpt lat="44.44832" lon="1.47318">
        <ele>273</ele>
        <time>2011-04-07T08:13:29</time>
      </trkpt>
      <trkpt lat="44.44836" lon="1.47314">
        <ele>273</ele>
        <time>2011-04-07T08:13:30</time>
      </trkpt>
      <trkpt lat="44.44845" lon="1.47305">
        <ele>273</ele>
        <time>2011-04-07T08:13:32</time>
      </trkpt>
      <trkpt lat="44.44849" lon="1.47301">
        <ele>273</ele>
        <time>2011-04-07T08:13:33</time>
      </trkpt>
      <trkpt lat="44.44859" lon="1.47292">
        <ele>273</ele>
        <time>2011-04-07T08:13:35</time>
      </trkpt>
      <trkpt lat="44.44864" lon="1.47287">
        <ele>264</ele>
        <time>2011-04-07T08:13:36</time>
      </trkpt>
      <trkpt lat="44.44875" lon="1.47276">
        <ele>264</ele>
        <time>2011-04-07T08:13:38</time>
      </trkpt>
      <trkpt lat="44.4488" lon="1.47271">
        <ele>270</ele>
        <time>2011-04-07T08:13:39</time>
      </trkpt>
      <trkpt lat="44.44891" lon="1.47262">
        <ele>270</ele>
        <time>2011-04-07T08:13:41</time>
      </trkpt>
      <trkpt lat="44.44897" lon="1.47258">
        <ele>270</ele>
        <time>2011-04-07T08:13:42</time>
      </trkpt>
      <trkpt lat="44.44903" lon="1.47255">
        <ele>270</ele>
        <time>2011-04-07T08:13:43</time>
      </trkpt>
      <trkpt lat="44.44914" lon="1.4725">
        <ele>270</ele>
        <time>2011-04-07T08:13:45</time>
      </trkpt>
      <trkpt lat="44.44919" lon="1.47248">
        <ele>270</ele>
        <time>2011-04-07T08:13:46</time>
      </trkpt>
      <trkpt lat="44.4493" lon="1.47245">
        <ele>270</ele>
        <time>2011-04-07T08:13:48</time>
      </trkpt>
      <trkpt lat="44.44935" lon="1.47244">
        <ele>270</ele>
        <time>2011-04-07T08:13:49</time>
      </trkpt>
      <trkpt lat="44.44945" lon="1.4724">
        <ele>270</ele>
        <time>2011-04-07T08:13:51</time>
      </trkpt>
      <trkpt lat="44.4495" lon="1.47236">
        <ele>270</ele>
        <time>2011-04-07T08:13:52</time>
      </trkpt>
      <trkpt lat="44.4496" lon="1.47226">
        <ele>264</ele>
        <time>2011-04-07T08:13:54</time>
      </trkpt>
      <trkpt lat="44.44964" lon="1.4722">
        <ele>264</ele>
        <time>2011-04-07T08:13:55</time>
      </trkpt>
      <trkpt lat="44.44972" lon="1.47209">
        <ele>264</ele>
        <time>2011-04-07T08:13:57</time>
      </trkpt>
      <trkpt lat="44.44976" lon="1.47204">
        <ele>269</ele>
        <time>2011-04-07T08:13:58</time>
      </trkpt>
      <trkpt lat="44.44985" lon="1.47195">
        <ele>269</ele>
        <time>2011-04-07T08:14:00</time>
      </trkpt>
      <trkpt lat="44.4499" lon="1.4719">
        <ele>269</ele>
        <time>2011-04-07T08:14:01</time>
      </trkpt>
      <trkpt lat="44.44999" lon="1.4718">
        <ele>269</ele>
        <time>2011-04-07T08:14:03</time>
      </trkpt>
      <trkpt lat="44.45004" lon="1.47177">
        <ele>269</ele>
        <time>2011-04-07T08:14:04</time>
      </trkpt>
      <trkpt lat="44.4501" lon="1.47174">
        <ele>269</ele>
        <time>2011-04-07T08:14:05</time>
      </trkpt>
      <trkpt lat="44.45021" lon="1.4717">
        <ele>269</ele>
        <time>2011-04-07T08:14:07</time>
      </trkpt>
      <trkpt lat="44.45027" lon="1.47169">
        <ele>269</ele>
        <time>2011-04-07T08:14:08</time>
      </trkpt>
      <trkpt lat="44.45038" lon="1.47164">
        <ele>269</ele>
        <time>2011-04-07T08:14:10</time>
      </trkpt>
      <trkpt lat="44.45044" lon="1.47162">
        <ele>265</ele>
        <time>2011-04-07T08:14:11</time>
      </trkpt>
      <trkpt lat="44.45054" lon="1.47156">
        <ele>265</ele>
        <time>2011-04-07T08:14:13</time>
      </trkpt>
      <trkpt lat="44.45059" lon="1.47153">
        <ele>265</ele>
        <time>2011-04-07T08:14:14</time>
      </trkpt>
      <trkpt lat="44.4507" lon="1.47145">
        <ele>265</ele>
        <time>2011-04-07T08:14:16</time>
      </trkpt>
      <trkpt lat="44.45075" lon="1.47141">
        <ele>265</ele>
        <time>2011-04-07T08:14:17</time>
      </trkpt>
      <trkpt lat="44.45085" lon="1.47132">
        <ele>265</ele>
        <time>2011-04-07T08:14:19</time>
      </trkpt>
      <trkpt lat="44.4509" lon="1.47127">
        <ele>265</ele>
        <time>2011-04-07T08:14:20</time>
      </trkpt>
      <trkpt lat="44.451" lon="1.47116">
        <ele>273</ele>
        <time>2011-04-07T08:14:22</time>
      </trkpt>
      <trkpt lat="44.45104" lon="1.4711">
        <ele>273</ele>
        <time>2011-04-07T08:14:23</time>
      </trkpt>
      <trkpt lat="44.45113" lon="1.471">
        <ele>273</ele>
        <time>2011-04-07T08:14:25</time>
      </trkpt>
      <trkpt lat="44.45118" lon="1.47094">
        <ele>273</ele>
        <time>2011-04-07T08:14:26</time>
      </trkpt>
      <trkpt lat="44.45124" lon="1.47088">
        <ele>273</ele>
        <time>2011-04-07T08:14:27</time>
      </trkpt>
      <trkpt lat="44.45135" lon="1.47077">
        <ele>266</ele>
        <time>2011-04-07T08:14:29</time>
      </trkpt>
      <trkpt lat="44.45147" lon="1.47065">
        <ele>266</ele>
        <time>2011-04-07T08:14:31</time>
      </trkpt>
      <trkpt lat="44.45153" lon="1.4706">
        <ele>266</ele>
        <time>2011-04-07T08:14:32</time>
      </trkpt>
      <trkpt lat="44.45159" lon="1.47054">
        <ele>266</ele>
        <time>2011-04-07T08:14:33</time>
      </trkpt>
      <trkpt lat="44.45171" lon="1.47044">
        <ele>266</ele>
        <time>2011-04-07T08:14:35</time>
      </trkpt>
      <trkpt lat="44.45177" lon="1.47039">
        <ele>271</ele>
        <time>2011-04-07T08:14:36</time>
      </trkpt>
      <trkpt lat="44.45188" lon="1.47031">
        <ele>271</ele>
        <time>2011-04-07T08:14:38</time>
      </trkpt>
      <trkpt lat="44.45193" lon="1.47028">
        <ele>271</ele>
        <time>2011-04-07T08:14:39</time>
      </trkpt>
      <trkpt lat="44.45204" lon="1.47023">
        <ele>271</ele>
        <time>2011-04-07T08:14:41</time>
      </trkpt>
      <trkpt lat="44.45209" lon="1.47019">
        <ele>270</ele>
        <time>2011-04-07T08:14:42</time>
      </trkpt>
      <trkpt lat="44.4522" lon="1.47015">
        <ele>270</ele>
        <time>2011-04-07T08:14:44</time>
      </trkpt>
      <trkpt lat="44.45225" lon="1.47013">
        <ele>270</ele>
        <time>2011-04-07T08:14:45</time>
      </trkpt>
      <trkpt lat="44.45235" lon="1.4701">
        <ele>270</ele>
        <time>2011-04-07T08:14:47</time>
      </trkpt>
      <trkpt lat="44.4524" lon="1.47008">
        <ele>270</ele>
        <time>2011-04-07T08:14:48</time>
      </trkpt>
      <trkpt lat="44.45245" lon="1.47006">
        <ele>270</ele>
        <time>2011-04-07T08:14:49</time>
      </trkpt>
      <trkpt lat="44.45255" lon="1.47001">
        <ele>270</ele>
        <time>2011-04-07T08:14:51</time>
      </trkpt>
      <trkpt lat="44.45261" lon="1.46999">
        <ele>270</ele>
        <time>2011-04-07T08:14:52</time>
      </trkpt>
      <trkpt lat="44.45271" lon="1.46995">
        <ele>270</ele>
        <time>2011-04-07T08:14:54</time>
      </trkpt>
      <trkpt lat="44.45277" lon="1.46993">
        <ele>270</ele>
        <time>2011-04-07T08:14:55</time>
      </trkpt>
      <trkpt lat="44.45288" lon="1.46988">
        <ele>270</ele>
        <time>2011-04-07T08:14:57</time>
      </trkpt>
      <trkpt lat="44.45294" lon="1.46986">
        <ele>264</ele>
        <time>2011-04-07T08:14:58</time>
      </trkpt>
      <trkpt lat="44.45305" lon="1.46981">
        <ele>264</ele>
        <time>2011-04-07T08:15:00</time>
      </trkpt>
      <trkpt lat="44.45311" lon="1.46979">
        <ele>264</ele>
        <time>2011-04-07T08:15:01</time>
      </trkpt>
      <trkpt lat="44.45323" lon="1.46974">
        <ele>264</ele>
        <time>2011-04-07T08:15:03</time>
      </trkpt>
      <trkpt lat="44.4533" lon="1.46971">
        <ele>264</ele>
        <time>2011-04-07T08:15:04</time>
      </trkpt>
      <trkpt lat="44.45343" lon="1.46966">
        <ele>264</ele>
        <time>2011-04-07T08:15:06</time>
      </trkpt>
      <trkpt lat="44.4535" lon="1.46964">
        <ele>264</ele>
        <time>2011-04-07T08:15:07</time>
      </trkpt>
      <trkpt lat="44.45356" lon="1.46963">
        <ele>264</ele>
        <time>2011-04-07T08:15:08</time>
      </trkpt>
      <trkpt lat="44.45371" lon="1.46959">
        <ele>264</ele>
        <time>2011-04-07T08:15:10</time>
      </trkpt>
      <trkpt lat="44.45379" lon="1.46958">
        <ele>261</ele>
        <time>2011-04-07T08:15:11</time>
      </trkpt>
      <trkpt lat="44.45396" lon="1.46955">
        <ele>261</ele>
        <time>2011-04-07T08:15:13</time>
      </trkpt>
      <trkpt lat="44.45414" lon="1.46953">
        <ele>261</ele>
        <time>2011-04-07T08:15:15</time>
      </trkpt>
      <trkpt lat="44.45423" lon="1.46953">
        <ele>261</ele>
        <time>2011-04-07T08:15:16</time>
      </trkpt>
      <trkpt lat="44.45433" lon="1.46952">
        <ele>261</ele>
        <time>2011-04-07T08:15:17</time>
      </trkpt>
      <trkpt lat="44.45452" lon="1.46951">
        <ele>261</ele>
        <time>2011-04-07T08:15:19</time>
      </trkpt>
      <trkpt lat="44.45471" lon="1.4695">
        <ele>252</ele>
        <time>2011-04-07T08:15:21</time>
      </trkpt>
      <trkpt lat="44.4548" lon="1.46948">
        <ele>252</ele>
        <time>2011-04-07T08:15:22</time>
      </trkpt>
      <trkpt lat="44.45488" lon="1.46947">
        <ele>252</ele>
        <time>2011-04-07T08:15:23</time>
      </trkpt>
      <trkpt lat="44.45506" lon="1.46946">
        <ele>252</ele>
        <time>2011-04-07T08:15:25</time>
      </trkpt>
      <trkpt lat="44.45514" lon="1.46946">
        <ele>252</ele>
        <time>2011-04-07T08:15:26</time>
      </trkpt>
      <trkpt lat="44.45531" lon="1.46946">
        <ele>252</ele>
        <time>2011-04-07T08:15:28</time>
      </trkpt>
      <trkpt lat="44.45539" lon="1.46947">
        <ele>252</ele>
        <time>2011-04-07T08:15:29</time>
      </trkpt>
      <trkpt lat="44.45547" lon="1.46948">
        <ele>243</ele>
        <time>2011-04-07T08:15:30</time>
      </trkpt>
      <trkpt lat="44.45564" lon="1.46947">
        <ele>243</ele>
        <time>2011-04-07T08:15:32</time>
      </trkpt>
      <trkpt lat="44.45572" lon="1.46947">
        <ele>243</ele>
        <time>2011-04-07T08:15:33</time>
      </trkpt>
      <trkpt lat="44.45584" lon="1.46945">
        <ele>243</ele>
        <time>2011-04-07T08:15:35</time>
      </trkpt>
      <trkpt lat="44.45589" lon="1.46945">
        <ele>243</ele>
        <time>2011-04-07T08:15:36</time>
      </trkpt>
      <trkpt lat="44.45596" lon="1.46944">
        <ele>243</ele>
        <time>2011-04-07T08:15:38</time>
      </trkpt>
      <trkpt lat="44.45599" lon="1.46946">
        <ele>243</ele>
        <time>2011-04-07T08:15:39</time>
      </trkpt>
      <trkpt lat="44.45604" lon="1.46951">
        <ele>243</ele>
        <time>2011-04-07T08:15:41</time>
      </trkpt>
      <trkpt lat="44.45606" lon="1.46955">
        <ele>243</ele>
        <time>2011-04-07T08:15:42</time>
      </trkpt>
      <trkpt lat="44.4561" lon="1.46964">
        <ele>238</ele>
        <time>2011-04-07T08:15:44</time>
      </trkpt>
      <trkpt lat="44.45613" lon="1.46967">
        <ele>238</ele>
        <time>2011-04-07T08:15:45</time>
      </trkpt>
      <trkpt lat="44.45619" lon="1.46974">
        <ele>238</ele>
        <time>2011-04-07T08:15:47</time>
      </trkpt>
      <trkpt lat="44.45622" lon="1.46978">
        <ele>238</ele>
        <time>2011-04-07T08:15:48</time>
      </trkpt>
      <trkpt lat="44.45629" lon="1.46985">
        <ele>230</ele>
        <time>2011-04-07T08:15:50</time>
      </trkpt>
      <trkpt lat="44.45632" lon="1.46989">
        <ele>230</ele>
        <time>2011-04-07T08:15:51</time>
      </trkpt>
      <trkpt lat="44.45636" lon="1.46992">
        <ele>230</ele>
        <time>2011-04-07T08:15:52</time>
      </trkpt>
      <trkpt lat="44.45643" lon="1.46999">
        <ele>230</ele>
        <time>2011-04-07T08:15:54</time>
      </trkpt>
      <trkpt lat="44.45646" lon="1.47002">
        <ele>230</ele>
        <time>2011-04-07T08:15:55</time>
      </trkpt>
      <trkpt lat="44.45653" lon="1.47009">
        <ele>230</ele>
        <time>2011-04-07T08:15:57</time>
      </trkpt>
      <trkpt lat="44.45656" lon="1.47012">
        <ele>230</ele>
        <time>2011-04-07T08:15:58</time>
      </trkpt>
      <trkpt lat="44.45662" lon="1.47018">
        <ele>230</ele>
        <time>2011-04-07T08:16:00</time>
      </trkpt>
      <trkpt lat="44.45666" lon="1.47021">
        <ele>230</ele>
        <time>2011-04-07T08:16:01</time>
      </trkpt>
      <trkpt lat="44.45671" lon="1.47026">
        <ele>230</ele>
        <time>2011-04-07T08:16:03</time>
      </trkpt>
      <trkpt lat="44.45674" lon="1.47029">
        <ele>230</ele>
        <time>2011-04-07T08:16:04</time>
      </trkpt>
      <trkpt lat="44.45679" lon="1.47034">
        <ele>230</ele>
        <time>2011-04-07T08:16:06</time>
      </trkpt>
      <trkpt lat="44.45681" lon="1.47036">
        <ele>230</ele>
        <time>2011-04-07T08:16:07</time>
      </trkpt>
      <trkpt lat="44.45685" lon="1.47039">
        <ele>230</ele>
        <time>2011-04-07T08:16:09</time>
      </trkpt>
      <trkpt lat="44.45687" lon="1.4704">
        <ele>230</ele>
        <time>2011-04-07T08:16:10</time>
      </trkpt>
      <trkpt lat="44.45695" lon="1.47044">
        <ele>215</ele>
        <time>2011-04-07T08:16:13</time>
      </trkpt>
      <trkpt lat="44.45698" lon="1.47046">
        <ele>215</ele>
        <time>2011-04-07T08:16:14</time>
      </trkpt>
      <trkpt lat="44.45706" lon="1.47049">
        <ele>215</ele>
        <time>2011-04-07T08:16:16</time>
      </trkpt>
      <trkpt lat="44.4571" lon="1.47051">
        <ele>211</ele>
        <time>2011-04-07T08:16:17</time>
      </trkpt>
      <trkpt lat="44.45718" lon="1.47054">
        <ele>211</ele>
        <time>2011-04-07T08:16:19</time>
      </trkpt>
      <trkpt lat="44.45723" lon="1.47056">
        <ele>211</ele>
        <time>2011-04-07T08:16:20</time>
      </trkpt>
      <trkpt lat="44.45731" lon="1.47061">
        <ele>211</ele>
        <time>2011-04-07T08:16:22</time>
      </trkpt>
      <trkpt lat="44.45735" lon="1.47063">
        <ele>211</ele>
        <time>2011-04-07T08:16:23</time>
      </trkpt>
      <trkpt lat="44.45744" lon="1.47064">
        <ele>211</ele>
        <time>2011-04-07T08:16:25</time>
      </trkpt>
      <trkpt lat="44.45748" lon="1.47065">
        <ele>211</ele>
        <time>2011-04-07T08:16:26</time>
      </trkpt>
      <trkpt lat="44.45757" lon="1.47069">
        <ele>211</ele>
        <time>2011-04-07T08:16:28</time>
      </trkpt>
      <trkpt lat="44.45761" lon="1.47072">
        <ele>211</ele>
        <time>2011-04-07T08:16:29</time>
      </trkpt>
      <trkpt lat="44.45771" lon="1.47077">
        <ele>211</ele>
        <time>2011-04-07T08:16:31</time>
      </trkpt>
      <trkpt lat="44.45776" lon="1.47079">
        <ele>211</ele>
        <time>2011-04-07T08:16:32</time>
      </trkpt>
      <trkpt lat="44.45787" lon="1.47084">
        <ele>211</ele>
        <time>2011-04-07T08:16:34</time>
      </trkpt>
      <trkpt lat="44.45791" lon="1.47085">
        <ele>211</ele>
        <time>2011-04-07T08:16:35</time>
      </trkpt>
      <trkpt lat="44.45796" lon="1.47087">
        <ele>208</ele>
        <time>2011-04-07T08:16:36</time>
      </trkpt>
      <trkpt lat="44.45803" lon="1.47091">
        <ele>208</ele>
        <time>2011-04-07T08:16:38</time>
      </trkpt>
      <trkpt lat="44.45806" lon="1.47094">
        <ele>208</ele>
        <time>2011-04-07T08:16:39</time>
      </trkpt>
      <trkpt lat="44.45812" lon="1.47101">
        <ele>208</ele>
        <time>2011-04-07T08:16:41</time>
      </trkpt>
      <trkpt lat="44.45815" lon="1.47104">
        <ele>208</ele>
        <time>2011-04-07T08:16:42</time>
      </trkpt>
      <trkpt lat="44.45821" lon="1.47109">
        <ele>208</ele>
        <time>2011-04-07T08:16:44</time>
      </trkpt>
      <trkpt lat="44.45824" lon="1.47112">
        <ele>208</ele>
        <time>2011-04-07T08:16:45</time>
      </trkpt>
      <trkpt lat="44.45831" lon="1.47118">
        <ele>208</ele>
        <time>2011-04-07T08:16:47</time>
      </trkpt>
      <trkpt lat="44.45834" lon="1.47121">
        <ele>208</ele>
        <time>2011-04-07T08:16:48</time>
      </trkpt>
      <trkpt lat="44.45842" lon="1.47127">
        <ele>188</ele>
        <time>2011-04-07T08:16:50</time>
      </trkpt>
      <trkpt lat="44.45846" lon="1.47129">
        <ele>188</ele>
        <time>2011-04-07T08:16:51</time>
      </trkpt>
      <trkpt lat="44.45855" lon="1.47134">
        <ele>188</ele>
        <time>2011-04-07T08:16:53</time>
      </trkpt>
      <trkpt lat="44.4586" lon="1.47136">
        <ele>188</ele>
        <time>2011-04-07T08:16:54</time>
      </trkpt>
      <trkpt lat="44.45866" lon="1.47137">
        <ele>188</ele>
        <time>2011-04-07T08:16:55</time>
      </trkpt>
      <trkpt lat="44.45879" lon="1.47139">
        <ele>182</ele>
        <time>2011-04-07T08:16:57</time>
      </trkpt>
      <trkpt lat="44.45883" lon="1.4714">
        <ele>182</ele>
        <time>2011-04-07T08:16:58</time>
      </trkpt>
      <trkpt lat="44.45892" lon="1.47147">
        <ele>182</ele>
        <time>2011-04-07T08:17:00</time>
      </trkpt>
      <trkpt lat="44.45896" lon="1.47151">
        <ele>182</ele>
        <time>2011-04-07T08:17:01</time>
      </trkpt>
      <trkpt lat="44.45905" lon="1.47154">
        <ele>182</ele>
        <time>2011-04-07T08:17:03</time>
      </trkpt>
      <trkpt lat="44.4591" lon="1.47155">
        <ele>182</ele>
        <time>2011-04-07T08:17:04</time>
      </trkpt>
      <trkpt lat="44.45922" lon="1.47157">
        <ele>182</ele>
        <time>2011-04-07T08:17:06</time>
      </trkpt>
      <trkpt lat="44.45926" lon="1.47159">
        <ele>182</ele>
        <time>2011-04-07T08:17:07</time>
      </trkpt>
      <trkpt lat="44.45937" lon="1.47163">
        <ele>182</ele>
        <time>2011-04-07T08:17:09</time>
      </trkpt>
      <trkpt lat="44.45947" lon="1.47166">
        <ele>182</ele>
        <time>2011-04-07T08:17:11</time>
      </trkpt>
      <trkpt lat="44.45951" lon="1.47166">
        <ele>182</ele>
        <time>2011-04-07T08:17:12</time>
      </trkpt>
      <trkpt lat="44.45953" lon="1.47167">
        <ele>182</ele>
        <time>2011-04-07T08:17:13</time>
      </trkpt>
      <trkpt lat="44.45958" lon="1.4717">
        <ele>182</ele>
        <time>2011-04-07T08:17:15</time>
      </trkpt>
      <trkpt lat="44.45956" lon="1.47175">
        <ele>182</ele>
        <time>2011-04-07T08:17:16</time>
      </trkpt>
      <trkpt lat="44.45955" lon="1.47186">
        <ele>182</ele>
        <time>2011-04-07T08:17:18</time>
      </trkpt>
      <trkpt lat="44.45956" lon="1.47193">
        <ele>182</ele>
        <time>2011-04-07T08:17:19</time>
      </trkpt>
      <trkpt lat="44.45957" lon="1.47204">
        <ele>182</ele>
        <time>2011-04-07T08:17:21</time>
      </trkpt>
      <trkpt lat="44.45953" lon="1.47211">
        <ele>165</ele>
        <time>2011-04-07T08:17:23</time>
      </trkpt>
      <trkpt lat="44.45952" lon="1.47216">
        <ele>165</ele>
        <time>2011-04-07T08:17:24</time>
      </trkpt>
      <trkpt lat="44.4595" lon="1.47221">
        <ele>165</ele>
        <time>2011-04-07T08:17:25</time>
      </trkpt>
      <trkpt lat="44.45952" lon="1.47238">
        <ele>165</ele>
        <time>2011-04-07T08:17:27</time>
      </trkpt>
      <trkpt lat="44.45955" lon="1.47256">
        <ele>165</ele>
        <time>2011-04-07T08:17:29</time>
      </trkpt>
      <trkpt lat="44.45958" lon="1.47274">
        <ele>165</ele>
        <time>2011-04-07T08:17:31</time>
      </trkpt>
      <trkpt lat="44.45959" lon="1.47282">
        <ele>159</ele>
        <time>2011-04-07T08:17:32</time>
      </trkpt>
      <trkpt lat="44.45962" lon="1.47297">
        <ele>157</ele>
        <time>2011-04-07T08:17:34</time>
      </trkpt>
      <trkpt lat="44.45964" lon="1.47305">
        <ele>157</ele>
        <time>2011-04-07T08:17:35</time>
      </trkpt>
      <trkpt lat="44.45968" lon="1.4732">
        <ele>157</ele>
        <time>2011-04-07T08:17:37</time>
      </trkpt>
      <trkpt lat="44.45972" lon="1.47335">
        <ele>157</ele>
        <time>2011-04-07T08:17:39</time>
      </trkpt>
      <trkpt lat="44.45976" lon="1.4735">
        <ele>157</ele>
        <time>2011-04-07T08:17:41</time>
      </trkpt>
      <trkpt lat="44.4598" lon="1.47366">
        <ele>157</ele>
        <time>2011-04-07T08:17:43</time>
      </trkpt>
      <trkpt lat="44.45983" lon="1.47381">
        <ele>156</ele>
        <time>2011-04-07T08:17:45</time>
      </trkpt>
      <trkpt lat="44.45982" lon="1.4739">
        <ele>156</ele>
        <time>2011-04-07T08:17:46</time>
      </trkpt>
      <trkpt lat="44.45981" lon="1.47398">
        <ele>156</ele>
        <time>2011-04-07T08:17:47</time>
      </trkpt>
      <trkpt lat="44.4598" lon="1.47413">
        <ele>156</ele>
        <time>2011-04-07T08:17:49</time>
      </trkpt>
      <trkpt lat="44.45981" lon="1.47423">
        <ele>156</ele>
        <time>2011-04-07T08:17:51</time>
      </trkpt>
      <trkpt lat="44.45983" lon="1.4743">
        <ele>156</ele>
        <time>2011-04-07T08:17:53</time>
      </trkpt>
      <trkpt lat="44.45989" lon="1.47433">
        <ele>156</ele>
        <time>2011-04-07T08:17:55</time>
      </trkpt>
      <trkpt lat="44.45997" lon="1.47434">
        <ele>156</ele>
        <time>2011-04-07T08:17:57</time>
      </trkpt>
      <trkpt lat="44.46002" lon="1.47433">
        <ele>156</ele>
        <time>2011-04-07T08:17:58</time>
      </trkpt>
      <trkpt lat="44.46013" lon="1.47431">
        <ele>156</ele>
        <time>2011-04-07T08:18:00</time>
      </trkpt>
      <trkpt lat="44.46019" lon="1.47429">
        <ele>156</ele>
        <time>2011-04-07T08:18:01</time>
      </trkpt>
      <trkpt lat="44.4603" lon="1.47424">
        <ele>156</ele>
        <time>2011-04-07T08:18:03</time>
      </trkpt>
      <trkpt lat="44.46036" lon="1.47422">
        <ele>156</ele>
        <time>2011-04-07T08:18:04</time>
      </trkpt>
      <trkpt lat="44.46043" lon="1.47419">
        <ele>154</ele>
        <time>2011-04-07T08:18:05</time>
      </trkpt>
      <trkpt lat="44.46054" lon="1.47413">
        <ele>154</ele>
        <time>2011-04-07T08:18:07</time>
      </trkpt>
      <trkpt lat="44.46065" lon="1.47405">
        <ele>154</ele>
        <time>2011-04-07T08:18:09</time>
      </trkpt>
      <trkpt lat="44.4607" lon="1.47399">
        <ele>154</ele>
        <time>2011-04-07T08:18:10</time>
      </trkpt>
      <trkpt lat="44.4608" lon="1.47387">
        <ele>154</ele>
        <time>2011-04-07T08:18:12</time>
      </trkpt>
      <trkpt lat="44.46085" lon="1.47381">
        <ele>154</ele>
        <time>2011-04-07T08:18:13</time>
      </trkpt>
      <trkpt lat="44.46091" lon="1.47375">
        <ele>153</ele>
        <time>2011-04-07T08:18:14</time>
      </trkpt>
      <trkpt lat="44.46096" lon="1.47368">
        <ele>153</ele>
        <time>2011-04-07T08:18:15</time>
      </trkpt>
      <trkpt lat="44.46105" lon="1.47355">
        <ele>153</ele>
        <time>2011-04-07T08:18:17</time>
      </trkpt>
      <trkpt lat="44.46115" lon="1.47342">
        <ele>153</ele>
        <time>2011-04-07T08:18:19</time>
      </trkpt>
      <trkpt lat="44.46119" lon="1.47336">
        <ele>153</ele>
        <time>2011-04-07T08:18:20</time>
      </trkpt>
      <trkpt lat="44.46128" lon="1.47325">
        <ele>152</ele>
        <time>2011-04-07T08:18:22</time>
      </trkpt>
      <trkpt lat="44.46137" lon="1.47314">
        <ele>152</ele>
        <time>2011-04-07T08:18:24</time>
      </trkpt>
      <trkpt lat="44.46147" lon="1.47302">
        <ele>152</ele>
        <time>2011-04-07T08:18:26</time>
      </trkpt>
      <trkpt lat="44.46152" lon="1.47296">
        <ele>152</ele>
        <time>2011-04-07T08:18:27</time>
      </trkpt>
      <trkpt lat="44.46162" lon="1.47286">
        <ele>151</ele>
        <time>2011-04-07T08:18:29</time>
      </trkpt>
      <trkpt lat="44.46167" lon="1.47281">
        <ele>151</ele>
        <time>2011-04-07T08:18:30</time>
      </trkpt>
      <trkpt lat="44.46179" lon="1.47272">
        <ele>151</ele>
        <time>2011-04-07T08:18:32</time>
      </trkpt>
      <trkpt lat="44.46185" lon="1.47268">
        <ele>151</ele>
        <time>2011-04-07T08:18:33</time>
      </trkpt>
      <trkpt lat="44.46191" lon="1.47265">
        <ele>151</ele>
        <time>2011-04-07T08:18:34</time>
      </trkpt>
      <trkpt lat="44.46198" lon="1.47262">
        <ele>151</ele>
        <time>2011-04-07T08:18:35</time>
      </trkpt>
      <trkpt lat="44.46204" lon="1.4726">
        <ele>151</ele>
        <time>2011-04-07T08:18:36</time>
      </trkpt>
      <trkpt lat="44.46211" lon="1.47257">
        <ele>150</ele>
        <time>2011-04-07T08:18:37</time>
      </trkpt>
      <trkpt lat="44.46224" lon="1.47252">
        <ele>150</ele>
        <time>2011-04-07T08:18:39</time>
      </trkpt>
      <trkpt lat="44.46231" lon="1.4725">
        <ele>150</ele>
        <time>2011-04-07T08:18:40</time>
      </trkpt>
      <trkpt lat="44.46244" lon="1.47245">
        <ele>150</ele>
        <time>2011-04-07T08:18:42</time>
      </trkpt>
      <trkpt lat="44.4625" lon="1.47242">
        <ele>150</ele>
        <time>2011-04-07T08:18:43</time>
      </trkpt>
      <trkpt lat="44.46263" lon="1.47237">
        <ele>150</ele>
        <time>2011-04-07T08:18:45</time>
      </trkpt>
      <trkpt lat="44.46269" lon="1.47234">
        <ele>150</ele>
        <time>2011-04-07T08:18:46</time>
      </trkpt>
      <trkpt lat="44.46275" lon="1.47232">
        <ele>150</ele>
        <time>2011-04-07T08:18:47</time>
      </trkpt>
      <trkpt lat="44.46286" lon="1.47227">
        <ele>150</ele>
        <time>2011-04-07T08:18:49</time>
      </trkpt>
      <trkpt lat="44.46291" lon="1.47225">
        <ele>150</ele>
        <time>2011-04-07T08:18:50</time>
      </trkpt>
      <trkpt lat="44.46301" lon="1.47222">
        <ele>147</ele>
        <time>2011-04-07T08:18:52</time>
      </trkpt>
      <trkpt lat="44.46307" lon="1.47219">
        <ele>147</ele>
        <time>2011-04-07T08:18:55</time>
      </trkpt>
      <trkpt lat="44.46309" lon="1.4722">
        <ele>147</ele>
        <time>2011-04-07T08:19:00</time>
      </trkpt>
      <trkpt lat="44.46313" lon="1.4722">
        <ele>147</ele>
        <time>2011-04-07T08:19:06</time>
      </trkpt>
      <trkpt lat="44.46317" lon="1.47219">
        <ele>147</ele>
        <time>2011-04-07T08:19:08</time>
      </trkpt>
      <trkpt lat="44.4632" lon="1.47218">
        <ele>147</ele>
        <time>2011-04-07T08:19:09</time>
      </trkpt>
      <trkpt lat="44.46324" lon="1.47217">
        <ele>147</ele>
        <time>2011-04-07T08:19:10</time>
      </trkpt>
      <trkpt lat="44.46328" lon="1.47215">
        <ele>147</ele>
        <time>2011-04-07T08:19:11</time>
      </trkpt>
      <trkpt lat="44.46333" lon="1.47213">
        <ele>147</ele>
        <time>2011-04-07T08:19:12</time>
      </trkpt>
      <trkpt lat="44.46342" lon="1.47208">
        <ele>149</ele>
        <time>2011-04-07T08:19:14</time>
      </trkpt>
      <trkpt lat="44.46347" lon="1.47204">
        <ele>149</ele>
        <time>2011-04-07T08:19:15</time>
      </trkpt>
      <trkpt lat="44.46358" lon="1.47195">
        <ele>149</ele>
        <time>2011-04-07T08:19:17</time>
      </trkpt>
      <trkpt lat="44.46368" lon="1.47186">
        <ele>149</ele>
        <time>2011-04-07T08:19:19</time>
      </trkpt>
      <trkpt lat="44.46374" lon="1.47181">
        <ele>149</ele>
        <time>2011-04-07T08:19:20</time>
      </trkpt>
      <trkpt lat="44.46385" lon="1.47171">
        <ele>146</ele>
        <time>2011-04-07T08:19:22</time>
      </trkpt>
      <trkpt lat="44.46391" lon="1.47167">
        <ele>146</ele>
        <time>2011-04-07T08:19:23</time>
      </trkpt>
      <trkpt lat="44.46402" lon="1.47157">
        <ele>146</ele>
        <time>2011-04-07T08:19:25</time>
      </trkpt>
      <trkpt lat="44.46408" lon="1.47153">
        <ele>146</ele>
        <time>2011-04-07T08:19:26</time>
      </trkpt>
      <trkpt lat="44.46418" lon="1.47144">
        <ele>146</ele>
        <time>2011-04-07T08:19:28</time>
      </trkpt>
      <trkpt lat="44.46424" lon="1.47139">
        <ele>146</ele>
        <time>2011-04-07T08:19:29</time>
      </trkpt>
      <trkpt lat="44.46434" lon="1.47132">
        <ele>146</ele>
        <time>2011-04-07T08:19:31</time>
      </trkpt>
      <trkpt lat="44.46445" lon="1.47127">
        <ele>146</ele>
        <time>2011-04-07T08:19:33</time>
      </trkpt>
      <trkpt lat="44.46455" lon="1.47124">
        <ele>146</ele>
        <time>2011-04-07T08:19:35</time>
      </trkpt>
      <trkpt lat="44.46465" lon="1.47125">
        <ele>150</ele>
        <time>2011-04-07T08:19:37</time>
      </trkpt>
      <trkpt lat="44.46476" lon="1.47123">
        <ele>145</ele>
        <time>2011-04-07T08:19:39</time>
      </trkpt>
      <trkpt lat="44.46482" lon="1.47122">
        <ele>145</ele>
        <time>2011-04-07T08:19:40</time>
      </trkpt>
      <trkpt lat="44.46486" lon="1.47121">
        <ele>145</ele>
        <time>2011-04-07T08:19:41</time>
      </trkpt>
      <trkpt lat="44.46496" lon="1.47119">
        <ele>145</ele>
        <time>2011-04-07T08:19:43</time>
      </trkpt>
      <trkpt lat="44.46502" lon="1.47118">
        <ele>145</ele>
        <time>2011-04-07T08:19:44</time>
      </trkpt>
      <trkpt lat="44.46513" lon="1.47115">
        <ele>145</ele>
        <time>2011-04-07T08:19:46</time>
      </trkpt>
      <trkpt lat="44.46523" lon="1.47111">
        <ele>145</ele>
        <time>2011-04-07T08:19:48</time>
      </trkpt>
      <trkpt lat="44.46534" lon="1.47108">
        <ele>145</ele>
        <time>2011-04-07T08:19:50</time>
      </trkpt>
      <trkpt lat="44.46539" lon="1.47109">
        <ele>145</ele>
        <time>2011-04-07T08:19:51</time>
      </trkpt>
      <trkpt lat="44.46549" lon="1.47115">
        <ele>149</ele>
        <time>2011-04-07T08:19:53</time>
      </trkpt>
      <trkpt lat="44.46553" lon="1.47118">
        <ele>149</ele>
        <time>2011-04-07T08:19:54</time>
      </trkpt>
      <trkpt lat="44.46562" lon="1.47125">
        <ele>151</ele>
        <time>2011-04-07T08:19:56</time>
      </trkpt>
      <trkpt lat="44.46571" lon="1.47134">
        <ele>151</ele>
        <time>2011-04-07T08:19:58</time>
      </trkpt>
      <trkpt lat="44.46578" lon="1.47142">
        <ele>151</ele>
        <time>2011-04-07T08:20:00</time>
      </trkpt>
      <trkpt lat="44.46586" lon="1.4715">
        <ele>151</ele>
        <time>2011-04-07T08:20:02</time>
      </trkpt>
      <trkpt lat="44.4659" lon="1.47154">
        <ele>151</ele>
        <time>2011-04-07T08:20:03</time>
      </trkpt>
      <trkpt lat="44.46595" lon="1.47158">
        <ele>151</ele>
        <time>2011-04-07T08:20:04</time>
      </trkpt>
      <trkpt lat="44.46603" lon="1.47167">
        <ele>151</ele>
        <time>2011-04-07T08:20:06</time>
      </trkpt>
      <trkpt lat="44.46607" lon="1.47171">
        <ele>151</ele>
        <time>2011-04-07T08:20:07</time>
      </trkpt>
      <trkpt lat="44.46611" lon="1.47174">
        <ele>151</ele>
        <time>2011-04-07T08:20:08</time>
      </trkpt>
      <trkpt lat="44.46619" lon="1.47182">
        <ele>151</ele>
        <time>2011-04-07T08:20:10</time>
      </trkpt>
      <trkpt lat="44.46623" lon="1.47186">
        <ele>151</ele>
        <time>2011-04-07T08:20:11</time>
      </trkpt>
      <trkpt lat="44.46631" lon="1.47194">
        <ele>150</ele>
        <time>2011-04-07T08:20:13</time>
      </trkpt>
      <trkpt lat="44.46639" lon="1.47202">
        <ele>150</ele>
        <time>2011-04-07T08:20:15</time>
      </trkpt>
      <trkpt lat="44.46643" lon="1.47207">
        <ele>150</ele>
        <time>2011-04-07T08:20:16</time>
      </trkpt>
      <trkpt lat="44.46647" lon="1.47211">
        <ele>150</ele>
        <time>2011-04-07T08:20:17</time>
      </trkpt>
      <trkpt lat="44.46651" lon="1.47216">
        <ele>150</ele>
        <time>2011-04-07T08:20:18</time>
      </trkpt>
      <trkpt lat="44.46659" lon="1.47227">
        <ele>150</ele>
        <time>2011-04-07T08:20:20</time>
      </trkpt>
      <trkpt lat="44.46667" lon="1.47238">
        <ele>150</ele>
        <time>2011-04-07T08:20:22</time>
      </trkpt>
      <trkpt lat="44.46671" lon="1.47243">
        <ele>150</ele>
        <time>2011-04-07T08:20:23</time>
      </trkpt>
      <trkpt lat="44.46675" lon="1.47249">
        <ele>150</ele>
        <time>2011-04-07T08:20:24</time>
      </trkpt>
      <trkpt lat="44.46683" lon="1.4726">
        <ele>150</ele>
        <time>2011-04-07T08:20:26</time>
      </trkpt>
      <trkpt lat="44.46687" lon="1.47264">
        <ele>150</ele>
        <time>2011-04-07T08:20:27</time>
      </trkpt>
      <trkpt lat="44.46696" lon="1.47275">
        <ele>150</ele>
        <time>2011-04-07T08:20:29</time>
      </trkpt>
      <trkpt lat="44.467" lon="1.4728">
        <ele>150</ele>
        <time>2011-04-07T08:20:30</time>
      </trkpt>
      <trkpt lat="44.4671" lon="1.47292">
        <ele>145</ele>
        <time>2011-04-07T08:20:32</time>
      </trkpt>
      <trkpt lat="44.46719" lon="1.47304">
        <ele>144</ele>
        <time>2011-04-07T08:20:34</time>
      </trkpt>
      <trkpt lat="44.46724" lon="1.4731">
        <ele>144</ele>
        <time>2011-04-07T08:20:35</time>
      </trkpt>
      <trkpt lat="44.46729" lon="1.47317">
        <ele>144</ele>
        <time>2011-04-07T08:20:36</time>
      </trkpt>
      <trkpt lat="44.46739" lon="1.47329">
        <ele>144</ele>
        <time>2011-04-07T08:20:38</time>
      </trkpt>
      <trkpt lat="44.46744" lon="1.47335">
        <ele>144</ele>
        <time>2011-04-07T08:20:39</time>
      </trkpt>
      <trkpt lat="44.46752" lon="1.47348">
        <ele>144</ele>
        <time>2011-04-07T08:20:41</time>
      </trkpt>
      <trkpt lat="44.46753" lon="1.47356">
        <ele>144</ele>
        <time>2011-04-07T08:20:42</time>
      </trkpt>
      <trkpt lat="44.46753" lon="1.47364">
        <ele>144</ele>
        <time>2011-04-07T08:20:43</time>
      </trkpt>
      <trkpt lat="44.46749" lon="1.4738">
        <ele>143</ele>
        <time>2011-04-07T08:20:45</time>
      </trkpt>
      <trkpt lat="44.46747" lon="1.47388">
        <ele>143</ele>
        <time>2011-04-07T08:20:46</time>
      </trkpt>
      <trkpt lat="44.46744" lon="1.47396">
        <ele>143</ele>
        <time>2011-04-07T08:20:47</time>
      </trkpt>
      <trkpt lat="44.46741" lon="1.47405">
        <ele>143</ele>
        <time>2011-04-07T08:20:48</time>
      </trkpt>
      <trkpt lat="44.46735" lon="1.47424">
        <ele>143</ele>
        <time>2011-04-07T08:20:50</time>
      </trkpt>
      <trkpt lat="44.46732" lon="1.47444">
        <ele>143</ele>
        <time>2011-04-07T08:20:52</time>
      </trkpt>
      <trkpt lat="44.46731" lon="1.47466">
        <ele>141</ele>
        <time>2011-04-07T08:20:54</time>
      </trkpt>
      <trkpt lat="44.46731" lon="1.47476">
        <ele>141</ele>
        <time>2011-04-07T08:20:55</time>
      </trkpt>
      <trkpt lat="44.46732" lon="1.47498">
        <ele>141</ele>
        <time>2011-04-07T08:20:57</time>
      </trkpt>
      <trkpt lat="44.46732" lon="1.4751">
        <ele>141</ele>
        <time>2011-04-07T08:20:58</time>
      </trkpt>
      <trkpt lat="44.46733" lon="1.47532">
        <ele>141</ele>
        <time>2011-04-07T08:21:00</time>
      </trkpt>
      <trkpt lat="44.46734" lon="1.47554">
        <ele>137</ele>
        <time>2011-04-07T08:21:02</time>
      </trkpt>
      <trkpt lat="44.46734" lon="1.47565">
        <ele>137</ele>
        <time>2011-04-07T08:21:03</time>
      </trkpt>
      <trkpt lat="44.46735" lon="1.47586">
        <ele>137</ele>
        <time>2011-04-07T08:21:05</time>
      </trkpt>
      <trkpt lat="44.46736" lon="1.47595">
        <ele>137</ele>
        <time>2011-04-07T08:21:06</time>
      </trkpt>
      <trkpt lat="44.46737" lon="1.47613">
        <ele>137</ele>
        <time>2011-04-07T08:21:08</time>
      </trkpt>
      <trkpt lat="44.46738" lon="1.47621">
        <ele>137</ele>
        <time>2011-04-07T08:21:09</time>
      </trkpt>
      <trkpt lat="44.46742" lon="1.47632">
        <ele>132</ele>
        <time>2011-04-07T08:21:11</time>
      </trkpt>
      <trkpt lat="44.46745" lon="1.47636">
        <ele>132</ele>
        <time>2011-04-07T08:21:12</time>
      </trkpt>
      <trkpt lat="44.46754" lon="1.47636">
        <ele>132</ele>
        <time>2011-04-07T08:21:14</time>
      </trkpt>
      <trkpt lat="44.46763" lon="1.47625">
        <ele>132</ele>
        <time>2011-04-07T08:21:16</time>
      </trkpt>
      <trkpt lat="44.46767" lon="1.47619">
        <ele>137</ele>
        <time>2011-04-07T08:21:17</time>
      </trkpt>
      <trkpt lat="44.46772" lon="1.47612">
        <ele>137</ele>
        <time>2011-04-07T08:21:18</time>
      </trkpt>
      <trkpt lat="44.46777" lon="1.47604">
        <ele>137</ele>
        <time>2011-04-07T08:21:19</time>
      </trkpt>
      <trkpt lat="44.46785" lon="1.47586">
        <ele>137</ele>
        <time>2011-04-07T08:21:21</time>
      </trkpt>
      <trkpt lat="44.4679" lon="1.47567">
        <ele>137</ele>
        <time>2011-04-07T08:21:23</time>
      </trkpt>
      <trkpt lat="44.46792" lon="1.47557">
        <ele>125</ele>
        <time>2011-04-07T08:21:24</time>
      </trkpt>
      <trkpt lat="44.46797" lon="1.47538">
        <ele>128</ele>
        <time>2011-04-07T08:21:26</time>
      </trkpt>
      <trkpt lat="44.46801" lon="1.4753">
        <ele>128</ele>
        <time>2011-04-07T08:21:27</time>
      </trkpt>
      <trkpt lat="44.46813" lon="1.47523">
        <ele>128</ele>
        <time>2011-04-07T08:21:29</time>
      </trkpt>
      <trkpt lat="44.46817" lon="1.47524">
        <ele>128</ele>
        <time>2011-04-07T08:21:30</time>
      </trkpt>
      <trkpt lat="44.46824" lon="1.47528">
        <ele>128</ele>
        <time>2011-04-07T08:21:32</time>
      </trkpt>
      <trkpt lat="44.46826" lon="1.47531">
        <ele>128</ele>
        <time>2011-04-07T08:21:33</time>
      </trkpt>
      <trkpt lat="44.46829" lon="1.47539">
        <ele>128</ele>
        <time>2011-04-07T08:21:35</time>
      </trkpt>
      <trkpt lat="44.46829" lon="1.47545">
        <ele>125</ele>
        <time>2011-04-07T08:21:36</time>
      </trkpt>
      <trkpt lat="44.46826" lon="1.47559">
        <ele>125</ele>
        <time>2011-04-07T08:21:38</time>
      </trkpt>
      <trkpt lat="44.46821" lon="1.47573">
        <ele>125</ele>
        <time>2011-04-07T08:21:40</time>
      </trkpt>
      <trkpt lat="44.46818" lon="1.4758">
        <ele>125</ele>
        <time>2011-04-07T08:21:41</time>
      </trkpt>
      <trkpt lat="44.46811" lon="1.47592">
        <ele>125</ele>
        <time>2011-04-07T08:21:43</time>
      </trkpt>
      <trkpt lat="44.46808" lon="1.47597">
        <ele>125</ele>
        <time>2011-04-07T08:21:44</time>
      </trkpt>
      <trkpt lat="44.46805" lon="1.47604">
        <ele>125</ele>
        <time>2011-04-07T08:21:45</time>
      </trkpt>
      <trkpt lat="44.46802" lon="1.4761">
        <ele>125</ele>
        <time>2011-04-07T08:21:46</time>
      </trkpt>
      <trkpt lat="44.46799" lon="1.47617">
        <ele>125</ele>
        <time>2011-04-07T08:21:47</time>
      </trkpt>
      <trkpt lat="44.46794" lon="1.47632">
        <ele>122</ele>
        <time>2011-04-07T08:21:49</time>
      </trkpt>
      <trkpt lat="44.46791" lon="1.4764">
        <ele>132</ele>
        <time>2011-04-07T08:21:50</time>
      </trkpt>
      <trkpt lat="44.46786" lon="1.47656">
        <ele>132</ele>
        <time>2011-04-07T08:21:52</time>
      </trkpt>
      <trkpt lat="44.46784" lon="1.47664">
        <ele>132</ele>
        <time>2011-04-07T08:21:53</time>
      </trkpt>
      <trkpt lat="44.46778" lon="1.47678">
        <ele>132</ele>
        <time>2011-04-07T08:21:55</time>
      </trkpt>
      <trkpt lat="44.46775" lon="1.47686">
        <ele>132</ele>
        <time>2011-04-07T08:21:56</time>
      </trkpt>
      <trkpt lat="44.46772" lon="1.47694">
        <ele>132</ele>
        <time>2011-04-07T08:21:57</time>
      </trkpt>
      <trkpt lat="44.46767" lon="1.4771">
        <ele>126</ele>
        <time>2011-04-07T08:21:59</time>
      </trkpt>
      <trkpt lat="44.46764" lon="1.47717">
        <ele>126</ele>
        <time>2011-04-07T08:22:00</time>
      </trkpt>
      <trkpt lat="44.46758" lon="1.47731">
        <ele>126</ele>
        <time>2011-04-07T08:22:02</time>
      </trkpt>
      <trkpt lat="44.46755" lon="1.47738">
        <ele>126</ele>
        <time>2011-04-07T08:22:03</time>
      </trkpt>
      <trkpt lat="44.46748" lon="1.4775">
        <ele>126</ele>
        <time>2011-04-07T08:22:05</time>
      </trkpt>
      <trkpt lat="44.46745" lon="1.47756">
        <ele>126</ele>
        <time>2011-04-07T08:22:06</time>
      </trkpt>
      <trkpt lat="44.46738" lon="1.47768">
        <ele>126</ele>
        <time>2011-04-07T08:22:08</time>
      </trkpt>
      <trkpt lat="44.46735" lon="1.47773">
        <ele>126</ele>
        <time>2011-04-07T08:22:09</time>
      </trkpt>
      <trkpt lat="44.46729" lon="1.47784">
        <ele>126</ele>
        <time>2011-04-07T08:22:11</time>
      </trkpt>
      <trkpt lat="44.46726" lon="1.47789">
        <ele>126</ele>
        <time>2011-04-07T08:22:12</time>
      </trkpt>
      <trkpt lat="44.4672" lon="1.47799">
        <ele>120</ele>
        <time>2011-04-07T08:22:14</time>
      </trkpt>
      <trkpt lat="44.46719" lon="1.47805">
        <ele>120</ele>
        <time>2011-04-07T08:22:15</time>
      </trkpt>
      <trkpt lat="44.46719" lon="1.4781">
        <ele>120</ele>
        <time>2011-04-07T08:22:16</time>
      </trkpt>
      <trkpt lat="44.46724" lon="1.47818">
        <ele>120</ele>
        <time>2011-04-07T08:22:18</time>
      </trkpt>
      <trkpt lat="44.46728" lon="1.47822">
        <ele>120</ele>
        <time>2011-04-07T08:22:19</time>
      </trkpt>
      <trkpt lat="44.46737" lon="1.47828">
        <ele>120</ele>
        <time>2011-04-07T08:22:21</time>
      </trkpt>
      <trkpt lat="44.46742" lon="1.4783">
        <ele>120</ele>
        <time>2011-04-07T08:22:22</time>
      </trkpt>
      <trkpt lat="44.46746" lon="1.47832">
        <ele>120</ele>
        <time>2011-04-07T08:22:23</time>
      </trkpt>
      <trkpt lat="44.46755" lon="1.47837">
        <ele>120</ele>
        <time>2011-04-07T08:22:25</time>
      </trkpt>
      <trkpt lat="44.4676" lon="1.4784">
        <ele>120</ele>
        <time>2011-04-07T08:22:26</time>
      </trkpt>
      <trkpt lat="44.46763" lon="1.47842">
        <ele>120</ele>
        <time>2011-04-07T08:22:27</time>
      </trkpt>
      <trkpt lat="44.46768" lon="1.47845">
        <ele>120</ele>
        <time>2011-04-07T08:22:29</time>
      </trkpt>
      <trkpt lat="44.46771" lon="1.47845">
        <ele>120</ele>
        <time>2011-04-07T08:22:30</time>
      </trkpt>
      <trkpt lat="44.46773" lon="1.47845">
        <ele>120</ele>
        <time>2011-04-07T08:22:31</time>
      </trkpt>
      <trkpt lat="44.46779" lon="1.47844">
        <ele>120</ele>
        <time>2011-04-07T08:22:33</time>
      </trkpt>
      <trkpt lat="44.46783" lon="1.47841">
        <ele>120</ele>
        <time>2011-04-07T08:22:35</time>
      </trkpt>
      <trkpt lat="44.46787" lon="1.47833">
        <ele>120</ele>
        <time>2011-04-07T08:22:37</time>
      </trkpt>
      <trkpt lat="44.46788" lon="1.47831">
        <ele>120</ele>
        <time>2011-04-07T08:22:38</time>
      </trkpt>
      <trkpt lat="44.46792" lon="1.47824">
        <ele>120</ele>
        <time>2011-04-07T08:22:40</time>
      </trkpt>
      <trkpt lat="44.46794" lon="1.4782">
        <ele>122</ele>
        <time>2011-04-07T08:22:41</time>
      </trkpt>
      <trkpt lat="44.46797" lon="1.47815">
        <ele>122</ele>
        <time>2011-04-07T08:22:42</time>
      </trkpt>
      <trkpt lat="44.46802" lon="1.47806">
        <ele>122</ele>
        <time>2011-04-07T08:22:44</time>
      </trkpt>
      <trkpt lat="44.46804" lon="1.47801">
        <ele>122</ele>
        <time>2011-04-07T08:22:45</time>
      </trkpt>
      <trkpt lat="44.46807" lon="1.47796">
        <ele>122</ele>
        <time>2011-04-07T08:22:46</time>
      </trkpt>
      <trkpt lat="44.46812" lon="1.47785">
        <ele>121</ele>
        <time>2011-04-07T08:22:48</time>
      </trkpt>
      <trkpt lat="44.46814" lon="1.4778">
        <ele>121</ele>
        <time>2011-04-07T08:22:49</time>
      </trkpt>
      <trkpt lat="44.4682" lon="1.4777">
        <ele>121</ele>
        <time>2011-04-07T08:22:51</time>
      </trkpt>
      <trkpt lat="44.46827" lon="1.4776">
        <ele>121</ele>
        <time>2011-04-07T08:22:53</time>
      </trkpt>
      <trkpt lat="44.4683" lon="1.47754">
        <ele>121</ele>
        <time>2011-04-07T08:22:54</time>
      </trkpt>
      <trkpt lat="44.46837" lon="1.47744">
        <ele>121</ele>
        <time>2011-04-07T08:22:56</time>
      </trkpt>
      <trkpt lat="44.4684" lon="1.47739">
        <ele>121</ele>
        <time>2011-04-07T08:22:57</time>
      </trkpt>
      <trkpt lat="44.46843" lon="1.47734">
        <ele>121</ele>
        <time>2011-04-07T08:22:58</time>
      </trkpt>
      <trkpt lat="44.4685" lon="1.47724">
        <ele>121</ele>
        <time>2011-04-07T08:23:00</time>
      </trkpt>
      <trkpt lat="44.46859" lon="1.47713">
        <ele>121</ele>
        <time>2011-04-07T08:23:02</time>
      </trkpt>
      <trkpt lat="44.46863" lon="1.47707">
        <ele>122</ele>
        <time>2011-04-07T08:23:03</time>
      </trkpt>
      <trkpt lat="44.46867" lon="1.47702">
        <ele>122</ele>
        <time>2011-04-07T08:23:04</time>
      </trkpt>
      <trkpt lat="44.46872" lon="1.47697">
        <ele>122</ele>
        <time>2011-04-07T08:23:05</time>
      </trkpt>
      <trkpt lat="44.46881" lon="1.47686">
        <ele>120</ele>
        <time>2011-04-07T08:23:07</time>
      </trkpt>
      <trkpt lat="44.46885" lon="1.47682">
        <ele>120</ele>
        <time>2011-04-07T08:23:08</time>
      </trkpt>
      <trkpt lat="44.46894" lon="1.47672">
        <ele>120</ele>
        <time>2011-04-07T08:23:10</time>
      </trkpt>
      <trkpt lat="44.46903" lon="1.47662">
        <ele>120</ele>
        <time>2011-04-07T08:23:12</time>
      </trkpt>
      <trkpt lat="44.46913" lon="1.47654">
        <ele>120</ele>
        <time>2011-04-07T08:23:14</time>
      </trkpt>
      <trkpt lat="44.46924" lon="1.47648">
        <ele>120</ele>
        <time>2011-04-07T08:23:16</time>
      </trkpt>
      <trkpt lat="44.46929" lon="1.47645">
        <ele>120</ele>
        <time>2011-04-07T08:23:17</time>
      </trkpt>
      <trkpt lat="44.46934" lon="1.47642">
        <ele>120</ele>
        <time>2011-04-07T08:23:18</time>
      </trkpt>
      <trkpt lat="44.46944" lon="1.47634">
        <ele>120</ele>
        <time>2011-04-07T08:23:20</time>
      </trkpt>
      <trkpt lat="44.46949" lon="1.47629">
        <ele>120</ele>
        <time>2011-04-07T08:23:21</time>
      </trkpt>
      <trkpt lat="44.46958" lon="1.4762">
        <ele>121</ele>
        <time>2011-04-07T08:23:23</time>
      </trkpt>
      <trkpt lat="44.46967" lon="1.47611">
        <ele>120</ele>
        <time>2011-04-07T08:23:25</time>
      </trkpt>
      <trkpt lat="44.46976" lon="1.47602">
        <ele>120</ele>
        <time>2011-04-07T08:23:27</time>
      </trkpt>
      <trkpt lat="44.46981" lon="1.47597">
        <ele>120</ele>
        <time>2011-04-07T08:23:28</time>
      </trkpt>
      <trkpt lat="44.4699" lon="1.47588">
        <ele>120</ele>
        <time>2011-04-07T08:23:30</time>
      </trkpt>
      <trkpt lat="44.46998" lon="1.4758">
        <ele>120</ele>
        <time>2011-04-07T08:23:32</time>
      </trkpt>
      <trkpt lat="44.47005" lon="1.47574">
        <ele>120</ele>
        <time>2011-04-07T08:23:34</time>
      </trkpt>
      <trkpt lat="44.47013" lon="1.47567">
        <ele>120</ele>
        <time>2011-04-07T08:23:36</time>
      </trkpt>
      <trkpt lat="44.47017" lon="1.47564">
        <ele>120</ele>
        <time>2011-04-07T08:23:37</time>
      </trkpt>
      <trkpt lat="44.47025" lon="1.47558">
        <ele>120</ele>
        <time>2011-04-07T08:23:39</time>
      </trkpt>
      <trkpt lat="44.47029" lon="1.47556">
        <ele>120</ele>
        <time>2011-04-07T08:23:40</time>
      </trkpt>
      <trkpt lat="44.47034" lon="1.47555">
        <ele>120</ele>
        <time>2011-04-07T08:23:41</time>
      </trkpt>
      <trkpt lat="44.47038" lon="1.47553">
        <ele>120</ele>
        <time>2011-04-07T08:23:42</time>
      </trkpt>
      <trkpt lat="44.47047" lon="1.47548">
        <ele>119</ele>
        <time>2011-04-07T08:23:44</time>
      </trkpt>
      <trkpt lat="44.47052" lon="1.47543">
        <ele>119</ele>
        <time>2011-04-07T08:23:45</time>
      </trkpt>
      <trkpt lat="44.47059" lon="1.47537">
        <ele>121</ele>
        <time>2011-04-07T08:23:47</time>
      </trkpt>
      <trkpt lat="44.47065" lon="1.47532">
        <ele>121</ele>
        <time>2011-04-07T08:23:49</time>
      </trkpt>
      <trkpt lat="44.47068" lon="1.4753">
        <ele>121</ele>
        <time>2011-04-07T08:23:50</time>
      </trkpt>
      <trkpt lat="44.47075" lon="1.47524">
        <ele>121</ele>
        <time>2011-04-07T08:23:52</time>
      </trkpt>
      <trkpt lat="44.47078" lon="1.47521">
        <ele>121</ele>
        <time>2011-04-07T08:23:53</time>
      </trkpt>
      <trkpt lat="44.47085" lon="1.47514">
        <ele>121</ele>
        <time>2011-04-07T08:23:55</time>
      </trkpt>
      <trkpt lat="44.47093" lon="1.47506">
        <ele>121</ele>
        <time>2011-04-07T08:23:57</time>
      </trkpt>
      <trkpt lat="44.47102" lon="1.47497">
        <ele>121</ele>
        <time>2011-04-07T08:23:59</time>
      </trkpt>
      <trkpt lat="44.47106" lon="1.47492">
        <ele>121</ele>
        <time>2011-04-07T08:24:00</time>
      </trkpt>
      <trkpt lat="44.47115" lon="1.47484">
        <ele>121</ele>
        <time>2011-04-07T08:24:02</time>
      </trkpt>
      <trkpt lat="44.47119" lon="1.47481">
        <ele>121</ele>
        <time>2011-04-07T08:24:03</time>
      </trkpt>
      <trkpt lat="44.47127" lon="1.47476">
        <ele>119</ele>
        <time>2011-04-07T08:24:05</time>
      </trkpt>
      <trkpt lat="44.47136" lon="1.47472">
        <ele>119</ele>
        <time>2011-04-07T08:24:07</time>
      </trkpt>
      <trkpt lat="44.4714" lon="1.4747">
        <ele>119</ele>
        <time>2011-04-07T08:24:08</time>
      </trkpt>
      <trkpt lat="44.47148" lon="1.47465">
        <ele>119</ele>
        <time>2011-04-07T08:24:10</time>
      </trkpt>
      <trkpt lat="44.47152" lon="1.47461">
        <ele>119</ele>
        <time>2011-04-07T08:24:11</time>
      </trkpt>
      <trkpt lat="44.47159" lon="1.47455">
        <ele>122</ele>
        <time>2011-04-07T08:24:13</time>
      </trkpt>
      <trkpt lat="44.47163" lon="1.47452">
        <ele>122</ele>
        <time>2011-04-07T08:24:14</time>
      </trkpt>
      <trkpt lat="44.47166" lon="1.47449">
        <ele>122</ele>
        <time>2011-04-07T08:24:15</time>
      </trkpt>
      <trkpt lat="44.47174" lon="1.47443">
        <ele>122</ele>
        <time>2011-04-07T08:24:17</time>
      </trkpt>
      <trkpt lat="44.47178" lon="1.47439">
        <ele>122</ele>
        <time>2011-04-07T08:24:18</time>
      </trkpt>
      <trkpt lat="44.47186" lon="1.47433">
        <ele>122</ele>
        <time>2011-04-07T08:24:20</time>
      </trkpt>
      <trkpt lat="44.4719" lon="1.4743">
        <ele>122</ele>
        <time>2011-04-07T08:24:21</time>
      </trkpt>
      <trkpt lat="44.47198" lon="1.47425">
        <ele>122</ele>
        <time>2011-04-07T08:24:23</time>
      </trkpt>
      <trkpt lat="44.47204" lon="1.47419">
        <ele>122</ele>
        <time>2011-04-07T08:24:26</time>
      </trkpt>
      <trkpt lat="44.47206" lon="1.47416">
        <ele>122</ele>
        <time>2011-04-07T08:24:27</time>
      </trkpt>
      <trkpt lat="44.47209" lon="1.47412">
        <ele>119</ele>
        <time>2011-04-07T08:24:28</time>
      </trkpt>
      <trkpt lat="44.47216" lon="1.47403">
        <ele>119</ele>
        <time>2011-04-07T08:24:30</time>
      </trkpt>
      <trkpt lat="44.4722" lon="1.47399">
        <ele>119</ele>
        <time>2011-04-07T08:24:31</time>
      </trkpt>
      <trkpt lat="44.4723" lon="1.4739">
        <ele>119</ele>
        <time>2011-04-07T08:24:33</time>
      </trkpt>
      <trkpt lat="44.47236" lon="1.47385">
        <ele>119</ele>
        <time>2011-04-07T08:24:34</time>
      </trkpt>
      <trkpt lat="44.47247" lon="1.47371">
        <ele>121</ele>
        <time>2011-04-07T08:24:36</time>
      </trkpt>
      <trkpt lat="44.47252" lon="1.47364">
        <ele>121</ele>
        <time>2011-04-07T08:24:37</time>
      </trkpt>
      <trkpt lat="44.47261" lon="1.4735">
        <ele>121</ele>
        <time>2011-04-07T08:24:39</time>
      </trkpt>
      <trkpt lat="44.47264" lon="1.47345">
        <ele>121</ele>
        <time>2011-04-07T08:24:40</time>
      </trkpt>
      <trkpt lat="44.47272" lon="1.47335">
        <ele>121</ele>
        <time>2011-04-07T08:24:42</time>
      </trkpt>
      <trkpt lat="44.4728" lon="1.47324">
        <ele>121</ele>
        <time>2011-04-07T08:24:44</time>
      </trkpt>
      <trkpt lat="44.47284" lon="1.47319">
        <ele>121</ele>
        <time>2011-04-07T08:24:45</time>
      </trkpt>
      <trkpt lat="44.47293" lon="1.47308">
        <ele>119</ele>
        <time>2011-04-07T08:24:47</time>
      </trkpt>
      <trkpt lat="44.47302" lon="1.47296">
        <ele>119</ele>
        <time>2011-04-07T08:24:49</time>
      </trkpt>
      <trkpt lat="44.47306" lon="1.4729">
        <ele>121</ele>
        <time>2011-04-07T08:24:50</time>
      </trkpt>
      <trkpt lat="44.47313" lon="1.4728">
        <ele>121</ele>
        <time>2011-04-07T08:24:52</time>
      </trkpt>
      <trkpt lat="44.47319" lon="1.47271">
        <ele>121</ele>
        <time>2011-04-07T08:24:54</time>
      </trkpt>
      <trkpt lat="44.4732" lon="1.47269">
        <ele>121</ele>
        <time>2011-04-07T08:24:55</time>
      </trkpt>
      <trkpt lat="44.47322" lon="1.47266">
        <ele>121</ele>
        <time>2011-04-07T08:24:57</time>
      </trkpt>
      <trkpt lat="44.47324" lon="1.47262">
        <ele>121</ele>
        <time>2011-04-07T08:24:59</time>
      </trkpt>
      <trkpt lat="44.47328" lon="1.47256">
        <ele>121</ele>
        <time>2011-04-07T08:25:01</time>
      </trkpt>
      <trkpt lat="44.47332" lon="1.4725">
        <ele>121</ele>
        <time>2011-04-07T08:25:03</time>
      </trkpt>
      <trkpt lat="44.47337" lon="1.47242">
        <ele>121</ele>
        <time>2011-04-07T08:25:05</time>
      </trkpt>
      <trkpt lat="44.4734" lon="1.47236">
        <ele>121</ele>
        <time>2011-04-07T08:25:06</time>
      </trkpt>
      <trkpt lat="44.47347" lon="1.47224">
        <ele>121</ele>
        <time>2011-04-07T08:25:08</time>
      </trkpt>
      <trkpt lat="44.47353" lon="1.47214">
        <ele>121</ele>
        <time>2011-04-07T08:25:10</time>
      </trkpt>
      <trkpt lat="44.47356" lon="1.4721">
        <ele>121</ele>
        <time>2011-04-07T08:25:11</time>
      </trkpt>
      <trkpt lat="44.47358" lon="1.47205">
        <ele>121</ele>
        <time>2011-04-07T08:25:12</time>
      </trkpt>
      <trkpt lat="44.47362" lon="1.47195">
        <ele>121</ele>
        <time>2011-04-07T08:25:14</time>
      </trkpt>
      <trkpt lat="44.47364" lon="1.4719">
        <ele>121</ele>
        <time>2011-04-07T08:25:15</time>
      </trkpt>
      <trkpt lat="44.47369" lon="1.4718">
        <ele>121</ele>
        <time>2011-04-07T08:25:17</time>
      </trkpt>
      <trkpt lat="44.47372" lon="1.47175">
        <ele>121</ele>
        <time>2011-04-07T08:25:18</time>
      </trkpt>
      <trkpt lat="44.47374" lon="1.47164">
        <ele>121</ele>
        <time>2011-04-07T08:25:20</time>
      </trkpt>
      <trkpt lat="44.47374" lon="1.4716">
        <ele>121</ele>
        <time>2011-04-07T08:25:21</time>
      </trkpt>
      <trkpt lat="44.47375" lon="1.47156">
        <ele>120</ele>
        <time>2011-04-07T08:25:23</time>
      </trkpt>
      <trkpt lat="44.47378" lon="1.4715">
        <ele>120</ele>
        <time>2011-04-07T08:25:25</time>
      </trkpt>
      <trkpt lat="44.4738" lon="1.47145">
        <ele>120</ele>
        <time>2011-04-07T08:25:26</time>
      </trkpt>
      <trkpt lat="44.47381" lon="1.47139">
        <ele>120</ele>
        <time>2011-04-07T08:25:27</time>
      </trkpt>
      <trkpt lat="44.47385" lon="1.47125">
        <ele>120</ele>
        <time>2011-04-07T08:25:29</time>
      </trkpt>
      <trkpt lat="44.47389" lon="1.47117">
        <ele>122</ele>
        <time>2011-04-07T08:25:30</time>
      </trkpt>
      <trkpt lat="44.47395" lon="1.47102">
        <ele>122</ele>
        <time>2011-04-07T08:25:32</time>
      </trkpt>
      <trkpt lat="44.47398" lon="1.47095">
        <ele>122</ele>
        <time>2011-04-07T08:25:33</time>
      </trkpt>
      <trkpt lat="44.474" lon="1.47089">
        <ele>122</ele>
        <time>2011-04-07T08:25:34</time>
      </trkpt>
      <trkpt lat="44.47404" lon="1.47076">
        <ele>122</ele>
        <time>2011-04-07T08:25:36</time>
      </trkpt>
      <trkpt lat="44.47406" lon="1.47068">
        <ele>122</ele>
        <time>2011-04-07T08:25:37</time>
      </trkpt>
      <trkpt lat="44.47411" lon="1.47054">
        <ele>122</ele>
        <time>2011-04-07T08:25:39</time>
      </trkpt>
      <trkpt lat="44.47413" lon="1.47039">
        <ele>122</ele>
        <time>2011-04-07T08:25:41</time>
      </trkpt>
      <trkpt lat="44.47413" lon="1.4703">
        <ele>122</ele>
        <time>2011-04-07T08:25:43</time>
      </trkpt>
      <trkpt lat="44.47414" lon="1.47022">
        <ele>122</ele>
        <time>2011-04-07T08:25:45</time>
      </trkpt>
      <trkpt lat="44.47414" lon="1.47018">
        <ele>122</ele>
        <time>2011-04-07T08:25:46</time>
      </trkpt>
      <trkpt lat="44.47418" lon="1.47008">
        <ele>122</ele>
        <time>2011-04-07T08:25:57</time>
      </trkpt>
      <trkpt lat="44.47418" lon="1.47008">
        <ele>122</ele>
        <time>2011-04-07T08:26:05</time>
      </trkpt>
      <trkpt lat="44.4742" lon="1.47004">
        <ele>122</ele>
        <time>2011-04-07T08:26:38</time>
      </trkpt>
      <trkpt lat="44.47415" lon="1.47003">
        <ele>122</ele>
        <time>2011-04-07T08:26:45</time>
      </trkpt>
      <trkpt lat="44.47415" lon="1.4701">
        <ele>122</ele>
        <time>2011-04-07T08:27:52</time>
      </trkpt>
      <trkpt lat="44.47412" lon="1.47005">
        <ele>122</ele>
        <time>2011-04-07T08:28:07</time>
      </trkpt>
      <trkpt lat="44.47415" lon="1.47005">
        <ele>122</ele>
        <time>2011-04-07T08:28:17</time>
      </trkpt>
      <trkpt lat="44.47414" lon="1.47001">
        <ele>122</ele>
        <time>2011-04-07T08:28:20</time>
      </trkpt>
      <trkpt lat="44.47414" lon="1.47001">
        <ele>122</ele>
        <time>2011-04-07T08:28:20</time>
      </trkpt>
      <trkpt lat="44.47413" lon="1.46998">
        <ele>122</ele>
        <time>2011-04-07T08:28:22</time>
      </trkpt>
      <trkpt lat="44.47412" lon="1.46991">
        <ele>122</ele>
        <time>2011-04-07T08:28:24</time>
      </trkpt>
      <trkpt lat="44.47412" lon="1.46981">
        <ele>122</ele>
        <time>2011-04-07T08:28:26</time>
      </trkpt>
      <trkpt lat="44.47412" lon="1.4697">
        <ele>122</ele>
        <time>2011-04-07T08:28:28</time>
      </trkpt>
      <trkpt lat="44.47412" lon="1.46964">
        <ele>122</ele>
        <time>2011-04-07T08:28:29</time>
      </trkpt>
      <trkpt lat="44.47412" lon="1.46957">
        <ele>121</ele>
        <time>2011-04-07T08:28:30</time>
      </trkpt>
      <trkpt lat="44.4741" lon="1.46945">
        <ele>121</ele>
        <time>2011-04-07T08:28:32</time>
      </trkpt>
      <trkpt lat="44.47409" lon="1.46939">
        <ele>121</ele>
        <time>2011-04-07T08:28:33</time>
      </trkpt>
      <trkpt lat="44.47406" lon="1.46926">
        <ele>121</ele>
        <time>2011-04-07T08:28:35</time>
      </trkpt>
      <trkpt lat="44.47405" lon="1.4692">
        <ele>121</ele>
        <time>2011-04-07T08:28:36</time>
      </trkpt>
      <trkpt lat="44.47404" lon="1.46914">
        <ele>121</ele>
        <time>2011-04-07T08:28:37</time>
      </trkpt>
      <trkpt lat="44.47401" lon="1.469">
        <ele>121</ele>
        <time>2011-04-07T08:28:39</time>
      </trkpt>
      <trkpt lat="44.47399" lon="1.46886">
        <ele>121</ele>
        <time>2011-04-07T08:28:41</time>
      </trkpt>
      <trkpt lat="44.47398" lon="1.46872">
        <ele>119</ele>
        <time>2011-04-07T08:28:43</time>
      </trkpt>
      <trkpt lat="44.47398" lon="1.46864">
        <ele>119</ele>
        <time>2011-04-07T08:28:44</time>
      </trkpt>
      <trkpt lat="44.47397" lon="1.4685">
        <ele>119</ele>
        <time>2011-04-07T08:28:46</time>
      </trkpt>
      <trkpt lat="44.47396" lon="1.46836">
        <ele>119</ele>
        <time>2011-04-07T08:28:48</time>
      </trkpt>
      <trkpt lat="44.47394" lon="1.46822">
        <ele>119</ele>
        <time>2011-04-07T08:28:50</time>
      </trkpt>
      <trkpt lat="44.47393" lon="1.46815">
        <ele>119</ele>
        <time>2011-04-07T08:28:51</time>
      </trkpt>
      <trkpt lat="44.47391" lon="1.46808">
        <ele>119</ele>
        <time>2011-04-07T08:28:52</time>
      </trkpt>
      <trkpt lat="44.47388" lon="1.46794">
        <ele>119</ele>
        <time>2011-04-07T08:28:54</time>
      </trkpt>
      <trkpt lat="44.47386" lon="1.46786">
        <ele>119</ele>
        <time>2011-04-07T08:28:55</time>
      </trkpt>
      <trkpt lat="44.47384" lon="1.46779">
        <ele>119</ele>
        <time>2011-04-07T08:28:56</time>
      </trkpt>
      <trkpt lat="44.4738" lon="1.46764">
        <ele>119</ele>
        <time>2011-04-07T08:28:58</time>
      </trkpt>
      <trkpt lat="44.47378" lon="1.46757">
        <ele>119</ele>
        <time>2011-04-07T08:28:59</time>
      </trkpt>
      <trkpt lat="44.47374" lon="1.46741">
        <ele>120</ele>
        <time>2011-04-07T08:29:01</time>
      </trkpt>
      <trkpt lat="44.47373" lon="1.46733">
        <ele>120</ele>
        <time>2011-04-07T08:29:02</time>
      </trkpt>
      <trkpt lat="44.47371" lon="1.46717">
        <ele>120</ele>
        <time>2011-04-07T08:29:04</time>
      </trkpt>
      <trkpt lat="44.47371" lon="1.46709">
        <ele>120</ele>
        <time>2011-04-07T08:29:05</time>
      </trkpt>
      <trkpt lat="44.47367" lon="1.46694">
        <ele>119</ele>
        <time>2011-04-07T08:29:07</time>
      </trkpt>
      <trkpt lat="44.47363" lon="1.4668">
        <ele>119</ele>
        <time>2011-04-07T08:29:09</time>
      </trkpt>
      <trkpt lat="44.47359" lon="1.46666">
        <ele>119</ele>
        <time>2011-04-07T08:29:11</time>
      </trkpt>
      <trkpt lat="44.47356" lon="1.46659">
        <ele>119</ele>
        <time>2011-04-07T08:29:12</time>
      </trkpt>
      <trkpt lat="44.47352" lon="1.46644">
        <ele>119</ele>
        <time>2011-04-07T08:29:14</time>
      </trkpt>
      <trkpt lat="44.47349" lon="1.46636">
        <ele>119</ele>
        <time>2011-04-07T08:29:15</time>
      </trkpt>
      <trkpt lat="44.47345" lon="1.46621">
        <ele>118</ele>
        <time>2011-04-07T08:29:17</time>
      </trkpt>
      <trkpt lat="44.47338" lon="1.46606">
        <ele>118</ele>
        <time>2011-04-07T08:29:19</time>
      </trkpt>
      <trkpt lat="44.47332" lon="1.4659">
        <ele>118</ele>
        <time>2011-04-07T08:29:21</time>
      </trkpt>
      <trkpt lat="44.47329" lon="1.46581">
        <ele>118</ele>
        <time>2011-04-07T08:29:22</time>
      </trkpt>
      <trkpt lat="44.47323" lon="1.46564">
        <ele>118</ele>
        <time>2011-04-07T08:29:24</time>
      </trkpt>
      <trkpt lat="44.47317" lon="1.46548">
        <ele>118</ele>
        <time>2011-04-07T08:29:26</time>
      </trkpt>
      <trkpt lat="44.4731" lon="1.46532">
        <ele>117</ele>
        <time>2011-04-07T08:29:28</time>
      </trkpt>
      <trkpt lat="44.47306" lon="1.46525">
        <ele>117</ele>
        <time>2011-04-07T08:29:29</time>
      </trkpt>
      <trkpt lat="44.47299" lon="1.46511">
        <ele>117</ele>
        <time>2011-04-07T08:29:31</time>
      </trkpt>
      <trkpt lat="44.47295" lon="1.46503">
        <ele>117</ele>
        <time>2011-04-07T08:29:32</time>
      </trkpt>
      <trkpt lat="44.47287" lon="1.46488">
        <ele>119</ele>
        <time>2011-04-07T08:29:34</time>
      </trkpt>
      <trkpt lat="44.4728" lon="1.46472">
        <ele>119</ele>
        <time>2011-04-07T08:29:36</time>
      </trkpt>
      <trkpt lat="44.47277" lon="1.46464">
        <ele>119</ele>
        <time>2011-04-07T08:29:37</time>
      </trkpt>
      <trkpt lat="44.47269" lon="1.46451">
        <ele>118</ele>
        <time>2011-04-07T08:29:39</time>
      </trkpt>
      <trkpt lat="44.47259" lon="1.46441">
        <ele>118</ele>
        <time>2011-04-07T08:29:41</time>
      </trkpt>
      <trkpt lat="44.47254" lon="1.46436">
        <ele>118</ele>
        <time>2011-04-07T08:29:42</time>
      </trkpt>
      <trkpt lat="44.47244" lon="1.46424">
        <ele>118</ele>
        <time>2011-04-07T08:29:44</time>
      </trkpt>
      <trkpt lat="44.47238" lon="1.46419">
        <ele>118</ele>
        <time>2011-04-07T08:29:45</time>
      </trkpt>
      <trkpt lat="44.47228" lon="1.46407">
        <ele>118</ele>
        <time>2011-04-07T08:29:47</time>
      </trkpt>
      <trkpt lat="44.47224" lon="1.464">
        <ele>118</ele>
        <time>2011-04-07T08:29:48</time>
      </trkpt>
      <trkpt lat="44.47219" lon="1.46394">
        <ele>118</ele>
        <time>2011-04-07T08:29:49</time>
      </trkpt>
      <trkpt lat="44.47209" lon="1.46382">
        <ele>118</ele>
        <time>2011-04-07T08:29:51</time>
      </trkpt>
      <trkpt lat="44.47205" lon="1.46376">
        <ele>118</ele>
        <time>2011-04-07T08:29:52</time>
      </trkpt>
      <trkpt lat="44.47195" lon="1.46365">
        <ele>116</ele>
        <time>2011-04-07T08:29:54</time>
      </trkpt>
      <trkpt lat="44.47186" lon="1.46352">
        <ele>116</ele>
        <time>2011-04-07T08:29:56</time>
      </trkpt>
      <trkpt lat="44.47178" lon="1.4634">
        <ele>116</ele>
        <time>2011-04-07T08:29:58</time>
      </trkpt>
      <trkpt lat="44.47169" lon="1.46327">
        <ele>116</ele>
        <time>2011-04-07T08:30:00</time>
      </trkpt>
      <trkpt lat="44.47161" lon="1.46315">
        <ele>116</ele>
        <time>2011-04-07T08:30:02</time>
      </trkpt>
      <trkpt lat="44.47157" lon="1.46308">
        <ele>116</ele>
        <time>2011-04-07T08:30:03</time>
      </trkpt>
      <trkpt lat="44.47149" lon="1.46296">
        <ele>116</ele>
        <time>2011-04-07T08:30:05</time>
      </trkpt>
      <trkpt lat="44.47141" lon="1.46284">
        <ele>116</ele>
        <time>2011-04-07T08:30:07</time>
      </trkpt>
      <trkpt lat="44.47137" lon="1.46277">
        <ele>116</ele>
        <time>2011-04-07T08:30:08</time>
      </trkpt>
      <trkpt lat="44.47134" lon="1.46271">
        <ele>116</ele>
        <time>2011-04-07T08:30:09</time>
      </trkpt>
      <trkpt lat="44.4713" lon="1.46258">
        <ele>116</ele>
        <time>2011-04-07T08:30:11</time>
      </trkpt>
      <trkpt lat="44.47129" lon="1.46251">
        <ele>116</ele>
        <time>2011-04-07T08:30:12</time>
      </trkpt>
      <trkpt lat="44.47126" lon="1.46239">
        <ele>116</ele>
        <time>2011-04-07T08:30:14</time>
      </trkpt>
      <trkpt lat="44.47125" lon="1.46232">
        <ele>120</ele>
        <time>2011-04-07T08:30:15</time>
      </trkpt>
      <trkpt lat="44.47122" lon="1.4622">
        <ele>120</ele>
        <time>2011-04-07T08:30:17</time>
      </trkpt>
      <trkpt lat="44.4712" lon="1.46214">
        <ele>120</ele>
        <time>2011-04-07T08:30:18</time>
      </trkpt>
      <trkpt lat="44.47118" lon="1.46201">
        <ele>120</ele>
        <time>2011-04-07T08:30:20</time>
      </trkpt>
      <trkpt lat="44.47116" lon="1.46194">
        <ele>120</ele>
        <time>2011-04-07T08:30:21</time>
      </trkpt>
      <trkpt lat="44.47115" lon="1.46188">
        <ele>120</ele>
        <time>2011-04-07T08:30:22</time>
      </trkpt>
      <trkpt lat="44.47114" lon="1.46177">
        <ele>120</ele>
        <time>2011-04-07T08:30:24</time>
      </trkpt>
      <trkpt lat="44.47114" lon="1.46166">
        <ele>120</ele>
        <time>2011-04-07T08:30:26</time>
      </trkpt>
      <trkpt lat="44.47114" lon="1.46155">
        <ele>120</ele>
        <time>2011-04-07T08:30:28</time>
      </trkpt>
      <trkpt lat="44.47114" lon="1.46143">
        <ele>120</ele>
        <time>2011-04-07T08:30:30</time>
      </trkpt>
      <trkpt lat="44.47113" lon="1.46137">
        <ele>120</ele>
        <time>2011-04-07T08:30:31</time>
      </trkpt>
      <trkpt lat="44.47112" lon="1.46131">
        <ele>120</ele>
        <time>2011-04-07T08:30:32</time>
      </trkpt>
      <trkpt lat="44.47109" lon="1.46118">
        <ele>120</ele>
        <time>2011-04-07T08:30:34</time>
      </trkpt>
      <trkpt lat="44.47107" lon="1.46112">
        <ele>120</ele>
        <time>2011-04-07T08:30:35</time>
      </trkpt>
      <trkpt lat="44.47104" lon="1.46099">
        <ele>120</ele>
        <time>2011-04-07T08:30:37</time>
      </trkpt>
      <trkpt lat="44.47101" lon="1.46093">
        <ele>120</ele>
        <time>2011-04-07T08:30:38</time>
      </trkpt>
      <trkpt lat="44.47099" lon="1.46087">
        <ele>120</ele>
        <time>2011-04-07T08:30:39</time>
      </trkpt>
      <trkpt lat="44.47094" lon="1.46075">
        <ele>120</ele>
        <time>2011-04-07T08:30:41</time>
      </trkpt>
      <trkpt lat="44.47091" lon="1.46069">
        <ele>120</ele>
        <time>2011-04-07T08:30:42</time>
      </trkpt>
      <trkpt lat="44.47087" lon="1.46057">
        <ele>120</ele>
        <time>2011-04-07T08:30:44</time>
      </trkpt>
      <trkpt lat="44.47085" lon="1.46051">
        <ele>120</ele>
        <time>2011-04-07T08:30:45</time>
      </trkpt>
      <trkpt lat="44.47082" lon="1.46042">
        <ele>120</ele>
        <time>2011-04-07T08:30:47</time>
      </trkpt>
      <trkpt lat="44.47081" lon="1.46038">
        <ele>120</ele>
        <time>2011-04-07T08:30:48</time>
      </trkpt>
      <trkpt lat="44.47077" lon="1.46028">
        <ele>120</ele>
        <time>2011-04-07T08:30:50</time>
      </trkpt>
      <trkpt lat="44.47073" lon="1.46019">
        <ele>120</ele>
        <time>2011-04-07T08:30:52</time>
      </trkpt>
      <trkpt lat="44.47067" lon="1.46015">
        <ele>120</ele>
        <time>2011-04-07T08:30:54</time>
      </trkpt>
      <trkpt lat="44.47065" lon="1.46011">
        <ele>120</ele>
        <time>2011-04-07T08:30:55</time>
      </trkpt>
      <trkpt lat="44.47063" lon="1.45999">
        <ele>120</ele>
        <time>2011-04-07T08:30:57</time>
      </trkpt>
      <trkpt lat="44.4706" lon="1.45987">
        <ele>120</ele>
        <time>2011-04-07T08:30:59</time>
      </trkpt>
      <trkpt lat="44.47057" lon="1.45975">
        <ele>120</ele>
        <time>2011-04-07T08:31:01</time>
      </trkpt>
      <trkpt lat="44.47057" lon="1.45969">
        <ele>120</ele>
        <time>2011-04-07T08:31:02</time>
      </trkpt>
      <trkpt lat="44.47056" lon="1.45963">
        <ele>120</ele>
        <time>2011-04-07T08:31:03</time>
      </trkpt>
      <trkpt lat="44.47055" lon="1.4595">
        <ele>118</ele>
        <time>2011-04-07T08:31:05</time>
      </trkpt>
      <trkpt lat="44.47051" lon="1.45939">
        <ele>118</ele>
        <time>2011-04-07T08:31:07</time>
      </trkpt>
      <trkpt lat="44.4705" lon="1.45933">
        <ele>118</ele>
        <time>2011-04-07T08:31:08</time>
      </trkpt>
      <trkpt lat="44.47048" lon="1.45926">
        <ele>118</ele>
        <time>2011-04-07T08:31:09</time>
      </trkpt>
      <trkpt lat="44.47044" lon="1.45912">
        <ele>118</ele>
        <time>2011-04-07T08:31:11</time>
      </trkpt>
      <trkpt lat="44.47043" lon="1.45905">
        <ele>118</ele>
        <time>2011-04-07T08:31:12</time>
      </trkpt>
      <trkpt lat="44.4704" lon="1.45891">
        <ele>126</ele>
        <time>2011-04-07T08:31:14</time>
      </trkpt>
      <trkpt lat="44.47037" lon="1.45875">
        <ele>126</ele>
        <time>2011-04-07T08:31:16</time>
      </trkpt>
      <trkpt lat="44.47033" lon="1.4586">
        <ele>122</ele>
        <time>2011-04-07T08:31:18</time>
      </trkpt>
      <trkpt lat="44.47031" lon="1.45853">
        <ele>122</ele>
        <time>2011-04-07T08:31:19</time>
      </trkpt>
      <trkpt lat="44.47024" lon="1.4584">
        <ele>122</ele>
        <time>2011-04-07T08:31:21</time>
      </trkpt>
      <trkpt lat="44.47021" lon="1.45833">
        <ele>122</ele>
        <time>2011-04-07T08:31:22</time>
      </trkpt>
      <trkpt lat="44.47015" lon="1.4582">
        <ele>122</ele>
        <time>2011-04-07T08:31:24</time>
      </trkpt>
      <trkpt lat="44.47009" lon="1.45807">
        <ele>122</ele>
        <time>2011-04-07T08:31:26</time>
      </trkpt>
      <trkpt lat="44.47006" lon="1.45801">
        <ele>122</ele>
        <time>2011-04-07T08:31:27</time>
      </trkpt>
      <trkpt lat="44.47003" lon="1.45794">
        <ele>122</ele>
        <time>2011-04-07T08:31:28</time>
      </trkpt>
      <trkpt lat="44.46997" lon="1.45782">
        <ele>120</ele>
        <time>2011-04-07T08:31:30</time>
      </trkpt>
      <trkpt lat="44.46994" lon="1.45776">
        <ele>120</ele>
        <time>2011-04-07T08:31:31</time>
      </trkpt>
      <trkpt lat="44.46992" lon="1.45771">
        <ele>120</ele>
        <time>2011-04-07T08:31:32</time>
      </trkpt>
      <trkpt lat="44.46988" lon="1.45762">
        <ele>120</ele>
        <time>2011-04-07T08:31:34</time>
      </trkpt>
      <trkpt lat="44.46985" lon="1.45758">
        <ele>120</ele>
        <time>2011-04-07T08:31:35</time>
      </trkpt>
      <trkpt lat="44.46982" lon="1.45748">
        <ele>120</ele>
        <time>2011-04-07T08:31:37</time>
      </trkpt>
      <trkpt lat="44.46979" lon="1.45737">
        <ele>120</ele>
        <time>2011-04-07T08:31:39</time>
      </trkpt>
      <trkpt lat="44.46974" lon="1.45728">
        <ele>120</ele>
        <time>2011-04-07T08:31:41</time>
      </trkpt>
      <trkpt lat="44.46972" lon="1.45723">
        <ele>120</ele>
        <time>2011-04-07T08:31:42</time>
      </trkpt>
      <trkpt lat="44.46968" lon="1.45712">
        <ele>120</ele>
        <time>2011-04-07T08:31:44</time>
      </trkpt>
      <trkpt lat="44.46966" lon="1.45707">
        <ele>122</ele>
        <time>2011-04-07T08:31:45</time>
      </trkpt>
      <trkpt lat="44.4696" lon="1.45697">
        <ele>122</ele>
        <time>2011-04-07T08:31:47</time>
      </trkpt>
      <trkpt lat="44.46958" lon="1.4569">
        <ele>136</ele>
        <time>2011-04-07T08:31:48</time>
      </trkpt>
      <trkpt lat="44.46954" lon="1.45678">
        <ele>136</ele>
        <time>2011-04-07T08:31:50</time>
      </trkpt>
      <trkpt lat="44.4695" lon="1.45667">
        <ele>136</ele>
        <time>2011-04-07T08:31:52</time>
      </trkpt>
      <trkpt lat="44.46948" lon="1.4566">
        <ele>136</ele>
        <time>2011-04-07T08:31:54</time>
      </trkpt>
      <trkpt lat="44.46947" lon="1.45657">
        <ele>136</ele>
        <time>2011-04-07T08:31:55</time>
      </trkpt>
      <trkpt lat="44.46944" lon="1.4565">
        <ele>136</ele>
        <time>2011-04-07T08:31:57</time>
      </trkpt>
      <trkpt lat="44.46942" lon="1.45639">
        <ele>136</ele>
        <time>2011-04-07T08:31:59</time>
      </trkpt>
      <trkpt lat="44.4694" lon="1.45633">
        <ele>136</ele>
        <time>2011-04-07T08:32:00</time>
      </trkpt>
      <trkpt lat="44.46938" lon="1.45622">
        <ele>130</ele>
        <time>2011-04-07T08:32:02</time>
      </trkpt>
      <trkpt lat="44.46935" lon="1.45616">
        <ele>130</ele>
        <time>2011-04-07T08:32:03</time>
      </trkpt>
      <trkpt lat="44.46932" lon="1.45605">
        <ele>130</ele>
        <time>2011-04-07T08:32:05</time>
      </trkpt>
      <trkpt lat="44.46931" lon="1.456">
        <ele>130</ele>
        <time>2011-04-07T08:32:06</time>
      </trkpt>
      <trkpt lat="44.46928" lon="1.4559">
        <ele>130</ele>
        <time>2011-04-07T08:32:08</time>
      </trkpt>
      <trkpt lat="44.46924" lon="1.45579">
        <ele>130</ele>
        <time>2011-04-07T08:32:10</time>
      </trkpt>
      <trkpt lat="44.46923" lon="1.45574">
        <ele>130</ele>
        <time>2011-04-07T08:32:11</time>
      </trkpt>
      <trkpt lat="44.4692" lon="1.45564">
        <ele>130</ele>
        <time>2011-04-07T08:32:13</time>
      </trkpt>
      <trkpt lat="44.46918" lon="1.45558">
        <ele>130</ele>
        <time>2011-04-07T08:32:14</time>
      </trkpt>
      <trkpt lat="44.46917" lon="1.45553">
        <ele>130</ele>
        <time>2011-04-07T08:32:15</time>
      </trkpt>
      <trkpt lat="44.46914" lon="1.45543">
        <ele>130</ele>
        <time>2011-04-07T08:32:17</time>
      </trkpt>
      <trkpt lat="44.46911" lon="1.45533">
        <ele>127</ele>
        <time>2011-04-07T08:32:19</time>
      </trkpt>
      <trkpt lat="44.4691" lon="1.45527">
        <ele>127</ele>
        <time>2011-04-07T08:32:20</time>
      </trkpt>
      <trkpt lat="44.46908" lon="1.45517">
        <ele>127</ele>
        <time>2011-04-07T08:32:22</time>
      </trkpt>
      <trkpt lat="44.46906" lon="1.45512">
        <ele>127</ele>
        <time>2011-04-07T08:32:23</time>
      </trkpt>
      <trkpt lat="44.46903" lon="1.45503">
        <ele>127</ele>
        <time>2011-04-07T08:32:25</time>
      </trkpt>
      <trkpt lat="44.469" lon="1.45493">
        <ele>127</ele>
        <time>2011-04-07T08:32:27</time>
      </trkpt>
      <trkpt lat="44.46898" lon="1.45482">
        <ele>127</ele>
        <time>2011-04-07T08:32:29</time>
      </trkpt>
      <trkpt lat="44.46896" lon="1.45471">
        <ele>127</ele>
        <time>2011-04-07T08:32:31</time>
      </trkpt>
      <trkpt lat="44.46894" lon="1.45463">
        <ele>127</ele>
        <time>2011-04-07T08:32:33</time>
      </trkpt>
      <trkpt lat="44.46892" lon="1.45454">
        <ele>121</ele>
        <time>2011-04-07T08:32:35</time>
      </trkpt>
      <trkpt lat="44.46891" lon="1.45443">
        <ele>121</ele>
        <time>2011-04-07T08:32:37</time>
      </trkpt>
      <trkpt lat="44.4689" lon="1.45438">
        <ele>121</ele>
        <time>2011-04-07T08:32:38</time>
      </trkpt>
      <trkpt lat="44.46888" lon="1.45427">
        <ele>121</ele>
        <time>2011-04-07T08:32:40</time>
      </trkpt>
      <trkpt lat="44.46887" lon="1.45418">
        <ele>121</ele>
        <time>2011-04-07T08:32:42</time>
      </trkpt>
      <trkpt lat="44.46885" lon="1.45413">
        <ele>121</ele>
        <time>2011-04-07T08:32:43</time>
      </trkpt>
      <trkpt lat="44.46883" lon="1.45401">
        <ele>121</ele>
        <time>2011-04-07T08:32:45</time>
      </trkpt>
      <trkpt lat="44.46881" lon="1.45395">
        <ele>121</ele>
        <time>2011-04-07T08:32:46</time>
      </trkpt>
      <trkpt lat="44.46877" lon="1.45381">
        <ele>121</ele>
        <time>2011-04-07T08:32:48</time>
      </trkpt>
      <trkpt lat="44.46876" lon="1.4537">
        <ele>116</ele>
        <time>2011-04-07T08:32:50</time>
      </trkpt>
      <trkpt lat="44.46875" lon="1.45365">
        <ele>140</ele>
        <time>2011-04-07T08:32:51</time>
      </trkpt>
      <trkpt lat="44.46874" lon="1.4536">
        <ele>140</ele>
        <time>2011-04-07T08:32:52</time>
      </trkpt>
      <trkpt lat="44.46872" lon="1.45351">
        <ele>140</ele>
        <time>2011-04-07T08:32:54</time>
      </trkpt>
      <trkpt lat="44.4687" lon="1.45345">
        <ele>140</ele>
        <time>2011-04-07T08:32:55</time>
      </trkpt>
      <trkpt lat="44.4687" lon="1.45334">
        <ele>140</ele>
        <time>2011-04-07T08:32:57</time>
      </trkpt>
      <trkpt lat="44.46869" lon="1.45328">
        <ele>140</ele>
        <time>2011-04-07T08:32:58</time>
      </trkpt>
      <trkpt lat="44.46868" lon="1.45324">
        <ele>140</ele>
        <time>2011-04-07T08:32:59</time>
      </trkpt>
      <trkpt lat="44.46867" lon="1.45316">
        <ele>140</ele>
        <time>2011-04-07T08:33:01</time>
      </trkpt>
      <trkpt lat="44.46865" lon="1.453">
        <ele>140</ele>
        <time>2011-04-07T08:33:06</time>
      </trkpt>
      <trkpt lat="44.46865" lon="1.45292">
        <ele>140</ele>
        <time>2011-04-07T08:33:08</time>
      </trkpt>
      <trkpt lat="44.46865" lon="1.45285">
        <ele>137</ele>
        <time>2011-04-07T08:33:10</time>
      </trkpt>
      <trkpt lat="44.46863" lon="1.45277">
        <ele>137</ele>
        <time>2011-04-07T08:33:12</time>
      </trkpt>
      <trkpt lat="44.4686" lon="1.45268">
        <ele>137</ele>
        <time>2011-04-07T08:33:14</time>
      </trkpt>
      <trkpt lat="44.46859" lon="1.45264">
        <ele>137</ele>
        <time>2011-04-07T08:33:15</time>
      </trkpt>
      <trkpt lat="44.46857" lon="1.4526">
        <ele>137</ele>
        <time>2011-04-07T08:33:16</time>
      </trkpt>
      <trkpt lat="44.46854" lon="1.45252">
        <ele>137</ele>
        <time>2011-04-07T08:33:18</time>
      </trkpt>
      <trkpt lat="44.4685" lon="1.45241">
        <ele>137</ele>
        <time>2011-04-07T08:33:20</time>
      </trkpt>
      <trkpt lat="44.46847" lon="1.45229">
        <ele>137</ele>
        <time>2011-04-07T08:33:22</time>
      </trkpt>
      <trkpt lat="44.46842" lon="1.45218">
        <ele>137</ele>
        <time>2011-04-07T08:33:24</time>
      </trkpt>
      <trkpt lat="44.46839" lon="1.45206">
        <ele>132</ele>
        <time>2011-04-07T08:33:26</time>
      </trkpt>
      <trkpt lat="44.46838" lon="1.45201">
        <ele>132</ele>
        <time>2011-04-07T08:33:27</time>
      </trkpt>
      <trkpt lat="44.46837" lon="1.45196">
        <ele>132</ele>
        <time>2011-04-07T08:33:28</time>
      </trkpt>
      <trkpt lat="44.46834" lon="1.45186">
        <ele>132</ele>
        <time>2011-04-07T08:33:30</time>
      </trkpt>
      <trkpt lat="44.46831" lon="1.45173">
        <ele>132</ele>
        <time>2011-04-07T08:33:32</time>
      </trkpt>
      <trkpt lat="44.46828" lon="1.45169">
        <ele>132</ele>
        <time>2011-04-07T08:33:33</time>
      </trkpt>
      <trkpt lat="44.46826" lon="1.45165">
        <ele>132</ele>
        <time>2011-04-07T08:33:34</time>
      </trkpt>
      <trkpt lat="44.46822" lon="1.45157">
        <ele>132</ele>
        <time>2011-04-07T08:33:36</time>
      </trkpt>
      <trkpt lat="44.4682" lon="1.45152">
        <ele>132</ele>
        <time>2011-04-07T08:33:37</time>
      </trkpt>
      <trkpt lat="44.46814" lon="1.45141">
        <ele>132</ele>
        <time>2011-04-07T08:33:39</time>
      </trkpt>
      <trkpt lat="44.46811" lon="1.45135">
        <ele>132</ele>
        <time>2011-04-07T08:33:40</time>
      </trkpt>
      <trkpt lat="44.46806" lon="1.45125">
        <ele>126</ele>
        <time>2011-04-07T08:33:42</time>
      </trkpt>
      <trkpt lat="44.46804" lon="1.4512">
        <ele>126</ele>
        <time>2011-04-07T08:33:43</time>
      </trkpt>
      <trkpt lat="44.46802" lon="1.45116">
        <ele>126</ele>
        <time>2011-04-07T08:33:44</time>
      </trkpt>
      <trkpt lat="44.46799" lon="1.45108">
        <ele>126</ele>
        <time>2011-04-07T08:33:46</time>
      </trkpt>
      <trkpt lat="44.46797" lon="1.45103">
        <ele>126</ele>
        <time>2011-04-07T08:33:48</time>
      </trkpt>
      <trkpt lat="44.46795" lon="1.45101">
        <ele>126</ele>
        <time>2011-04-07T08:33:49</time>
      </trkpt>
      <trkpt lat="44.46793" lon="1.45095">
        <ele>126</ele>
        <time>2011-04-07T08:33:51</time>
      </trkpt>
      <trkpt lat="44.46791" lon="1.45091">
        <ele>144</ele>
        <time>2011-04-07T08:33:52</time>
      </trkpt>
      <trkpt lat="44.46788" lon="1.45081">
        <ele>144</ele>
        <time>2011-04-07T08:33:54</time>
      </trkpt>
      <trkpt lat="44.46786" lon="1.45075">
        <ele>144</ele>
        <time>2011-04-07T08:33:55</time>
      </trkpt>
      <trkpt lat="44.46781" lon="1.45066">
        <ele>144</ele>
        <time>2011-04-07T08:33:57</time>
      </trkpt>
      <trkpt lat="44.46779" lon="1.4506">
        <ele>144</ele>
        <time>2011-04-07T08:33:58</time>
      </trkpt>
      <trkpt lat="44.46774" lon="1.45046">
        <ele>144</ele>
        <time>2011-04-07T08:34:00</time>
      </trkpt>
      <trkpt lat="44.4677" lon="1.45032">
        <ele>129</ele>
        <time>2011-04-07T08:34:02</time>
      </trkpt>
      <trkpt lat="44.46767" lon="1.45025">
        <ele>129</ele>
        <time>2011-04-07T08:34:03</time>
      </trkpt>
      <trkpt lat="44.46763" lon="1.45014">
        <ele>129</ele>
        <time>2011-04-07T08:34:05</time>
      </trkpt>
      <trkpt lat="44.46757" lon="1.45004">
        <ele>129</ele>
        <time>2011-04-07T08:34:07</time>
      </trkpt>
      <trkpt lat="44.46754" lon="1.44999">
        <ele>129</ele>
        <time>2011-04-07T08:34:08</time>
      </trkpt>
      <trkpt lat="44.4675" lon="1.44992">
        <ele>129</ele>
        <time>2011-04-07T08:34:09</time>
      </trkpt>
      <trkpt lat="44.46742" lon="1.44977">
        <ele>129</ele>
        <time>2011-04-07T08:34:11</time>
      </trkpt>
      <trkpt lat="44.46739" lon="1.4497">
        <ele>129</ele>
        <time>2011-04-07T08:34:12</time>
      </trkpt>
      <trkpt lat="44.46735" lon="1.44964">
        <ele>129</ele>
        <time>2011-04-07T08:34:13</time>
      </trkpt>
      <trkpt lat="44.46729" lon="1.44952">
        <ele>117</ele>
        <time>2011-04-07T08:34:15</time>
      </trkpt>
      <trkpt lat="44.46727" lon="1.44946">
        <ele>117</ele>
        <time>2011-04-07T08:34:16</time>
      </trkpt>
      <trkpt lat="44.46721" lon="1.44935">
        <ele>117</ele>
        <time>2011-04-07T08:34:18</time>
      </trkpt>
      <trkpt lat="44.46719" lon="1.44931">
        <ele>117</ele>
        <time>2011-04-07T08:34:19</time>
      </trkpt>
      <trkpt lat="44.46717" lon="1.44926">
        <ele>117</ele>
        <time>2011-04-07T08:34:20</time>
      </trkpt>
      <trkpt lat="44.46714" lon="1.44919">
        <ele>117</ele>
        <time>2011-04-07T08:34:22</time>
      </trkpt>
      <trkpt lat="44.46713" lon="1.44915">
        <ele>117</ele>
        <time>2011-04-07T08:34:24</time>
      </trkpt>
      <trkpt lat="44.4671" lon="1.44908">
        <ele>117</ele>
        <time>2011-04-07T08:34:27</time>
      </trkpt>
      <trkpt lat="44.46708" lon="1.44902">
        <ele>136</ele>
        <time>2011-04-07T08:34:29</time>
      </trkpt>
      <trkpt lat="44.46706" lon="1.44899">
        <ele>136</ele>
        <time>2011-04-07T08:34:30</time>
      </trkpt>
      <trkpt lat="44.46702" lon="1.44891">
        <ele>136</ele>
        <time>2011-04-07T08:34:32</time>
      </trkpt>
      <trkpt lat="44.46699" lon="1.44883">
        <ele>136</ele>
        <time>2011-04-07T08:34:34</time>
      </trkpt>
      <trkpt lat="44.46695" lon="1.44874">
        <ele>127</ele>
        <time>2011-04-07T08:34:36</time>
      </trkpt>
      <trkpt lat="44.46691" lon="1.44865">
        <ele>127</ele>
        <time>2011-04-07T08:34:38</time>
      </trkpt>
      <trkpt lat="44.46688" lon="1.44855">
        <ele>127</ele>
        <time>2011-04-07T08:34:40</time>
      </trkpt>
      <trkpt lat="44.46686" lon="1.4485">
        <ele>127</ele>
        <time>2011-04-07T08:34:41</time>
      </trkpt>
      <trkpt lat="44.4668" lon="1.4484">
        <ele>127</ele>
        <time>2011-04-07T08:34:43</time>
      </trkpt>
      <trkpt lat="44.46677" lon="1.44836">
        <ele>127</ele>
        <time>2011-04-07T08:34:44</time>
      </trkpt>
      <trkpt lat="44.46675" lon="1.44831">
        <ele>127</ele>
        <time>2011-04-07T08:34:45</time>
      </trkpt>
      <trkpt lat="44.46669" lon="1.4482">
        <ele>127</ele>
        <time>2011-04-07T08:34:47</time>
      </trkpt>
      <trkpt lat="44.46667" lon="1.44816">
        <ele>127</ele>
        <time>2011-04-07T08:34:48</time>
      </trkpt>
      <trkpt lat="44.46663" lon="1.44806">
        <ele>127</ele>
        <time>2011-04-07T08:34:50</time>
      </trkpt>
      <trkpt lat="44.4666" lon="1.448">
        <ele>127</ele>
        <time>2011-04-07T08:34:51</time>
      </trkpt>
      <trkpt lat="44.46655" lon="1.44791">
        <ele>120</ele>
        <time>2011-04-07T08:34:53</time>
      </trkpt>
      <trkpt lat="44.46652" lon="1.44786">
        <ele>120</ele>
        <time>2011-04-07T08:34:54</time>
      </trkpt>
      <trkpt lat="44.46648" lon="1.44783">
        <ele>120</ele>
        <time>2011-04-07T08:34:56</time>
      </trkpt>
      <trkpt lat="44.46645" lon="1.44783">
        <ele>120</ele>
        <time>2011-04-07T08:34:57</time>
      </trkpt>
      <trkpt lat="44.4664" lon="1.44784">
        <ele>120</ele>
        <time>2011-04-07T08:34:59</time>
      </trkpt>
      <trkpt lat="44.46636" lon="1.44787">
        <ele>120</ele>
        <time>2011-04-07T08:35:01</time>
      </trkpt>
      <trkpt lat="44.46634" lon="1.44789">
        <ele>120</ele>
        <time>2011-04-07T08:35:02</time>
      </trkpt>
      <trkpt lat="44.46629" lon="1.44794">
        <ele>127</ele>
        <time>2011-04-07T08:35:04</time>
      </trkpt>
      <trkpt lat="44.46624" lon="1.448">
        <ele>131</ele>
        <time>2011-04-07T08:35:06</time>
      </trkpt>
      <trkpt lat="44.46617" lon="1.448">
        <ele>131</ele>
        <time>2011-04-07T08:35:08</time>
      </trkpt>
      <trkpt lat="44.46613" lon="1.44799">
        <ele>131</ele>
        <time>2011-04-07T08:35:09</time>
      </trkpt>
      <trkpt lat="44.46609" lon="1.44796">
        <ele>131</ele>
        <time>2011-04-07T08:35:10</time>
      </trkpt>
      <trkpt lat="44.466" lon="1.4479">
        <ele>120</ele>
        <time>2011-04-07T08:35:12</time>
      </trkpt>
      <trkpt lat="44.46592" lon="1.44784">
        <ele>120</ele>
        <time>2011-04-07T08:35:14</time>
      </trkpt>
      <trkpt lat="44.46582" lon="1.44777">
        <ele>120</ele>
        <time>2011-04-07T08:35:16</time>
      </trkpt>
      <trkpt lat="44.46577" lon="1.44773">
        <ele>120</ele>
        <time>2011-04-07T08:35:17</time>
      </trkpt>
      <trkpt lat="44.46568" lon="1.44765">
        <ele>120</ele>
        <time>2011-04-07T08:35:19</time>
      </trkpt>
      <trkpt lat="44.4656" lon="1.44758">
        <ele>120</ele>
        <time>2011-04-07T08:35:21</time>
      </trkpt>
      <trkpt lat="44.46556" lon="1.44754">
        <ele>120</ele>
        <time>2011-04-07T08:35:22</time>
      </trkpt>
      <trkpt lat="44.46549" lon="1.4475">
        <ele>120</ele>
        <time>2011-04-07T08:35:24</time>
      </trkpt>
      <trkpt lat="44.46544" lon="1.44747">
        <ele>120</ele>
        <time>2011-04-07T08:35:26</time>
      </trkpt>
      <trkpt lat="44.46541" lon="1.44744">
        <ele>126</ele>
        <time>2011-04-07T08:35:27</time>
      </trkpt>
      <trkpt lat="44.46538" lon="1.44741">
        <ele>126</ele>
        <time>2011-04-07T08:35:28</time>
      </trkpt>
      <trkpt lat="44.46531" lon="1.44734">
        <ele>126</ele>
        <time>2011-04-07T08:35:30</time>
      </trkpt>
      <trkpt lat="44.46523" lon="1.44729">
        <ele>126</ele>
        <time>2011-04-07T08:35:32</time>
      </trkpt>
      <trkpt lat="44.46515" lon="1.44725">
        <ele>126</ele>
        <time>2011-04-07T08:35:34</time>
      </trkpt>
      <trkpt lat="44.46507" lon="1.44721">
        <ele>126</ele>
        <time>2011-04-07T08:35:36</time>
      </trkpt>
      <trkpt lat="44.46502" lon="1.4472">
        <ele>126</ele>
        <time>2011-04-07T08:35:37</time>
      </trkpt>
      <trkpt lat="44.46493" lon="1.44716">
        <ele>126</ele>
        <time>2011-04-07T08:35:39</time>
      </trkpt>
      <trkpt lat="44.46489" lon="1.44714">
        <ele>126</ele>
        <time>2011-04-07T08:35:40</time>
      </trkpt>
      <trkpt lat="44.4648" lon="1.4471">
        <ele>126</ele>
        <time>2011-04-07T08:35:42</time>
      </trkpt>
      <trkpt lat="44.46475" lon="1.44708">
        <ele>119</ele>
        <time>2011-04-07T08:35:43</time>
      </trkpt>
      <trkpt lat="44.46464" lon="1.44703">
        <ele>119</ele>
        <time>2011-04-07T08:35:45</time>
      </trkpt>
      <trkpt lat="44.46459" lon="1.44701">
        <ele>119</ele>
        <time>2011-04-07T08:35:46</time>
      </trkpt>
      <trkpt lat="44.46449" lon="1.44698">
        <ele>123</ele>
        <time>2011-04-07T08:35:48</time>
      </trkpt>
      <trkpt lat="44.46438" lon="1.44696">
        <ele>123</ele>
        <time>2011-04-07T08:35:50</time>
      </trkpt>
      <trkpt lat="44.46428" lon="1.44693">
        <ele>123</ele>
        <time>2011-04-07T08:35:52</time>
      </trkpt>
      <trkpt lat="44.46423" lon="1.44691">
        <ele>123</ele>
        <time>2011-04-07T08:35:53</time>
      </trkpt>
      <trkpt lat="44.46413" lon="1.44687">
        <ele>123</ele>
        <time>2011-04-07T08:35:55</time>
      </trkpt>
      <trkpt lat="44.46408" lon="1.44686">
        <ele>123</ele>
        <time>2011-04-07T08:35:56</time>
      </trkpt>
      <trkpt lat="44.46396" lon="1.44684">
        <ele>123</ele>
        <time>2011-04-07T08:35:58</time>
      </trkpt>
      <trkpt lat="44.46391" lon="1.44683">
        <ele>123</ele>
        <time>2011-04-07T08:35:59</time>
      </trkpt>
      <trkpt lat="44.46385" lon="1.44681">
        <ele>123</ele>
        <time>2011-04-07T08:36:00</time>
      </trkpt>
      <trkpt lat="44.4638" lon="1.44681">
        <ele>123</ele>
        <time>2011-04-07T08:36:01</time>
      </trkpt>
      <trkpt lat="44.46368" lon="1.44679">
        <ele>123</ele>
        <time>2011-04-07T08:36:03</time>
      </trkpt>
      <trkpt lat="44.46356" lon="1.44678">
        <ele>123</ele>
        <time>2011-04-07T08:36:05</time>
      </trkpt>
      <trkpt lat="44.4635" lon="1.44677">
        <ele>123</ele>
        <time>2011-04-07T08:36:06</time>
      </trkpt>
      <trkpt lat="44.46338" lon="1.44674">
        <ele>123</ele>
        <time>2011-04-07T08:36:08</time>
      </trkpt>
      <trkpt lat="44.46331" lon="1.44672">
        <ele>123</ele>
        <time>2011-04-07T08:36:09</time>
      </trkpt>
      <trkpt lat="44.46325" lon="1.44671">
        <ele>123</ele>
        <time>2011-04-07T08:36:10</time>
      </trkpt>
      <trkpt lat="44.46313" lon="1.44668">
        <ele>123</ele>
        <time>2011-04-07T08:36:12</time>
      </trkpt>
      <trkpt lat="44.46307" lon="1.44667">
        <ele>123</ele>
        <time>2011-04-07T08:36:13</time>
      </trkpt>
      <trkpt lat="44.46294" lon="1.44665">
        <ele>123</ele>
        <time>2011-04-07T08:36:15</time>
      </trkpt>
      <trkpt lat="44.46288" lon="1.44664">
        <ele>124</ele>
        <time>2011-04-07T08:36:16</time>
      </trkpt>
      <trkpt lat="44.46276" lon="1.44663">
        <ele>124</ele>
        <time>2011-04-07T08:36:18</time>
      </trkpt>
      <trkpt lat="44.46263" lon="1.44663">
        <ele>124</ele>
        <time>2011-04-07T08:36:20</time>
      </trkpt>
      <trkpt lat="44.46256" lon="1.44662">
        <ele>124</ele>
        <time>2011-04-07T08:36:21</time>
      </trkpt>
      <trkpt lat="44.46244" lon="1.44661">
        <ele>124</ele>
        <time>2011-04-07T08:36:23</time>
      </trkpt>
      <trkpt lat="44.46231" lon="1.44658">
        <ele>124</ele>
        <time>2011-04-07T08:36:25</time>
      </trkpt>
      <trkpt lat="44.46225" lon="1.44656">
        <ele>124</ele>
        <time>2011-04-07T08:36:26</time>
      </trkpt>
      <trkpt lat="44.46213" lon="1.44653">
        <ele>124</ele>
        <time>2011-04-07T08:36:28</time>
      </trkpt>
      <trkpt lat="44.46206" lon="1.44651">
        <ele>124</ele>
        <time>2011-04-07T08:36:29</time>
      </trkpt>
      <trkpt lat="44.46194" lon="1.44648">
        <ele>124</ele>
        <time>2011-04-07T08:36:31</time>
      </trkpt>
      <trkpt lat="44.46188" lon="1.44646">
        <ele>124</ele>
        <time>2011-04-07T08:36:32</time>
      </trkpt>
      <trkpt lat="44.46182" lon="1.44644">
        <ele>124</ele>
        <time>2011-04-07T08:36:33</time>
      </trkpt>
      <trkpt lat="44.4617" lon="1.4464">
        <ele>124</ele>
        <time>2011-04-07T08:36:35</time>
      </trkpt>
      <trkpt lat="44.46164" lon="1.44639">
        <ele>124</ele>
        <time>2011-04-07T08:36:36</time>
      </trkpt>
      <trkpt lat="44.46153" lon="1.44635">
        <ele>124</ele>
        <time>2011-04-07T08:36:38</time>
      </trkpt>
      <trkpt lat="44.46147" lon="1.44634">
        <ele>124</ele>
        <time>2011-04-07T08:36:39</time>
      </trkpt>
      <trkpt lat="44.46135" lon="1.44631">
        <ele>124</ele>
        <time>2011-04-07T08:36:41</time>
      </trkpt>
      <trkpt lat="44.46123" lon="1.44627">
        <ele>125</ele>
        <time>2011-04-07T08:36:43</time>
      </trkpt>
      <trkpt lat="44.4611" lon="1.44624">
        <ele>121</ele>
        <time>2011-04-07T08:36:45</time>
      </trkpt>
      <trkpt lat="44.46104" lon="1.44623">
        <ele>121</ele>
        <time>2011-04-07T08:36:46</time>
      </trkpt>
      <trkpt lat="44.46092" lon="1.44619">
        <ele>121</ele>
        <time>2011-04-07T08:36:48</time>
      </trkpt>
      <trkpt lat="44.4608" lon="1.44615">
        <ele>121</ele>
        <time>2011-04-07T08:36:50</time>
      </trkpt>
      <trkpt lat="44.46067" lon="1.44612">
        <ele>121</ele>
        <time>2011-04-07T08:36:52</time>
      </trkpt>
      <trkpt lat="44.46061" lon="1.4461">
        <ele>121</ele>
        <time>2011-04-07T08:36:53</time>
      </trkpt>
      <trkpt lat="44.46048" lon="1.44607">
        <ele>121</ele>
        <time>2011-04-07T08:36:55</time>
      </trkpt>
      <trkpt lat="44.46041" lon="1.44606">
        <ele>122</ele>
        <time>2011-04-07T08:36:56</time>
      </trkpt>
      <trkpt lat="44.46029" lon="1.44603">
        <ele>122</ele>
        <time>2011-04-07T08:36:58</time>
      </trkpt>
      <trkpt lat="44.46023" lon="1.44602">
        <ele>122</ele>
        <time>2011-04-07T08:36:59</time>
      </trkpt>
      <trkpt lat="44.46013" lon="1.44608">
        <ele>122</ele>
        <time>2011-04-07T08:37:01</time>
      </trkpt>
      <trkpt lat="44.46009" lon="1.44614">
        <ele>122</ele>
        <time>2011-04-07T08:37:02</time>
      </trkpt>
      <trkpt lat="44.46007" lon="1.44622">
        <ele>122</ele>
        <time>2011-04-07T08:37:03</time>
      </trkpt>
      <trkpt lat="44.46003" lon="1.44637">
        <ele>127</ele>
        <time>2011-04-07T08:37:05</time>
      </trkpt>
      <trkpt lat="44.46" lon="1.44643">
        <ele>127</ele>
        <time>2011-04-07T08:37:06</time>
      </trkpt>
      <trkpt lat="44.45997" lon="1.44649">
        <ele>127</ele>
        <time>2011-04-07T08:37:07</time>
      </trkpt>
      <trkpt lat="44.45993" lon="1.44653">
        <ele>127</ele>
        <time>2011-04-07T08:37:08</time>
      </trkpt>
      <trkpt lat="44.45985" lon="1.44656">
        <ele>127</ele>
        <time>2011-04-07T08:37:10</time>
      </trkpt>
      <trkpt lat="44.45977" lon="1.44657">
        <ele>127</ele>
        <time>2011-04-07T08:37:12</time>
      </trkpt>
      <trkpt lat="44.45969" lon="1.44658">
        <ele>127</ele>
        <time>2011-04-07T08:37:14</time>
      </trkpt>
      <trkpt lat="44.45965" lon="1.44659">
        <ele>127</ele>
        <time>2011-04-07T08:37:15</time>
      </trkpt>
      <trkpt lat="44.45957" lon="1.44661">
        <ele>125</ele>
        <time>2011-04-07T08:37:17</time>
      </trkpt>
      <trkpt lat="44.45952" lon="1.44662">
        <ele>125</ele>
        <time>2011-04-07T08:37:18</time>
      </trkpt>
      <trkpt lat="44.45948" lon="1.44663">
        <ele>125</ele>
        <time>2011-04-07T08:37:19</time>
      </trkpt>
      <trkpt lat="44.45943" lon="1.44664">
        <ele>125</ele>
        <time>2011-04-07T08:37:20</time>
      </trkpt>
      <trkpt lat="44.45933" lon="1.44666">
        <ele>125</ele>
        <time>2011-04-07T08:37:22</time>
      </trkpt>
      <trkpt lat="44.45929" lon="1.44667">
        <ele>125</ele>
        <time>2011-04-07T08:37:23</time>
      </trkpt>
      <trkpt lat="44.45924" lon="1.44668">
        <ele>125</ele>
        <time>2011-04-07T08:37:24</time>
      </trkpt>
      <trkpt lat="44.45914" lon="1.44669">
        <ele>125</ele>
        <time>2011-04-07T08:37:26</time>
      </trkpt>
      <trkpt lat="44.45909" lon="1.4467">
        <ele>125</ele>
        <time>2011-04-07T08:37:27</time>
      </trkpt>
      <trkpt lat="44.45899" lon="1.44672">
        <ele>125</ele>
        <time>2011-04-07T08:37:29</time>
      </trkpt>
      <trkpt lat="44.45893" lon="1.44673">
        <ele>125</ele>
        <time>2011-04-07T08:37:30</time>
      </trkpt>
      <trkpt lat="44.45883" lon="1.44676">
        <ele>125</ele>
        <time>2011-04-07T08:37:32</time>
      </trkpt>
      <trkpt lat="44.45877" lon="1.44677">
        <ele>125</ele>
        <time>2011-04-07T08:37:33</time>
      </trkpt>
      <trkpt lat="44.45871" lon="1.44679">
        <ele>123</ele>
        <time>2011-04-07T08:37:34</time>
      </trkpt>
      <trkpt lat="44.45859" lon="1.44682">
        <ele>123</ele>
        <time>2011-04-07T08:37:36</time>
      </trkpt>
      <trkpt lat="44.45845" lon="1.44688">
        <ele>123</ele>
        <time>2011-04-07T08:37:38</time>
      </trkpt>
      <trkpt lat="44.45839" lon="1.4469">
        <ele>123</ele>
        <time>2011-04-07T08:37:39</time>
      </trkpt>
      <trkpt lat="44.45832" lon="1.44692">
        <ele>123</ele>
        <time>2011-04-07T08:37:40</time>
      </trkpt>
      <trkpt lat="44.4582" lon="1.44696">
        <ele>123</ele>
        <time>2011-04-07T08:37:42</time>
      </trkpt>
      <trkpt lat="44.45808" lon="1.44699">
        <ele>123</ele>
        <time>2011-04-07T08:37:44</time>
      </trkpt>
      <trkpt lat="44.45803" lon="1.44701">
        <ele>123</ele>
        <time>2011-04-07T08:37:45</time>
      </trkpt>
      <trkpt lat="44.45792" lon="1.44703">
        <ele>123</ele>
        <time>2011-04-07T08:37:47</time>
      </trkpt>
      <trkpt lat="44.4578" lon="1.44701">
        <ele>119</ele>
        <time>2011-04-07T08:37:49</time>
      </trkpt>
      <trkpt lat="44.45775" lon="1.447">
        <ele>119</ele>
        <time>2011-04-07T08:37:50</time>
      </trkpt>
      <trkpt lat="44.45762" lon="1.44697">
        <ele>119</ele>
        <time>2011-04-07T08:37:52</time>
      </trkpt>
      <trkpt lat="44.45756" lon="1.44695">
        <ele>119</ele>
        <time>2011-04-07T08:37:53</time>
      </trkpt>
      <trkpt lat="44.45749" lon="1.44694">
        <ele>119</ele>
        <time>2011-04-07T08:37:54</time>
      </trkpt>
      <trkpt lat="44.45735" lon="1.44694">
        <ele>119</ele>
        <time>2011-04-07T08:37:56</time>
      </trkpt>
      <trkpt lat="44.45728" lon="1.44695">
        <ele>119</ele>
        <time>2011-04-07T08:37:57</time>
      </trkpt>
      <trkpt lat="44.45713" lon="1.44696">
        <ele>119</ele>
        <time>2011-04-07T08:37:59</time>
      </trkpt>
      <trkpt lat="44.45699" lon="1.447">
        <ele>119</ele>
        <time>2011-04-07T08:38:01</time>
      </trkpt>
      <trkpt lat="44.45693" lon="1.44701">
        <ele>119</ele>
        <time>2011-04-07T08:38:02</time>
      </trkpt>
      <trkpt lat="44.45686" lon="1.44702">
        <ele>119</ele>
        <time>2011-04-07T08:38:03</time>
      </trkpt>
      <trkpt lat="44.45673" lon="1.44703">
        <ele>119</ele>
        <time>2011-04-07T08:38:05</time>
      </trkpt>
      <trkpt lat="44.4566" lon="1.44703">
        <ele>119</ele>
        <time>2011-04-07T08:38:07</time>
      </trkpt>
      <trkpt lat="44.45653" lon="1.44703">
        <ele>119</ele>
        <time>2011-04-07T08:38:08</time>
      </trkpt>
      <trkpt lat="44.45647" lon="1.44702">
        <ele>119</ele>
        <time>2011-04-07T08:38:09</time>
      </trkpt>
      <trkpt lat="44.45637" lon="1.44692">
        <ele>119</ele>
        <time>2011-04-07T08:38:11</time>
      </trkpt>
      <trkpt lat="44.45635" lon="1.44685">
        <ele>119</ele>
        <time>2011-04-07T08:38:12</time>
      </trkpt>
      <trkpt lat="44.45634" lon="1.44678">
        <ele>119</ele>
        <time>2011-04-07T08:38:13</time>
      </trkpt>
      <trkpt lat="44.45633" lon="1.44669">
        <ele>119</ele>
        <time>2011-04-07T08:38:14</time>
      </trkpt>
      <trkpt lat="44.45631" lon="1.44652">
        <ele>119</ele>
        <time>2011-04-07T08:38:16</time>
      </trkpt>
      <trkpt lat="44.4563" lon="1.44644">
        <ele>119</ele>
        <time>2011-04-07T08:38:17</time>
      </trkpt>
      <trkpt lat="44.45628" lon="1.44627">
        <ele>119</ele>
        <time>2011-04-07T08:38:19</time>
      </trkpt>
      <trkpt lat="44.45627" lon="1.4461">
        <ele>119</ele>
        <time>2011-04-07T08:38:21</time>
      </trkpt>
      <trkpt lat="44.45626" lon="1.44601">
        <ele>119</ele>
        <time>2011-04-07T08:38:22</time>
      </trkpt>
      <trkpt lat="44.45624" lon="1.44583">
        <ele>119</ele>
        <time>2011-04-07T08:38:24</time>
      </trkpt>
      <trkpt lat="44.45623" lon="1.44574">
        <ele>119</ele>
        <time>2011-04-07T08:38:25</time>
      </trkpt>
      <trkpt lat="44.45621" lon="1.44556">
        <ele>119</ele>
        <time>2011-04-07T08:38:27</time>
      </trkpt>
      <trkpt lat="44.4562" lon="1.44547">
        <ele>119</ele>
        <time>2011-04-07T08:38:28</time>
      </trkpt>
      <trkpt lat="44.45618" lon="1.4453">
        <ele>119</ele>
        <time>2011-04-07T08:38:30</time>
      </trkpt>
      <trkpt lat="44.45617" lon="1.44521">
        <ele>119</ele>
        <time>2011-04-07T08:38:31</time>
      </trkpt>
      <trkpt lat="44.45615" lon="1.44503">
        <ele>119</ele>
        <time>2011-04-07T08:38:33</time>
      </trkpt>
      <trkpt lat="44.45614" lon="1.44494">
        <ele>119</ele>
        <time>2011-04-07T08:38:34</time>
      </trkpt>
      <trkpt lat="44.45613" lon="1.44485">
        <ele>119</ele>
        <time>2011-04-07T08:38:35</time>
      </trkpt>
      <trkpt lat="44.45612" lon="1.44466">
        <ele>119</ele>
        <time>2011-04-07T08:38:37</time>
      </trkpt>
      <trkpt lat="44.45611" lon="1.44457">
        <ele>118</ele>
        <time>2011-04-07T08:38:38</time>
      </trkpt>
      <trkpt lat="44.45609" lon="1.4444">
        <ele>118</ele>
        <time>2011-04-07T08:38:40</time>
      </trkpt>
      <trkpt lat="44.45609" lon="1.44431">
        <ele>118</ele>
        <time>2011-04-07T08:38:41</time>
      </trkpt>
      <trkpt lat="44.45608" lon="1.44415">
        <ele>118</ele>
        <time>2011-04-07T08:38:43</time>
      </trkpt>
      <trkpt lat="44.45607" lon="1.44407">
        <ele>118</ele>
        <time>2011-04-07T08:38:44</time>
      </trkpt>
      <trkpt lat="44.45607" lon="1.44399">
        <ele>118</ele>
        <time>2011-04-07T08:38:45</time>
      </trkpt>
      <trkpt lat="44.45605" lon="1.44383">
        <ele>118</ele>
        <time>2011-04-07T08:38:47</time>
      </trkpt>
      <trkpt lat="44.45604" lon="1.44375">
        <ele>118</ele>
        <time>2011-04-07T08:38:48</time>
      </trkpt>
      <trkpt lat="44.45602" lon="1.44361">
        <ele>117</ele>
        <time>2011-04-07T08:38:50</time>
      </trkpt>
      <trkpt lat="44.45601" lon="1.44353">
        <ele>117</ele>
        <time>2011-04-07T08:38:51</time>
      </trkpt>
      <trkpt lat="44.45601" lon="1.44345">
        <ele>117</ele>
        <time>2011-04-07T08:38:52</time>
      </trkpt>
      <trkpt lat="44.45593" lon="1.44334">
        <ele>117</ele>
        <time>2011-04-07T08:38:54</time>
      </trkpt>
      <trkpt lat="44.45584" lon="1.44333">
        <ele>117</ele>
        <time>2011-04-07T08:38:56</time>
      </trkpt>
      <trkpt lat="44.45573" lon="1.44335">
        <ele>117</ele>
        <time>2011-04-07T08:38:58</time>
      </trkpt>
      <trkpt lat="44.45568" lon="1.44336">
        <ele>117</ele>
        <time>2011-04-07T08:38:59</time>
      </trkpt>
      <trkpt lat="44.45557" lon="1.44339">
        <ele>117</ele>
        <time>2011-04-07T08:39:01</time>
      </trkpt>
      <trkpt lat="44.45551" lon="1.4434">
        <ele>117</ele>
        <time>2011-04-07T08:39:02</time>
      </trkpt>
      <trkpt lat="44.45545" lon="1.44341">
        <ele>117</ele>
        <time>2011-04-07T08:39:03</time>
      </trkpt>
      <trkpt lat="44.45534" lon="1.44342">
        <ele>118</ele>
        <time>2011-04-07T08:39:05</time>
      </trkpt>
      <trkpt lat="44.45522" lon="1.44342">
        <ele>118</ele>
        <time>2011-04-07T08:39:07</time>
      </trkpt>
      <trkpt lat="44.45516" lon="1.44341">
        <ele>118</ele>
        <time>2011-04-07T08:39:08</time>
      </trkpt>
      <trkpt lat="44.45504" lon="1.44338">
        <ele>118</ele>
        <time>2011-04-07T08:39:10</time>
      </trkpt>
      <trkpt lat="44.45493" lon="1.44334">
        <ele>118</ele>
        <time>2011-04-07T08:39:12</time>
      </trkpt>
      <trkpt lat="44.45482" lon="1.4433">
        <ele>118</ele>
        <time>2011-04-07T08:39:14</time>
      </trkpt>
      <trkpt lat="44.45469" lon="1.44326">
        <ele>118</ele>
        <time>2011-04-07T08:39:16</time>
      </trkpt>
      <trkpt lat="44.45457" lon="1.44322">
        <ele>118</ele>
        <time>2011-04-07T08:39:18</time>
      </trkpt>
      <trkpt lat="44.45445" lon="1.44318">
        <ele>118</ele>
        <time>2011-04-07T08:39:20</time>
      </trkpt>
      <trkpt lat="44.45439" lon="1.44317">
        <ele>118</ele>
        <time>2011-04-07T08:39:21</time>
      </trkpt>
      <trkpt lat="44.45432" lon="1.44316">
        <ele>118</ele>
        <time>2011-04-07T08:39:22</time>
      </trkpt>
      <trkpt lat="44.45419" lon="1.44315">
        <ele>118</ele>
        <time>2011-04-07T08:39:24</time>
      </trkpt>
      <trkpt lat="44.45413" lon="1.44315">
        <ele>118</ele>
        <time>2011-04-07T08:39:25</time>
      </trkpt>
      <trkpt lat="44.45399" lon="1.44315">
        <ele>118</ele>
        <time>2011-04-07T08:39:27</time>
      </trkpt>
      <trkpt lat="44.45393" lon="1.44316">
        <ele>118</ele>
        <time>2011-04-07T08:39:28</time>
      </trkpt>
      <trkpt lat="44.4538" lon="1.44319">
        <ele>118</ele>
        <time>2011-04-07T08:39:30</time>
      </trkpt>
      <trkpt lat="44.45374" lon="1.44321">
        <ele>117</ele>
        <time>2011-04-07T08:39:31</time>
      </trkpt>
      <trkpt lat="44.45363" lon="1.44324">
        <ele>117</ele>
        <time>2011-04-07T08:39:33</time>
      </trkpt>
      <trkpt lat="44.4535" lon="1.44327">
        <ele>117</ele>
        <time>2011-04-07T08:39:35</time>
      </trkpt>
      <trkpt lat="44.45337" lon="1.4433">
        <ele>117</ele>
        <time>2011-04-07T08:39:37</time>
      </trkpt>
      <trkpt lat="44.45331" lon="1.44332">
        <ele>117</ele>
        <time>2011-04-07T08:39:38</time>
      </trkpt>
      <trkpt lat="44.45325" lon="1.44333">
        <ele>117</ele>
        <time>2011-04-07T08:39:39</time>
      </trkpt>
      <trkpt lat="44.45312" lon="1.44334">
        <ele>117</ele>
        <time>2011-04-07T08:39:41</time>
      </trkpt>
      <trkpt lat="44.453" lon="1.44334">
        <ele>117</ele>
        <time>2011-04-07T08:39:43</time>
      </trkpt>
      <trkpt lat="44.45294" lon="1.44334">
        <ele>117</ele>
        <time>2011-04-07T08:39:44</time>
      </trkpt>
      <trkpt lat="44.45287" lon="1.44333">
        <ele>117</ele>
        <time>2011-04-07T08:39:45</time>
      </trkpt>
      <trkpt lat="44.45274" lon="1.44332">
        <ele>117</ele>
        <time>2011-04-07T08:39:47</time>
      </trkpt>
      <trkpt lat="44.45262" lon="1.44329">
        <ele>117</ele>
        <time>2011-04-07T08:39:49</time>
      </trkpt>
      <trkpt lat="44.45256" lon="1.44328">
        <ele>117</ele>
        <time>2011-04-07T08:39:50</time>
      </trkpt>
      <trkpt lat="44.4525" lon="1.44328">
        <ele>117</ele>
        <time>2011-04-07T08:39:51</time>
      </trkpt>
      <trkpt lat="44.45238" lon="1.4433">
        <ele>117</ele>
        <time>2011-04-07T08:39:53</time>
      </trkpt>
      <trkpt lat="44.45228" lon="1.44336">
        <ele>117</ele>
        <time>2011-04-07T08:39:55</time>
      </trkpt>
      <trkpt lat="44.45218" lon="1.44343">
        <ele>117</ele>
        <time>2011-04-07T08:39:57</time>
      </trkpt>
      <trkpt lat="44.45213" lon="1.44347">
        <ele>117</ele>
        <time>2011-04-07T08:39:58</time>
      </trkpt>
      <trkpt lat="44.45204" lon="1.44355">
        <ele>119</ele>
        <time>2011-04-07T08:40:00</time>
      </trkpt>
      <trkpt lat="44.45196" lon="1.44365">
        <ele>119</ele>
        <time>2011-04-07T08:40:02</time>
      </trkpt>
      <trkpt lat="44.45191" lon="1.4437">
        <ele>119</ele>
        <time>2011-04-07T08:40:03</time>
      </trkpt>
      <trkpt lat="44.45181" lon="1.44379">
        <ele>119</ele>
        <time>2011-04-07T08:40:05</time>
      </trkpt>
      <trkpt lat="44.45171" lon="1.44388">
        <ele>119</ele>
        <time>2011-04-07T08:40:07</time>
      </trkpt>
      <trkpt lat="44.4516" lon="1.44395">
        <ele>119</ele>
        <time>2011-04-07T08:40:09</time>
      </trkpt>
      <trkpt lat="44.45149" lon="1.444">
        <ele>119</ele>
        <time>2011-04-07T08:40:11</time>
      </trkpt>
      <trkpt lat="44.45143" lon="1.44403">
        <ele>119</ele>
        <time>2011-04-07T08:40:12</time>
      </trkpt>
      <trkpt lat="44.45137" lon="1.44405">
        <ele>119</ele>
        <time>2011-04-07T08:40:13</time>
      </trkpt>
      <trkpt lat="44.45131" lon="1.44407">
        <ele>119</ele>
        <time>2011-04-07T08:40:14</time>
      </trkpt>
      <trkpt lat="44.45124" lon="1.44409">
        <ele>118</ele>
        <time>2011-04-07T08:40:15</time>
      </trkpt>
      <trkpt lat="44.45112" lon="1.44412">
        <ele>118</ele>
        <time>2011-04-07T08:40:17</time>
      </trkpt>
      <trkpt lat="44.451" lon="1.44415">
        <ele>118</ele>
        <time>2011-04-07T08:40:19</time>
      </trkpt>
      <trkpt lat="44.45094" lon="1.44417">
        <ele>118</ele>
        <time>2011-04-07T08:40:20</time>
      </trkpt>
      <trkpt lat="44.45084" lon="1.44422">
        <ele>118</ele>
        <time>2011-04-07T08:40:22</time>
      </trkpt>
      <trkpt lat="44.45073" lon="1.44427">
        <ele>118</ele>
        <time>2011-04-07T08:40:24</time>
      </trkpt>
      <trkpt lat="44.45062" lon="1.44432">
        <ele>118</ele>
        <time>2011-04-07T08:40:26</time>
      </trkpt>
      <trkpt lat="44.45056" lon="1.44435">
        <ele>118</ele>
        <time>2011-04-07T08:40:27</time>
      </trkpt>
      <trkpt lat="44.4505" lon="1.44438">
        <ele>118</ele>
        <time>2011-04-07T08:40:28</time>
      </trkpt>
      <trkpt lat="44.45038" lon="1.44443">
        <ele>117</ele>
        <time>2011-04-07T08:40:30</time>
      </trkpt>
      <trkpt lat="44.45026" lon="1.44448">
        <ele>117</ele>
        <time>2011-04-07T08:40:32</time>
      </trkpt>
      <trkpt lat="44.45016" lon="1.44452">
        <ele>117</ele>
        <time>2011-04-07T08:40:34</time>
      </trkpt>
      <trkpt lat="44.45011" lon="1.44453">
        <ele>117</ele>
        <time>2011-04-07T08:40:35</time>
      </trkpt>
      <trkpt lat="44.45004" lon="1.44459">
        <ele>118</ele>
        <time>2011-04-07T08:40:37</time>
      </trkpt>
      <trkpt lat="44.45001" lon="1.44462">
        <ele>118</ele>
        <time>2011-04-07T08:40:38</time>
      </trkpt>
      <trkpt lat="44.44994" lon="1.44466">
        <ele>118</ele>
        <time>2011-04-07T08:40:40</time>
      </trkpt>
      <trkpt lat="44.44991" lon="1.44467">
        <ele>118</ele>
        <time>2011-04-07T08:40:41</time>
      </trkpt>
      <trkpt lat="44.44987" lon="1.44469">
        <ele>118</ele>
        <time>2011-04-07T08:40:42</time>
      </trkpt>
      <trkpt lat="44.44983" lon="1.4447">
        <ele>118</ele>
        <time>2011-04-07T08:40:43</time>
      </trkpt>
      <trkpt lat="44.44975" lon="1.44473">
        <ele>118</ele>
        <time>2011-04-07T08:40:45</time>
      </trkpt>
      <trkpt lat="44.44967" lon="1.44476">
        <ele>118</ele>
        <time>2011-04-07T08:40:47</time>
      </trkpt>
      <trkpt lat="44.44957" lon="1.44479">
        <ele>117</ele>
        <time>2011-04-07T08:40:49</time>
      </trkpt>
      <trkpt lat="44.44953" lon="1.4448">
        <ele>117</ele>
        <time>2011-04-07T08:40:50</time>
      </trkpt>
      <trkpt lat="44.44944" lon="1.44484">
        <ele>117</ele>
        <time>2011-04-07T08:40:52</time>
      </trkpt>
      <trkpt lat="44.44937" lon="1.4449">
        <ele>117</ele>
        <time>2011-04-07T08:40:54</time>
      </trkpt>
      <trkpt lat="44.44934" lon="1.44493">
        <ele>117</ele>
        <time>2011-04-07T08:40:55</time>
      </trkpt>
      <trkpt lat="44.44927" lon="1.44497">
        <ele>117</ele>
        <time>2011-04-07T08:40:57</time>
      </trkpt>
      <trkpt lat="44.44921" lon="1.44501">
        <ele>117</ele>
        <time>2011-04-07T08:40:59</time>
      </trkpt>
      <trkpt lat="44.44917" lon="1.44502">
        <ele>117</ele>
        <time>2011-04-07T08:41:01</time>
      </trkpt>
      <trkpt lat="44.44914" lon="1.44503">
        <ele>117</ele>
        <time>2011-04-07T08:41:03</time>
      </trkpt>
      <trkpt lat="44.44911" lon="1.44505">
        <ele>117</ele>
        <time>2011-04-07T08:41:05</time>
      </trkpt>
      <trkpt lat="44.4491" lon="1.44512">
        <ele>117</ele>
        <time>2011-04-07T08:41:07</time>
      </trkpt>
      <trkpt lat="44.44909" lon="1.44517">
        <ele>117</ele>
        <time>2011-04-07T08:41:08</time>
      </trkpt>
      <trkpt lat="44.44909" lon="1.44522">
        <ele>117</ele>
        <time>2011-04-07T08:41:09</time>
      </trkpt>
      <trkpt lat="44.44904" lon="1.44532">
        <ele>117</ele>
        <time>2011-04-07T08:41:11</time>
      </trkpt>
      <trkpt lat="44.44898" lon="1.44535">
        <ele>117</ele>
        <time>2011-04-07T08:41:12</time>
      </trkpt>
      <trkpt lat="44.44886" lon="1.4454">
        <ele>117</ele>
        <time>2011-04-07T08:41:14</time>
      </trkpt>
      <trkpt lat="44.44873" lon="1.44544">
        <ele>119</ele>
        <time>2011-04-07T08:41:16</time>
      </trkpt>
      <trkpt lat="44.44866" lon="1.44547">
        <ele>119</ele>
        <time>2011-04-07T08:41:17</time>
      </trkpt>
      <trkpt lat="44.4486" lon="1.4455">
        <ele>119</ele>
        <time>2011-04-07T08:41:18</time>
      </trkpt>
      <trkpt lat="44.44847" lon="1.44557">
        <ele>119</ele>
        <time>2011-04-07T08:41:20</time>
      </trkpt>
      <trkpt lat="44.44836" lon="1.44565">
        <ele>119</ele>
        <time>2011-04-07T08:41:22</time>
      </trkpt>
      <trkpt lat="44.44825" lon="1.44573">
        <ele>119</ele>
        <time>2011-04-07T08:41:24</time>
      </trkpt>
      <trkpt lat="44.4482" lon="1.44576">
        <ele>119</ele>
        <time>2011-04-07T08:41:25</time>
      </trkpt>
      <trkpt lat="44.44809" lon="1.44583">
        <ele>119</ele>
        <time>2011-04-07T08:41:27</time>
      </trkpt>
      <trkpt lat="44.44799" lon="1.44591">
        <ele>119</ele>
        <time>2011-04-07T08:41:29</time>
      </trkpt>
      <trkpt lat="44.4479" lon="1.44599">
        <ele>120</ele>
        <time>2011-04-07T08:41:31</time>
      </trkpt>
      <trkpt lat="44.4478" lon="1.44607">
        <ele>120</ele>
        <time>2011-04-07T08:41:33</time>
      </trkpt>
      <trkpt lat="44.4477" lon="1.44614">
        <ele>120</ele>
        <time>2011-04-07T08:41:35</time>
      </trkpt>
      <trkpt lat="44.44761" lon="1.44622">
        <ele>120</ele>
        <time>2011-04-07T08:41:37</time>
      </trkpt>
      <trkpt lat="44.44756" lon="1.44626">
        <ele>120</ele>
        <time>2011-04-07T08:41:38</time>
      </trkpt>
      <trkpt lat="44.44748" lon="1.44634">
        <ele>120</ele>
        <time>2011-04-07T08:41:40</time>
      </trkpt>
      <trkpt lat="44.44743" lon="1.44638">
        <ele>120</ele>
        <time>2011-04-07T08:41:41</time>
      </trkpt>
      <trkpt lat="44.44733" lon="1.44645">
        <ele>120</ele>
        <time>2011-04-07T08:41:43</time>
      </trkpt>
      <trkpt lat="44.44728" lon="1.44649">
        <ele>120</ele>
        <time>2011-04-07T08:41:44</time>
      </trkpt>
      <trkpt lat="44.44718" lon="1.44657">
        <ele>120</ele>
        <time>2011-04-07T08:41:46</time>
      </trkpt>
      <trkpt lat="44.44713" lon="1.44661">
        <ele>120</ele>
        <time>2011-04-07T08:41:47</time>
      </trkpt>
      <trkpt lat="44.44708" lon="1.44665">
        <ele>118</ele>
        <time>2011-04-07T08:41:48</time>
      </trkpt>
      <trkpt lat="44.44703" lon="1.4467">
        <ele>118</ele>
        <time>2011-04-07T08:41:49</time>
      </trkpt>
      <trkpt lat="44.44692" lon="1.44679">
        <ele>118</ele>
        <time>2011-04-07T08:41:51</time>
      </trkpt>
      <trkpt lat="44.44688" lon="1.44683">
        <ele>118</ele>
        <time>2011-04-07T08:41:52</time>
      </trkpt>
      <trkpt lat="44.44678" lon="1.44692">
        <ele>118</ele>
        <time>2011-04-07T08:41:54</time>
      </trkpt>
      <trkpt lat="44.44673" lon="1.44696">
        <ele>118</ele>
        <time>2011-04-07T08:41:55</time>
      </trkpt>
      <trkpt lat="44.44663" lon="1.44705">
        <ele>118</ele>
        <time>2011-04-07T08:41:57</time>
      </trkpt>
      <trkpt lat="44.44659" lon="1.44709">
        <ele>121</ele>
        <time>2011-04-07T08:41:58</time>
      </trkpt>
      <trkpt lat="44.44654" lon="1.44714">
        <ele>121</ele>
        <time>2011-04-07T08:41:59</time>
      </trkpt>
      <trkpt lat="44.44644" lon="1.44722">
        <ele>121</ele>
        <time>2011-04-07T08:42:01</time>
      </trkpt>
      <trkpt lat="44.4464" lon="1.44727">
        <ele>121</ele>
        <time>2011-04-07T08:42:02</time>
      </trkpt>
      <trkpt lat="44.44635" lon="1.44731">
        <ele>121</ele>
        <time>2011-04-07T08:42:03</time>
      </trkpt>
      <trkpt lat="44.44632" lon="1.44734">
        <ele>121</ele>
        <time>2011-04-07T08:42:04</time>
      </trkpt>
      <trkpt lat="44.44624" lon="1.44742">
        <ele>117</ele>
        <time>2011-04-07T08:42:06</time>
      </trkpt>
      <trkpt lat="44.44619" lon="1.44746">
        <ele>117</ele>
        <time>2011-04-07T08:42:07</time>
      </trkpt>
      <trkpt lat="44.44609" lon="1.44755">
        <ele>117</ele>
        <time>2011-04-07T08:42:09</time>
      </trkpt>
      <trkpt lat="44.44599" lon="1.44764">
        <ele>117</ele>
        <time>2011-04-07T08:42:11</time>
      </trkpt>
      <trkpt lat="44.44589" lon="1.44774">
        <ele>117</ele>
        <time>2011-04-07T08:42:13</time>
      </trkpt>
      <trkpt lat="44.44578" lon="1.44782">
        <ele>117</ele>
        <time>2011-04-07T08:42:15</time>
      </trkpt>
      <trkpt lat="44.44572" lon="1.44785">
        <ele>117</ele>
        <time>2011-04-07T08:42:16</time>
      </trkpt>
      <trkpt lat="44.4456" lon="1.44788">
        <ele>117</ele>
        <time>2011-04-07T08:42:18</time>
      </trkpt>
      <trkpt lat="44.44554" lon="1.44788">
        <ele>117</ele>
        <time>2011-04-07T08:42:19</time>
      </trkpt>
      <trkpt lat="44.44541" lon="1.44785">
        <ele>117</ele>
        <time>2011-04-07T08:42:21</time>
      </trkpt>
      <trkpt lat="44.44528" lon="1.4478">
        <ele>117</ele>
        <time>2011-04-07T08:42:23</time>
      </trkpt>
      <trkpt lat="44.44522" lon="1.44777">
        <ele>117</ele>
        <time>2011-04-07T08:42:24</time>
      </trkpt>
      <trkpt lat="44.4451" lon="1.4477">
        <ele>117</ele>
        <time>2011-04-07T08:42:26</time>
      </trkpt>
      <trkpt lat="44.44504" lon="1.44766">
        <ele>117</ele>
        <time>2011-04-07T08:42:27</time>
      </trkpt>
      <trkpt lat="44.44499" lon="1.44762">
        <ele>117</ele>
        <time>2011-04-07T08:42:28</time>
      </trkpt>
      <trkpt lat="44.44494" lon="1.44757">
        <ele>117</ele>
        <time>2011-04-07T08:42:29</time>
      </trkpt>
      <trkpt lat="44.44482" lon="1.44748">
        <ele>117</ele>
        <time>2011-04-07T08:42:31</time>
      </trkpt>
      <trkpt lat="44.44476" lon="1.44744">
        <ele>117</ele>
        <time>2011-04-07T08:42:32</time>
      </trkpt>
      <trkpt lat="44.44464" lon="1.44737">
        <ele>117</ele>
        <time>2011-04-07T08:42:34</time>
      </trkpt>
      <trkpt lat="44.44458" lon="1.44734">
        <ele>120</ele>
        <time>2011-04-07T08:42:35</time>
      </trkpt>
      <trkpt lat="44.44452" lon="1.44731">
        <ele>120</ele>
        <time>2011-04-07T08:42:36</time>
      </trkpt>
      <trkpt lat="44.4444" lon="1.44726">
        <ele>120</ele>
        <time>2011-04-07T08:42:38</time>
      </trkpt>
      <trkpt lat="44.44428" lon="1.44722">
        <ele>120</ele>
        <time>2011-04-07T08:42:40</time>
      </trkpt>
      <trkpt lat="44.44422" lon="1.4472">
        <ele>120</ele>
        <time>2011-04-07T08:42:41</time>
      </trkpt>
      <trkpt lat="44.44416" lon="1.44718">
        <ele>120</ele>
        <time>2011-04-07T08:42:42</time>
      </trkpt>
      <trkpt lat="44.44404" lon="1.44714">
        <ele>120</ele>
        <time>2011-04-07T08:42:44</time>
      </trkpt>
      <trkpt lat="44.44399" lon="1.44713">
        <ele>120</ele>
        <time>2011-04-07T08:42:45</time>
      </trkpt>
      <trkpt lat="44.44388" lon="1.44709">
        <ele>120</ele>
        <time>2011-04-07T08:42:47</time>
      </trkpt>
      <trkpt lat="44.44383" lon="1.44708">
        <ele>115</ele>
        <time>2011-04-07T08:42:48</time>
      </trkpt>
      <trkpt lat="44.44378" lon="1.44706">
        <ele>115</ele>
        <time>2011-04-07T08:42:49</time>
      </trkpt>
      <trkpt lat="44.44367" lon="1.44703">
        <ele>125</ele>
        <time>2011-04-07T08:42:51</time>
      </trkpt>
      <trkpt lat="44.44362" lon="1.44699">
        <ele>125</ele>
        <time>2011-04-07T08:42:52</time>
      </trkpt>
      <trkpt lat="44.44356" lon="1.44695">
        <ele>125</ele>
        <time>2011-04-07T08:42:53</time>
      </trkpt>
      <trkpt lat="44.44346" lon="1.44687">
        <ele>125</ele>
        <time>2011-04-07T08:42:55</time>
      </trkpt>
      <trkpt lat="44.44336" lon="1.44676">
        <ele>125</ele>
        <time>2011-04-07T08:42:57</time>
      </trkpt>
      <trkpt lat="44.44331" lon="1.44671">
        <ele>125</ele>
        <time>2011-04-07T08:42:58</time>
      </trkpt>
      <trkpt lat="44.44321" lon="1.4466">
        <ele>125</ele>
        <time>2011-04-07T08:43:00</time>
      </trkpt>
      <trkpt lat="44.44311" lon="1.44648">
        <ele>125</ele>
        <time>2011-04-07T08:43:02</time>
      </trkpt>
      <trkpt lat="44.44307" lon="1.44642">
        <ele>125</ele>
        <time>2011-04-07T08:43:03</time>
      </trkpt>
      <trkpt lat="44.44298" lon="1.4463">
        <ele>125</ele>
        <time>2011-04-07T08:43:05</time>
      </trkpt>
      <trkpt lat="44.44289" lon="1.44617">
        <ele>131</ele>
        <time>2011-04-07T08:43:07</time>
      </trkpt>
      <trkpt lat="44.44285" lon="1.44611">
        <ele>131</ele>
        <time>2011-04-07T08:43:08</time>
      </trkpt>
      <trkpt lat="44.44275" lon="1.44599">
        <ele>131</ele>
        <time>2011-04-07T08:43:10</time>
      </trkpt>
      <trkpt lat="44.4427" lon="1.44593">
        <ele>131</ele>
        <time>2011-04-07T08:43:11</time>
      </trkpt>
      <trkpt lat="44.44265" lon="1.44587">
        <ele>131</ele>
        <time>2011-04-07T08:43:12</time>
      </trkpt>
      <trkpt lat="44.44253" lon="1.44576">
        <ele>131</ele>
        <time>2011-04-07T08:43:14</time>
      </trkpt>
      <trkpt lat="44.44248" lon="1.44571">
        <ele>131</ele>
        <time>2011-04-07T08:43:15</time>
      </trkpt>
      <trkpt lat="44.44237" lon="1.44559">
        <ele>131</ele>
        <time>2011-04-07T08:43:17</time>
      </trkpt>
      <trkpt lat="44.44232" lon="1.44553">
        <ele>131</ele>
        <time>2011-04-07T08:43:18</time>
      </trkpt>
      <trkpt lat="44.44222" lon="1.44542">
        <ele>131</ele>
        <time>2011-04-07T08:43:20</time>
      </trkpt>
      <trkpt lat="44.44217" lon="1.44537">
        <ele>121</ele>
        <time>2011-04-07T08:43:21</time>
      </trkpt>
      <trkpt lat="44.44212" lon="1.44532">
        <ele>121</ele>
        <time>2011-04-07T08:43:22</time>
      </trkpt>
      <trkpt lat="44.44202" lon="1.44523">
        <ele>129</ele>
        <time>2011-04-07T08:43:24</time>
      </trkpt>
      <trkpt lat="44.44197" lon="1.44517">
        <ele>129</ele>
        <time>2011-04-07T08:43:25</time>
      </trkpt>
      <trkpt lat="44.44187" lon="1.44505">
        <ele>129</ele>
        <time>2011-04-07T08:43:27</time>
      </trkpt>
      <trkpt lat="44.44187" lon="1.44497">
        <ele>129</ele>
        <time>2011-04-07T08:43:28</time>
      </trkpt>
      <trkpt lat="44.44181" lon="1.44481">
        <ele>129</ele>
        <time>2011-04-07T08:43:30</time>
      </trkpt>
      <trkpt lat="44.44171" lon="1.44467">
        <ele>129</ele>
        <time>2011-04-07T08:43:32</time>
      </trkpt>
      <trkpt lat="44.44165" lon="1.4446">
        <ele>129</ele>
        <time>2011-04-07T08:43:33</time>
      </trkpt>
      <trkpt lat="44.4416" lon="1.44454">
        <ele>121</ele>
        <time>2011-04-07T08:43:34</time>
      </trkpt>
      <trkpt lat="44.44149" lon="1.44442">
        <ele>121</ele>
        <time>2011-04-07T08:43:36</time>
      </trkpt>
      <trkpt lat="44.4414" lon="1.44429">
        <ele>121</ele>
        <time>2011-04-07T08:43:38</time>
      </trkpt>
      <trkpt lat="44.44135" lon="1.44421">
        <ele>121</ele>
        <time>2011-04-07T08:43:39</time>
      </trkpt>
      <trkpt lat="44.44131" lon="1.44413">
        <ele>121</ele>
        <time>2011-04-07T08:43:40</time>
      </trkpt>
      <trkpt lat="44.44125" lon="1.44398">
        <ele>137</ele>
        <time>2011-04-07T08:43:42</time>
      </trkpt>
      <trkpt lat="44.44118" lon="1.44383">
        <ele>137</ele>
        <time>2011-04-07T08:43:44</time>
      </trkpt>
      <trkpt lat="44.44115" lon="1.44375">
        <ele>123</ele>
        <time>2011-04-07T08:43:45</time>
      </trkpt>
      <trkpt lat="44.44111" lon="1.44366">
        <ele>123</ele>
        <time>2011-04-07T08:43:46</time>
      </trkpt>
      <trkpt lat="44.44106" lon="1.44349">
        <ele>123</ele>
        <time>2011-04-07T08:43:48</time>
      </trkpt>
      <trkpt lat="44.44104" lon="1.44341">
        <ele>123</ele>
        <time>2011-04-07T08:43:49</time>
      </trkpt>
      <trkpt lat="44.441" lon="1.44325">
        <ele>123</ele>
        <time>2011-04-07T08:43:51</time>
      </trkpt>
      <trkpt lat="44.44098" lon="1.44316">
        <ele>123</ele>
        <time>2011-04-07T08:43:52</time>
      </trkpt>
      <trkpt lat="44.44097" lon="1.44299">
        <ele>123</ele>
        <time>2011-04-07T08:43:54</time>
      </trkpt>
      <trkpt lat="44.44092" lon="1.44294">
        <ele>123</ele>
        <time>2011-04-07T08:43:55</time>
      </trkpt>
      <trkpt lat="44.44084" lon="1.4428">
        <ele>118</ele>
        <time>2011-04-07T08:43:57</time>
      </trkpt>
      <trkpt lat="44.44077" lon="1.44263">
        <ele>118</ele>
        <time>2011-04-07T08:43:59</time>
      </trkpt>
      <trkpt lat="44.44074" lon="1.44255">
        <ele>118</ele>
        <time>2011-04-07T08:44:00</time>
      </trkpt>
      <trkpt lat="44.44073" lon="1.44245">
        <ele>118</ele>
        <time>2011-04-07T08:44:01</time>
      </trkpt>
      <trkpt lat="44.44074" lon="1.44224">
        <ele>118</ele>
        <time>2011-04-07T08:44:03</time>
      </trkpt>
      <trkpt lat="44.44075" lon="1.44214">
        <ele>118</ele>
        <time>2011-04-07T08:44:04</time>
      </trkpt>
      <trkpt lat="44.44072" lon="1.44195">
        <ele>114</ele>
        <time>2011-04-07T08:44:06</time>
      </trkpt>
      <trkpt lat="44.44069" lon="1.44187">
        <ele>114</ele>
        <time>2011-04-07T08:44:07</time>
      </trkpt>
      <trkpt lat="44.44067" lon="1.44179">
        <ele>114</ele>
        <time>2011-04-07T08:44:08</time>
      </trkpt>
      <trkpt lat="44.44061" lon="1.44164">
        <ele>114</ele>
        <time>2011-04-07T08:44:10</time>
      </trkpt>
      <trkpt lat="44.44057" lon="1.4415">
        <ele>114</ele>
        <time>2011-04-07T08:44:12</time>
      </trkpt>
      <trkpt lat="44.44054" lon="1.44144">
        <ele>114</ele>
        <time>2011-04-07T08:44:13</time>
      </trkpt>
      <trkpt lat="44.4405" lon="1.44133">
        <ele>114</ele>
        <time>2011-04-07T08:44:15</time>
      </trkpt>
      <trkpt lat="44.44048" lon="1.44127">
        <ele>114</ele>
        <time>2011-04-07T08:44:16</time>
      </trkpt>
      <trkpt lat="44.44046" lon="1.44122">
        <ele>116</ele>
        <time>2011-04-07T08:44:17</time>
      </trkpt>
      <trkpt lat="44.44043" lon="1.44112">
        <ele>116</ele>
        <time>2011-04-07T08:44:19</time>
      </trkpt>
      <trkpt lat="44.44042" lon="1.44108">
        <ele>116</ele>
        <time>2011-04-07T08:44:20</time>
      </trkpt>
      <trkpt lat="44.44042" lon="1.44099">
        <ele>116</ele>
        <time>2011-04-07T08:44:22</time>
      </trkpt>
      <trkpt lat="44.44039" lon="1.44088">
        <ele>116</ele>
        <time>2011-04-07T08:44:24</time>
      </trkpt>
      <trkpt lat="44.44035" lon="1.44075">
        <ele>116</ele>
        <time>2011-04-07T08:44:26</time>
      </trkpt>
      <trkpt lat="44.44033" lon="1.44068">
        <ele>116</ele>
        <time>2011-04-07T08:44:27</time>
      </trkpt>
      <trkpt lat="44.44031" lon="1.44055">
        <ele>116</ele>
        <time>2011-04-07T08:44:29</time>
      </trkpt>
      <trkpt lat="44.4403" lon="1.44048">
        <ele>116</ele>
        <time>2011-04-07T08:44:30</time>
      </trkpt>
      <trkpt lat="44.44028" lon="1.44034">
        <ele>116</ele>
        <time>2011-04-07T08:44:32</time>
      </trkpt>
      <trkpt lat="44.44027" lon="1.4402">
        <ele>116</ele>
        <time>2011-04-07T08:44:34</time>
      </trkpt>
      <trkpt lat="44.44026" lon="1.44007">
        <ele>116</ele>
        <time>2011-04-07T08:44:36</time>
      </trkpt>
      <trkpt lat="44.44025" lon="1.43996">
        <ele>116</ele>
        <time>2011-04-07T08:44:38</time>
      </trkpt>
      <trkpt lat="44.44023" lon="1.43991">
        <ele>116</ele>
        <time>2011-04-07T08:44:39</time>
      </trkpt>
      <trkpt lat="44.4402" lon="1.43982">
        <ele>116</ele>
        <time>2011-04-07T08:44:41</time>
      </trkpt>
      <trkpt lat="44.44018" lon="1.43979">
        <ele>116</ele>
        <time>2011-04-07T08:44:42</time>
      </trkpt>
      <trkpt lat="44.44012" lon="1.43974">
        <ele>116</ele>
        <time>2011-04-07T08:44:44</time>
      </trkpt>
      <trkpt lat="44.44005" lon="1.4397">
        <ele>116</ele>
        <time>2011-04-07T08:44:46</time>
      </trkpt>
      <trkpt lat="44.43999" lon="1.43969">
        <ele>116</ele>
        <time>2011-04-07T08:44:48</time>
      </trkpt>
      <trkpt lat="44.43996" lon="1.43969">
        <ele>116</ele>
        <time>2011-04-07T08:44:49</time>
      </trkpt>
      <trkpt lat="44.43992" lon="1.43969">
        <ele>116</ele>
        <time>2011-04-07T08:44:51</time>
      </trkpt>
      <trkpt lat="44.4399" lon="1.43966">
        <ele>116</ele>
        <time>2011-04-07T08:44:53</time>
      </trkpt>
      <trkpt lat="44.43989" lon="1.43959">
        <ele>116</ele>
        <time>2011-04-07T08:44:55</time>
      </trkpt>
      <trkpt lat="44.43989" lon="1.43955">
        <ele>115</ele>
        <time>2011-04-07T08:44:56</time>
      </trkpt>
      <trkpt lat="44.43988" lon="1.4395">
        <ele>115</ele>
        <time>2011-04-07T08:44:57</time>
      </trkpt>
      <trkpt lat="44.43992" lon="1.43939">
        <ele>115</ele>
        <time>2011-04-07T08:44:59</time>
      </trkpt>
      <trkpt lat="44.43995" lon="1.43933">
        <ele>115</ele>
        <time>2011-04-07T08:45:00</time>
      </trkpt>
      <trkpt lat="44.43998" lon="1.43926">
        <ele>115</ele>
        <time>2011-04-07T08:45:01</time>
      </trkpt>
      <trkpt lat="44.44" lon="1.43912">
        <ele>115</ele>
        <time>2011-04-07T08:45:03</time>
      </trkpt>
      <trkpt lat="44.44001" lon="1.43897">
        <ele>115</ele>
        <time>2011-04-07T08:45:05</time>
      </trkpt>
      <trkpt lat="44.44001" lon="1.43884">
        <ele>115</ele>
        <time>2011-04-07T08:45:07</time>
      </trkpt>
      <trkpt lat="44.44001" lon="1.43878">
        <ele>115</ele>
        <time>2011-04-07T08:45:08</time>
      </trkpt>
      <trkpt lat="44.44002" lon="1.43871">
        <ele>115</ele>
        <time>2011-04-07T08:45:09</time>
      </trkpt>
      <trkpt lat="44.44002" lon="1.43864">
        <ele>115</ele>
        <time>2011-04-07T08:45:10</time>
      </trkpt>
      <trkpt lat="44.44002" lon="1.43849">
        <ele>115</ele>
        <time>2011-04-07T08:45:12</time>
      </trkpt>
      <trkpt lat="44.44002" lon="1.43842">
        <ele>115</ele>
        <time>2011-04-07T08:45:13</time>
      </trkpt>
      <trkpt lat="44.44001" lon="1.43828">
        <ele>115</ele>
        <time>2011-04-07T08:45:15</time>
      </trkpt>
      <trkpt lat="44.43998" lon="1.43819">
        <ele>115</ele>
        <time>2011-04-07T08:45:17</time>
      </trkpt>
      <trkpt lat="44.43996" lon="1.43809">
        <ele>115</ele>
        <time>2011-04-07T08:45:19</time>
      </trkpt>
      <trkpt lat="44.43996" lon="1.43803">
        <ele>115</ele>
        <time>2011-04-07T08:45:20</time>
      </trkpt>
      <trkpt lat="44.43995" lon="1.4379">
        <ele>117</ele>
        <time>2011-04-07T08:45:22</time>
      </trkpt>
      <trkpt lat="44.43996" lon="1.43783">
        <ele>117</ele>
        <time>2011-04-07T08:45:23</time>
      </trkpt>
      <trkpt lat="44.43997" lon="1.43768">
        <ele>117</ele>
        <time>2011-04-07T08:45:25</time>
      </trkpt>
      <trkpt lat="44.43998" lon="1.4376">
        <ele>117</ele>
        <time>2011-04-07T08:45:26</time>
      </trkpt>
      <trkpt lat="44.43999" lon="1.43745">
        <ele>117</ele>
        <time>2011-04-07T08:45:28</time>
      </trkpt>
      <trkpt lat="44.44" lon="1.43738">
        <ele>117</ele>
        <time>2011-04-07T08:45:29</time>
      </trkpt>
      <trkpt lat="44.44002" lon="1.43723">
        <ele>117</ele>
        <time>2011-04-07T08:45:31</time>
      </trkpt>
      <trkpt lat="44.44003" lon="1.43716">
        <ele>117</ele>
        <time>2011-04-07T08:45:32</time>
      </trkpt>
      <trkpt lat="44.44005" lon="1.43702">
        <ele>115</ele>
        <time>2011-04-07T08:45:34</time>
      </trkpt>
      <trkpt lat="44.44005" lon="1.43695">
        <ele>115</ele>
        <time>2011-04-07T08:45:35</time>
      </trkpt>
      <trkpt lat="44.44005" lon="1.43688">
        <ele>115</ele>
        <time>2011-04-07T08:45:36</time>
      </trkpt>
      <trkpt lat="44.44005" lon="1.4368">
        <ele>115</ele>
        <time>2011-04-07T08:45:37</time>
      </trkpt>
      <trkpt lat="44.44006" lon="1.43663">
        <ele>115</ele>
        <time>2011-04-07T08:45:39</time>
      </trkpt>
      <trkpt lat="44.44007" lon="1.43654">
        <ele>115</ele>
        <time>2011-04-07T08:45:40</time>
      </trkpt>
      <trkpt lat="44.4401" lon="1.43638">
        <ele>115</ele>
        <time>2011-04-07T08:45:42</time>
      </trkpt>
      <trkpt lat="44.44011" lon="1.4363">
        <ele>115</ele>
        <time>2011-04-07T08:45:43</time>
      </trkpt>
      <trkpt lat="44.44012" lon="1.43622">
        <ele>116</ele>
        <time>2011-04-07T08:45:44</time>
      </trkpt>
      <trkpt lat="44.44015" lon="1.43606">
        <ele>116</ele>
        <time>2011-04-07T08:45:46</time>
      </trkpt>
      <trkpt lat="44.44016" lon="1.43598">
        <ele>116</ele>
        <time>2011-04-07T08:45:47</time>
      </trkpt>
      <trkpt lat="44.44018" lon="1.43583">
        <ele>116</ele>
        <time>2011-04-07T08:45:49</time>
      </trkpt>
      <trkpt lat="44.44021" lon="1.43568">
        <ele>116</ele>
        <time>2011-04-07T08:45:51</time>
      </trkpt>
      <trkpt lat="44.44024" lon="1.43552">
        <ele>116</ele>
        <time>2011-04-07T08:45:53</time>
      </trkpt>
      <trkpt lat="44.44025" lon="1.43544">
        <ele>116</ele>
        <time>2011-04-07T08:45:54</time>
      </trkpt>
      <trkpt lat="44.44027" lon="1.4353">
        <ele>128</ele>
        <time>2011-04-07T08:45:56</time>
      </trkpt>
      <trkpt lat="44.44029" lon="1.43518">
        <ele>128</ele>
        <time>2011-04-07T08:45:58</time>
      </trkpt>
      <trkpt lat="44.44029" lon="1.43512">
        <ele>128</ele>
        <time>2011-04-07T08:45:59</time>
      </trkpt>
      <trkpt lat="44.4403" lon="1.43506">
        <ele>128</ele>
        <time>2011-04-07T08:46:00</time>
      </trkpt>
      <trkpt lat="44.44031" lon="1.43496">
        <ele>128</ele>
        <time>2011-04-07T08:46:02</time>
      </trkpt>
      <trkpt lat="44.44032" lon="1.43493">
        <ele>128</ele>
        <time>2011-04-07T08:46:03</time>
      </trkpt>
      <trkpt lat="44.44032" lon="1.43493">
        <ele>128</ele>
        <time>2011-04-07T08:46:22</time>
      </trkpt>
      <trkpt lat="44.44034" lon="1.43484">
        <ele>128</ele>
        <time>2011-04-07T08:47:07</time>
      </trkpt>
      <trkpt lat="44.44032" lon="1.43482">
        <ele>128</ele>
        <time>2011-04-07T08:47:12</time>
      </trkpt>
      <trkpt lat="44.44032" lon="1.43482">
        <ele>128</ele>
        <time>2011-04-07T08:47:12</time>
      </trkpt>
      <trkpt lat="44.44032" lon="1.43482">
        <ele>128</ele>
        <time>2011-04-07T08:47:21</time>
      </trkpt>
      <trkpt lat="44.44036" lon="1.43486">
        <ele>128</ele>
        <time>2011-04-07T08:47:25</time>
      </trkpt>
      <trkpt lat="44.44036" lon="1.43486">
        <ele>128</ele>
        <time>2011-04-07T08:47:41</time>
      </trkpt>
      <trkpt lat="44.44031" lon="1.43487">
        <ele>128</ele>
        <time>2011-04-07T08:47:46</time>
      </trkpt>
      <trkpt lat="44.44033" lon="1.43484">
        <ele>128</ele>
        <time>2011-04-07T08:47:57</time>
      </trkpt>
      <trkpt lat="44.44031" lon="1.4348">
        <ele>128</ele>
        <time>2011-04-07T08:48:00</time>
      </trkpt>
      <trkpt lat="44.44031" lon="1.4348">
        <ele>128</ele>
        <time>2011-04-07T08:48:00</time>
      </trkpt>
      <trkpt lat="44.44032" lon="1.43475">
        <ele>128</ele>
        <time>2011-04-07T08:48:02</time>
      </trkpt>
      <trkpt lat="44.44033" lon="1.43471">
        <ele>128</ele>
        <time>2011-04-07T08:48:03</time>
      </trkpt>
      <trkpt lat="44.44034" lon="1.43468">
        <ele>128</ele>
        <time>2011-04-07T08:48:04</time>
      </trkpt>
      <trkpt lat="44.44036" lon="1.4346">
        <ele>128</ele>
        <time>2011-04-07T08:48:06</time>
      </trkpt>
      <trkpt lat="44.44039" lon="1.43451">
        <ele>152</ele>
        <time>2011-04-07T08:48:08</time>
      </trkpt>
      <trkpt lat="44.44042" lon="1.43441">
        <ele>115</ele>
        <time>2011-04-07T08:48:10</time>
      </trkpt>
      <trkpt lat="44.44044" lon="1.43436">
        <ele>115</ele>
        <time>2011-04-07T08:48:11</time>
      </trkpt>
      <trkpt lat="44.44049" lon="1.43426">
        <ele>115</ele>
        <time>2011-04-07T08:48:13</time>
      </trkpt>
      <trkpt lat="44.44056" lon="1.43416">
        <ele>115</ele>
        <time>2011-04-07T08:48:15</time>
      </trkpt>
      <trkpt lat="44.44064" lon="1.43406">
        <ele>115</ele>
        <time>2011-04-07T08:48:17</time>
      </trkpt>
      <trkpt lat="44.44071" lon="1.43396">
        <ele>115</ele>
        <time>2011-04-07T08:48:19</time>
      </trkpt>
      <trkpt lat="44.4408" lon="1.43387">
        <ele>115</ele>
        <time>2011-04-07T08:48:21</time>
      </trkpt>
      <trkpt lat="44.44084" lon="1.43382">
        <ele>115</ele>
        <time>2011-04-07T08:48:22</time>
      </trkpt>
      <trkpt lat="44.44089" lon="1.43378">
        <ele>115</ele>
        <time>2011-04-07T08:48:23</time>
      </trkpt>
      <trkpt lat="44.44097" lon="1.4337">
        <ele>150</ele>
        <time>2011-04-07T08:48:25</time>
      </trkpt>
      <trkpt lat="44.44102" lon="1.43366">
        <ele>150</ele>
        <time>2011-04-07T08:48:26</time>
      </trkpt>
      <trkpt lat="44.4411" lon="1.43359">
        <ele>150</ele>
        <time>2011-04-07T08:48:28</time>
      </trkpt>
      <trkpt lat="44.44115" lon="1.43356">
        <ele>150</ele>
        <time>2011-04-07T08:48:29</time>
      </trkpt>
      <trkpt lat="44.44119" lon="1.43352">
        <ele>150</ele>
        <time>2011-04-07T08:48:30</time>
      </trkpt>
      <trkpt lat="44.44128" lon="1.43345">
        <ele>138</ele>
        <time>2011-04-07T08:48:32</time>
      </trkpt>
      <trkpt lat="44.44133" lon="1.43341">
        <ele>138</ele>
        <time>2011-04-07T08:48:33</time>
      </trkpt>
      <trkpt lat="44.44143" lon="1.43333">
        <ele>138</ele>
        <time>2011-04-07T08:48:35</time>
      </trkpt>
      <trkpt lat="44.44148" lon="1.43329">
        <ele>138</ele>
        <time>2011-04-07T08:48:36</time>
      </trkpt>
      <trkpt lat="44.44158" lon="1.43321">
        <ele>138</ele>
        <time>2011-04-07T08:48:38</time>
      </trkpt>
      <trkpt lat="44.44167" lon="1.43314">
        <ele>138</ele>
        <time>2011-04-07T08:48:40</time>
      </trkpt>
      <trkpt lat="44.44172" lon="1.43309">
        <ele>138</ele>
        <time>2011-04-07T08:48:41</time>
      </trkpt>
      <trkpt lat="44.44177" lon="1.43305">
        <ele>138</ele>
        <time>2011-04-07T08:48:42</time>
      </trkpt>
      <trkpt lat="44.44182" lon="1.43301">
        <ele>138</ele>
        <time>2011-04-07T08:48:43</time>
      </trkpt>
      <trkpt lat="44.44191" lon="1.43294">
        <ele>138</ele>
        <time>2011-04-07T08:48:45</time>
      </trkpt>
      <trkpt lat="44.442" lon="1.43286">
        <ele>165</ele>
        <time>2011-04-07T08:48:47</time>
      </trkpt>
      <trkpt lat="44.44208" lon="1.43278">
        <ele>125</ele>
        <time>2011-04-07T08:48:49</time>
      </trkpt>
      <trkpt lat="44.44212" lon="1.43275">
        <ele>125</ele>
        <time>2011-04-07T08:48:50</time>
      </trkpt>
      <trkpt lat="44.44218" lon="1.43267">
        <ele>125</ele>
        <time>2011-04-07T08:48:52</time>
      </trkpt>
      <trkpt lat="44.44223" lon="1.43261">
        <ele>125</ele>
        <time>2011-04-07T08:48:54</time>
      </trkpt>
      <trkpt lat="44.44229" lon="1.43255">
        <ele>125</ele>
        <time>2011-04-07T08:48:56</time>
      </trkpt>
      <trkpt lat="44.44234" lon="1.43249">
        <ele>125</ele>
        <time>2011-04-07T08:48:58</time>
      </trkpt>
      <trkpt lat="44.44237" lon="1.43246">
        <ele>125</ele>
        <time>2011-04-07T08:48:59</time>
      </trkpt>
      <trkpt lat="44.44242" lon="1.43239">
        <ele>125</ele>
        <time>2011-04-07T08:49:01</time>
      </trkpt>
      <trkpt lat="44.44244" lon="1.43236">
        <ele>125</ele>
        <time>2011-04-07T08:49:02</time>
      </trkpt>
      <trkpt lat="44.44248" lon="1.43233">
        <ele>125</ele>
        <time>2011-04-07T08:49:03</time>
      </trkpt>
      <trkpt lat="44.44253" lon="1.4323">
        <ele>125</ele>
        <time>2011-04-07T08:49:04</time>
      </trkpt>
      <trkpt lat="44.44262" lon="1.43223">
        <ele>125</ele>
        <time>2011-04-07T08:49:06</time>
      </trkpt>
      <trkpt lat="44.44272" lon="1.43216">
        <ele>125</ele>
        <time>2011-04-07T08:49:08</time>
      </trkpt>
      <trkpt lat="44.44277" lon="1.43212">
        <ele>125</ele>
        <time>2011-04-07T08:49:09</time>
      </trkpt>
      <trkpt lat="44.44287" lon="1.43204">
        <ele>160</ele>
        <time>2011-04-07T08:49:11</time>
      </trkpt>
      <trkpt lat="44.44292" lon="1.432">
        <ele>130</ele>
        <time>2011-04-07T08:49:12</time>
      </trkpt>
      <trkpt lat="44.44303" lon="1.43193">
        <ele>130</ele>
        <time>2011-04-07T08:49:14</time>
      </trkpt>
      <trkpt lat="44.44308" lon="1.43189">
        <ele>130</ele>
        <time>2011-04-07T08:49:15</time>
      </trkpt>
      <trkpt lat="44.44317" lon="1.43184">
        <ele>130</ele>
        <time>2011-04-07T08:49:17</time>
      </trkpt>
      <trkpt lat="44.44321" lon="1.43182">
        <ele>130</ele>
        <time>2011-04-07T08:49:18</time>
      </trkpt>
      <trkpt lat="44.44325" lon="1.4318">
        <ele>130</ele>
        <time>2011-04-07T08:49:19</time>
      </trkpt>
      <trkpt lat="44.44332" lon="1.43176">
        <ele>130</ele>
        <time>2011-04-07T08:49:21</time>
      </trkpt>
      <trkpt lat="44.44336" lon="1.4317">
        <ele>130</ele>
        <time>2011-04-07T08:49:23</time>
      </trkpt>
      <trkpt lat="44.44338" lon="1.43167">
        <ele>130</ele>
        <time>2011-04-07T08:49:24</time>
      </trkpt>
      <trkpt lat="44.44343" lon="1.4316">
        <ele>130</ele>
        <time>2011-04-07T08:49:26</time>
      </trkpt>
      <trkpt lat="44.4435" lon="1.43156">
        <ele>130</ele>
        <time>2011-04-07T08:49:28</time>
      </trkpt>
      <trkpt lat="44.44353" lon="1.43154">
        <ele>130</ele>
        <time>2011-04-07T08:49:29</time>
      </trkpt>
      <trkpt lat="44.4436" lon="1.4315">
        <ele>130</ele>
        <time>2011-04-07T08:49:31</time>
      </trkpt>
      <trkpt lat="44.44363" lon="1.43147">
        <ele>130</ele>
        <time>2011-04-07T08:49:32</time>
      </trkpt>
      <trkpt lat="44.4437" lon="1.43142">
        <ele>130</ele>
        <time>2011-04-07T08:49:34</time>
      </trkpt>
      <trkpt lat="44.44373" lon="1.43139">
        <ele>130</ele>
        <time>2011-04-07T08:49:35</time>
      </trkpt>
      <trkpt lat="44.44379" lon="1.43134">
        <ele>120</ele>
        <time>2011-04-07T08:49:37</time>
      </trkpt>
      <trkpt lat="44.44383" lon="1.43131">
        <ele>120</ele>
        <time>2011-04-07T08:49:38</time>
      </trkpt>
      <trkpt lat="44.44386" lon="1.43128">
        <ele>120</ele>
        <time>2011-04-07T08:49:39</time>
      </trkpt>
      <trkpt lat="44.44392" lon="1.43123">
        <ele>159</ele>
        <time>2011-04-07T08:49:41</time>
      </trkpt>
      <trkpt lat="44.44398" lon="1.43117">
        <ele>159</ele>
        <time>2011-04-07T08:49:43</time>
      </trkpt>
      <trkpt lat="44.44405" lon="1.43112">
        <ele>159</ele>
        <time>2011-04-07T08:49:45</time>
      </trkpt>
      <trkpt lat="44.44412" lon="1.43107">
        <ele>159</ele>
        <time>2011-04-07T08:49:47</time>
      </trkpt>
      <trkpt lat="44.44415" lon="1.43104">
        <ele>159</ele>
        <time>2011-04-07T08:49:48</time>
      </trkpt>
      <trkpt lat="44.44423" lon="1.43098">
        <ele>159</ele>
        <time>2011-04-07T08:49:50</time>
      </trkpt>
      <trkpt lat="44.44426" lon="1.43095">
        <ele>159</ele>
        <time>2011-04-07T08:49:51</time>
      </trkpt>
      <trkpt lat="44.4443" lon="1.43092">
        <ele>159</ele>
        <time>2011-04-07T08:49:52</time>
      </trkpt>
      <trkpt lat="44.44437" lon="1.43087">
        <ele>159</ele>
        <time>2011-04-07T08:49:54</time>
      </trkpt>
      <trkpt lat="44.4444" lon="1.43084">
        <ele>159</ele>
        <time>2011-04-07T08:49:55</time>
      </trkpt>
      <trkpt lat="44.44444" lon="1.43081">
        <ele>159</ele>
        <time>2011-04-07T08:49:56</time>
      </trkpt>
      <trkpt lat="44.44448" lon="1.43078">
        <ele>159</ele>
        <time>2011-04-07T08:49:57</time>
      </trkpt>
      <trkpt lat="44.44456" lon="1.43074">
        <ele>159</ele>
        <time>2011-04-07T08:49:59</time>
      </trkpt>
      <trkpt lat="44.44464" lon="1.43069">
        <ele>122</ele>
        <time>2011-04-07T08:50:01</time>
      </trkpt>
      <trkpt lat="44.44474" lon="1.43069">
        <ele>122</ele>
        <time>2011-04-07T08:50:04</time>
      </trkpt>
      <trkpt lat="44.44477" lon="1.43071">
        <ele>122</ele>
        <time>2011-04-07T08:50:05</time>
      </trkpt>
      <trkpt lat="44.44482" lon="1.43078">
        <ele>122</ele>
        <time>2011-04-07T08:50:07</time>
      </trkpt>
      <trkpt lat="44.44484" lon="1.43083">
        <ele>122</ele>
        <time>2011-04-07T08:50:08</time>
      </trkpt>
      <trkpt lat="44.44486" lon="1.43088">
        <ele>122</ele>
        <time>2011-04-07T08:50:09</time>
      </trkpt>
      <trkpt lat="44.44489" lon="1.431">
        <ele>122</ele>
        <time>2011-04-07T08:50:11</time>
      </trkpt>
      <trkpt lat="44.44492" lon="1.43112">
        <ele>122</ele>
        <time>2011-04-07T08:50:13</time>
      </trkpt>
      <trkpt lat="44.44495" lon="1.43125">
        <ele>122</ele>
        <time>2011-04-07T08:50:15</time>
      </trkpt>
      <trkpt lat="44.44497" lon="1.43138">
        <ele>113</ele>
        <time>2011-04-07T08:50:17</time>
      </trkpt>
      <trkpt lat="44.44499" lon="1.43145">
        <ele>113</ele>
        <time>2011-04-07T08:50:18</time>
      </trkpt>
      <trkpt lat="44.44501" lon="1.43151">
        <ele>113</ele>
        <time>2011-04-07T08:50:19</time>
      </trkpt>
      <trkpt lat="44.44505" lon="1.43171">
        <ele>113</ele>
        <time>2011-04-07T08:50:21</time>
      </trkpt>
      <trkpt lat="44.44506" lon="1.43177">
        <ele>113</ele>
        <time>2011-04-07T08:50:22</time>
      </trkpt>
      <trkpt lat="44.44507" lon="1.43184">
        <ele>113</ele>
        <time>2011-04-07T08:50:23</time>
      </trkpt>
      <trkpt lat="44.4451" lon="1.43198">
        <ele>113</ele>
        <time>2011-04-07T08:50:25</time>
      </trkpt>
      <trkpt lat="44.44512" lon="1.43205">
        <ele>113</ele>
        <time>2011-04-07T08:50:26</time>
      </trkpt>
      <trkpt lat="44.44514" lon="1.43212">
        <ele>115</ele>
        <time>2011-04-07T08:50:27</time>
      </trkpt>
      <trkpt lat="44.44518" lon="1.43227">
        <ele>115</ele>
        <time>2011-04-07T08:50:29</time>
      </trkpt>
      <trkpt lat="44.4452" lon="1.43235">
        <ele>115</ele>
        <time>2011-04-07T08:50:30</time>
      </trkpt>
      <trkpt lat="44.44524" lon="1.43251">
        <ele>115</ele>
        <time>2011-04-07T08:50:32</time>
      </trkpt>
      <trkpt lat="44.44526" lon="1.43258">
        <ele>115</ele>
        <time>2011-04-07T08:50:33</time>
      </trkpt>
      <trkpt lat="44.44529" lon="1.43275">
        <ele>115</ele>
        <time>2011-04-07T08:50:35</time>
      </trkpt>
      <trkpt lat="44.44531" lon="1.43294">
        <ele>120</ele>
        <time>2011-04-07T08:50:37</time>
      </trkpt>
      <trkpt lat="44.44533" lon="1.43312">
        <ele>120</ele>
        <time>2011-04-07T08:50:39</time>
      </trkpt>
      <trkpt lat="44.44531" lon="1.43322">
        <ele>120</ele>
        <time>2011-04-07T08:50:41</time>
      </trkpt>
      <trkpt lat="44.44525" lon="1.43323">
        <ele>120</ele>
        <time>2011-04-07T08:50:44</time>
      </trkpt>
      <trkpt lat="44.44522" lon="1.4331">
        <ele>120</ele>
        <time>2011-04-07T08:50:46</time>
      </trkpt>
      <trkpt lat="44.44518" lon="1.43296">
        <ele>120</ele>
        <time>2011-04-07T08:50:48</time>
      </trkpt>
      <trkpt lat="44.44512" lon="1.43282">
        <ele>115</ele>
        <time>2011-04-07T08:50:50</time>
      </trkpt>
      <trkpt lat="44.44504" lon="1.4327">
        <ele>115</ele>
        <time>2011-04-07T08:50:52</time>
      </trkpt>
      <trkpt lat="44.445" lon="1.43266">
        <ele>115</ele>
        <time>2011-04-07T08:50:53</time>
      </trkpt>
      <trkpt lat="44.44489" lon="1.43262">
        <ele>115</ele>
        <time>2011-04-07T08:50:55</time>
      </trkpt>
      <trkpt lat="44.44483" lon="1.4326">
        <ele>115</ele>
        <time>2011-04-07T08:50:56</time>
      </trkpt>
      <trkpt lat="44.44477" lon="1.43259">
        <ele>115</ele>
        <time>2011-04-07T08:50:57</time>
      </trkpt>
      <trkpt lat="44.44467" lon="1.43257">
        <ele>115</ele>
        <time>2011-04-07T08:50:59</time>
      </trkpt>
      <trkpt lat="44.44462" lon="1.43258">
        <ele>115</ele>
        <time>2011-04-07T08:51:00</time>
      </trkpt>
      <trkpt lat="44.44458" lon="1.43261">
        <ele>115</ele>
        <time>2011-04-07T08:51:01</time>
      </trkpt>
      <trkpt lat="44.44453" lon="1.43265">
        <ele>115</ele>
        <time>2011-04-07T08:51:02</time>
      </trkpt>
      <trkpt lat="44.44443" lon="1.43274">
        <ele>115</ele>
        <time>2011-04-07T08:51:04</time>
      </trkpt>
      <trkpt lat="44.44432" lon="1.43282">
        <ele>115</ele>
        <time>2011-04-07T08:51:06</time>
      </trkpt>
      <trkpt lat="44.44426" lon="1.43285">
        <ele>115</ele>
        <time>2011-04-07T08:51:07</time>
      </trkpt>
      <trkpt lat="44.44415" lon="1.43292">
        <ele>120</ele>
        <time>2011-04-07T08:51:09</time>
      </trkpt>
      <trkpt lat="44.44409" lon="1.43295">
        <ele>120</ele>
        <time>2011-04-07T08:51:10</time>
      </trkpt>
      <trkpt lat="44.44397" lon="1.43301">
        <ele>120</ele>
        <time>2011-04-07T08:51:12</time>
      </trkpt>
      <trkpt lat="44.44391" lon="1.43304">
        <ele>120</ele>
        <time>2011-04-07T08:51:13</time>
      </trkpt>
      <trkpt lat="44.44379" lon="1.4331">
        <ele>120</ele>
        <time>2011-04-07T08:51:15</time>
      </trkpt>
      <trkpt lat="44.44373" lon="1.43313">
        <ele>116</ele>
        <time>2011-04-07T08:51:16</time>
      </trkpt>
      <trkpt lat="44.44361" lon="1.43321">
        <ele>116</ele>
        <time>2011-04-07T08:51:18</time>
      </trkpt>
      <trkpt lat="44.44355" lon="1.43324">
        <ele>116</ele>
        <time>2011-04-07T08:51:19</time>
      </trkpt>
      <trkpt lat="44.44343" lon="1.43332">
        <ele>116</ele>
        <time>2011-04-07T08:51:21</time>
      </trkpt>
      <trkpt lat="44.44337" lon="1.43335">
        <ele>116</ele>
        <time>2011-04-07T08:51:22</time>
      </trkpt>
      <trkpt lat="44.44327" lon="1.43344">
        <ele>116</ele>
        <time>2011-04-07T08:51:24</time>
      </trkpt>
      <trkpt lat="44.44322" lon="1.43348">
        <ele>116</ele>
        <time>2011-04-07T08:51:25</time>
      </trkpt>
      <trkpt lat="44.4431" lon="1.43358">
        <ele>116</ele>
        <time>2011-04-07T08:51:27</time>
      </trkpt>
      <trkpt lat="44.44305" lon="1.43363">
        <ele>116</ele>
        <time>2011-04-07T08:51:28</time>
      </trkpt>
      <trkpt lat="44.44299" lon="1.43367">
        <ele>116</ele>
        <time>2011-04-07T08:51:29</time>
      </trkpt>
      <trkpt lat="44.44287" lon="1.43376">
        <ele>117</ele>
        <time>2011-04-07T08:51:31</time>
      </trkpt>
      <trkpt lat="44.44282" lon="1.43381">
        <ele>117</ele>
        <time>2011-04-07T08:51:32</time>
      </trkpt>
      <trkpt lat="44.4427" lon="1.4339">
        <ele>117</ele>
        <time>2011-04-07T08:51:34</time>
      </trkpt>
      <trkpt lat="44.44264" lon="1.43393">
        <ele>117</ele>
        <time>2011-04-07T08:51:35</time>
      </trkpt>
      <trkpt lat="44.44253" lon="1.434">
        <ele>117</ele>
        <time>2011-04-07T08:51:37</time>
      </trkpt>
      <trkpt lat="44.44247" lon="1.43405">
        <ele>117</ele>
        <time>2011-04-07T08:51:38</time>
      </trkpt>
      <trkpt lat="44.44236" lon="1.43413">
        <ele>117</ele>
        <time>2011-04-07T08:51:40</time>
      </trkpt>
      <trkpt lat="44.4423" lon="1.43418">
        <ele>117</ele>
        <time>2011-04-07T08:51:41</time>
      </trkpt>
      <trkpt lat="44.44218" lon="1.43427">
        <ele>117</ele>
        <time>2011-04-07T08:51:43</time>
      </trkpt>
      <trkpt lat="44.44213" lon="1.43431">
        <ele>117</ele>
        <time>2011-04-07T08:51:44</time>
      </trkpt>
      <trkpt lat="44.44203" lon="1.43441">
        <ele>117</ele>
        <time>2011-04-07T08:51:46</time>
      </trkpt>
      <trkpt lat="44.44197" lon="1.43446">
        <ele>117</ele>
        <time>2011-04-07T08:51:47</time>
      </trkpt>
      <trkpt lat="44.44187" lon="1.43456">
        <ele>117</ele>
        <time>2011-04-07T08:51:49</time>
      </trkpt>
      <trkpt lat="44.44177" lon="1.43468">
        <ele>117</ele>
        <time>2011-04-07T08:51:51</time>
      </trkpt>
      <trkpt lat="44.44168" lon="1.43481">
        <ele>117</ele>
        <time>2011-04-07T08:51:53</time>
      </trkpt>
      <trkpt lat="44.44164" lon="1.43488">
        <ele>117</ele>
        <time>2011-04-07T08:51:54</time>
      </trkpt>
      <trkpt lat="44.44156" lon="1.43502">
        <ele>117</ele>
        <time>2011-04-07T08:51:56</time>
      </trkpt>
      <trkpt lat="44.44153" lon="1.43509">
        <ele>117</ele>
        <time>2011-04-07T08:51:57</time>
      </trkpt>
      <trkpt lat="44.44146" lon="1.43524">
        <ele>117</ele>
        <time>2011-04-07T08:51:59</time>
      </trkpt>
      <trkpt lat="44.44143" lon="1.43532">
        <ele>117</ele>
        <time>2011-04-07T08:52:00</time>
      </trkpt>
      <trkpt lat="44.44139" lon="1.43548">
        <ele>116</ele>
        <time>2011-04-07T08:52:02</time>
      </trkpt>
      <trkpt lat="44.44136" lon="1.43564">
        <ele>116</ele>
        <time>2011-04-07T08:52:04</time>
      </trkpt>
      <trkpt lat="44.44134" lon="1.43578">
        <ele>116</ele>
        <time>2011-04-07T08:52:06</time>
      </trkpt>
      <trkpt lat="44.44133" lon="1.43584">
        <ele>116</ele>
        <time>2011-04-07T08:52:07</time>
      </trkpt>
      <trkpt lat="44.44132" lon="1.43593">
        <ele>116</ele>
        <time>2011-04-07T08:52:08</time>
      </trkpt>
      <trkpt lat="44.44131" lon="1.4361">
        <ele>116</ele>
        <time>2011-04-07T08:52:10</time>
      </trkpt>
      <trkpt lat="44.4413" lon="1.43629">
        <ele>118</ele>
        <time>2011-04-07T08:52:12</time>
      </trkpt>
      <trkpt lat="44.4413" lon="1.43637">
        <ele>118</ele>
        <time>2011-04-07T08:52:13</time>
      </trkpt>
      <trkpt lat="44.44129" lon="1.43654">
        <ele>118</ele>
        <time>2011-04-07T08:52:15</time>
      </trkpt>
      <trkpt lat="44.44129" lon="1.43671">
        <ele>118</ele>
        <time>2011-04-07T08:52:17</time>
      </trkpt>
      <trkpt lat="44.4413" lon="1.43687">
        <ele>118</ele>
        <time>2011-04-07T08:52:19</time>
      </trkpt>
      <trkpt lat="44.4413" lon="1.43695">
        <ele>118</ele>
        <time>2011-04-07T08:52:20</time>
      </trkpt>
      <trkpt lat="44.44131" lon="1.43712">
        <ele>120</ele>
        <time>2011-04-07T08:52:22</time>
      </trkpt>
      <trkpt lat="44.44133" lon="1.43728">
        <ele>120</ele>
        <time>2011-04-07T08:52:24</time>
      </trkpt>
      <trkpt lat="44.44133" lon="1.43745">
        <ele>120</ele>
        <time>2011-04-07T08:52:26</time>
      </trkpt>
      <trkpt lat="44.44134" lon="1.43759">
        <ele>120</ele>
        <time>2011-04-07T08:52:28</time>
      </trkpt>
      <trkpt lat="44.44134" lon="1.43767">
        <ele>120</ele>
        <time>2011-04-07T08:52:29</time>
      </trkpt>
      <trkpt lat="44.44135" lon="1.43782">
        <ele>120</ele>
        <time>2011-04-07T08:52:31</time>
      </trkpt>
      <trkpt lat="44.44135" lon="1.43789">
        <ele>120</ele>
        <time>2011-04-07T08:52:32</time>
      </trkpt>
      <trkpt lat="44.44135" lon="1.43804">
        <ele>120</ele>
        <time>2011-04-07T08:52:34</time>
      </trkpt>
      <trkpt lat="44.44136" lon="1.43818">
        <ele>120</ele>
        <time>2011-04-07T08:52:36</time>
      </trkpt>
      <trkpt lat="44.44136" lon="1.43826">
        <ele>120</ele>
        <time>2011-04-07T08:52:37</time>
      </trkpt>
      <trkpt lat="44.44137" lon="1.4384">
        <ele>120</ele>
        <time>2011-04-07T08:52:39</time>
      </trkpt>
      <trkpt lat="44.44138" lon="1.43854">
        <ele>120</ele>
        <time>2011-04-07T08:52:41</time>
      </trkpt>
      <trkpt lat="44.44138" lon="1.43861">
        <ele>120</ele>
        <time>2011-04-07T08:52:42</time>
      </trkpt>
      <trkpt lat="44.44139" lon="1.43876">
        <ele>119</ele>
        <time>2011-04-07T08:52:44</time>
      </trkpt>
      <trkpt lat="44.4414" lon="1.43883">
        <ele>119</ele>
        <time>2011-04-07T08:52:45</time>
      </trkpt>
      <trkpt lat="44.44142" lon="1.43897">
        <ele>119</ele>
        <time>2011-04-07T08:52:47</time>
      </trkpt>
      <trkpt lat="44.44144" lon="1.43911">
        <ele>119</ele>
        <time>2011-04-07T08:52:49</time>
      </trkpt>
      <trkpt lat="44.44149" lon="1.43923">
        <ele>119</ele>
        <time>2011-04-07T08:52:51</time>
      </trkpt>
      <trkpt lat="44.44151" lon="1.4393">
        <ele>119</ele>
        <time>2011-04-07T08:52:52</time>
      </trkpt>
      <trkpt lat="44.44155" lon="1.43945">
        <ele>119</ele>
        <time>2011-04-07T08:52:54</time>
      </trkpt>
      <trkpt lat="44.44158" lon="1.43958">
        <ele>119</ele>
        <time>2011-04-07T08:52:56</time>
      </trkpt>
      <trkpt lat="44.4416" lon="1.43965">
        <ele>119</ele>
        <time>2011-04-07T08:52:57</time>
      </trkpt>
      <trkpt lat="44.44162" lon="1.43979">
        <ele>119</ele>
        <time>2011-04-07T08:52:59</time>
      </trkpt>
      <trkpt lat="44.44165" lon="1.43992">
        <ele>119</ele>
        <time>2011-04-07T08:53:01</time>
      </trkpt>
      <trkpt lat="44.44166" lon="1.43999">
        <ele>119</ele>
        <time>2011-04-07T08:53:02</time>
      </trkpt>
      <trkpt lat="44.4417" lon="1.4401">
        <ele>119</ele>
        <time>2011-04-07T08:53:04</time>
      </trkpt>
      <trkpt lat="44.44175" lon="1.44017">
        <ele>119</ele>
        <time>2011-04-07T08:53:06</time>
      </trkpt>
      <trkpt lat="44.44177" lon="1.4402">
        <ele>119</ele>
        <time>2011-04-07T08:53:07</time>
      </trkpt>
      <trkpt lat="44.4418" lon="1.44029">
        <ele>119</ele>
        <time>2011-04-07T08:53:09</time>
      </trkpt>
      <trkpt lat="44.44184" lon="1.44041">
        <ele>119</ele>
        <time>2011-04-07T08:53:11</time>
      </trkpt>
      <trkpt lat="44.44186" lon="1.44046">
        <ele>118</ele>
        <time>2011-04-07T08:53:12</time>
      </trkpt>
      <trkpt lat="44.44189" lon="1.44055">
        <ele>118</ele>
        <time>2011-04-07T08:53:14</time>
      </trkpt>
      <trkpt lat="44.44194" lon="1.44061">
        <ele>118</ele>
        <time>2011-04-07T08:53:16</time>
      </trkpt>
      <trkpt lat="44.44201" lon="1.44063">
        <ele>118</ele>
        <time>2011-04-07T08:53:18</time>
      </trkpt>
      <trkpt lat="44.44205" lon="1.44062">
        <ele>118</ele>
        <time>2011-04-07T08:53:19</time>
      </trkpt>
      <trkpt lat="44.44209" lon="1.44062">
        <ele>121</ele>
        <time>2011-04-07T08:53:20</time>
      </trkpt>
      <trkpt lat="44.44213" lon="1.44061">
        <ele>121</ele>
        <time>2011-04-07T08:53:21</time>
      </trkpt>
      <trkpt lat="44.4422" lon="1.44058">
        <ele>121</ele>
        <time>2011-04-07T08:53:23</time>
      </trkpt>
      <trkpt lat="44.44228" lon="1.44055">
        <ele>121</ele>
        <time>2011-04-07T08:53:25</time>
      </trkpt>
      <trkpt lat="44.44235" lon="1.44052">
        <ele>121</ele>
        <time>2011-04-07T08:53:27</time>
      </trkpt>
      <trkpt lat="44.44243" lon="1.4405">
        <ele>121</ele>
        <time>2011-04-07T08:53:29</time>
      </trkpt>
      <trkpt lat="44.44251" lon="1.4405">
        <ele>121</ele>
        <time>2011-04-07T08:53:31</time>
      </trkpt>
      <trkpt lat="44.44258" lon="1.44051">
        <ele>121</ele>
        <time>2011-04-07T08:53:33</time>
      </trkpt>
      <trkpt lat="44.44263" lon="1.44047">
        <ele>121</ele>
        <time>2011-04-07T08:53:36</time>
      </trkpt>
      <trkpt lat="44.44262" lon="1.44043">
        <ele>121</ele>
        <time>2011-04-07T08:53:38</time>
      </trkpt>
      <trkpt lat="44.44261" lon="1.4404">
        <ele>121</ele>
        <time>2011-04-07T08:53:54</time>
      </trkpt>
      <trkpt lat="44.4426" lon="1.44035">
        <ele>121</ele>
        <time>2011-04-07T08:53:56</time>
      </trkpt>
      <trkpt lat="44.44263" lon="1.4403">
        <ele>121</ele>
        <time>2011-04-07T08:53:58</time>
      </trkpt>
      <trkpt lat="44.44265" lon="1.44026">
        <ele>121</ele>
        <time>2011-04-07T08:53:59</time>
      </trkpt>
      <trkpt lat="44.44266" lon="1.44023">
        <ele>121</ele>
        <time>2011-04-07T08:54:00</time>
      </trkpt>
      <trkpt lat="44.44269" lon="1.44015">
        <ele>121</ele>
        <time>2011-04-07T08:54:02</time>
      </trkpt>
      <trkpt lat="44.4427" lon="1.44011">
        <ele>121</ele>
        <time>2011-04-07T08:54:03</time>
      </trkpt>
      <trkpt lat="44.44268" lon="1.44002">
        <ele>121</ele>
        <time>2011-04-07T08:54:05</time>
      </trkpt>
      <trkpt lat="44.44268" lon="1.43998">
        <ele>121</ele>
        <time>2011-04-07T08:54:06</time>
      </trkpt>
      <trkpt lat="44.44271" lon="1.43993">
        <ele>121</ele>
        <time>2011-04-07T08:54:08</time>
      </trkpt>
      <trkpt lat="44.44279" lon="1.43992">
        <ele>121</ele>
        <time>2011-04-07T08:54:10</time>
      </trkpt>
      <trkpt lat="44.44283" lon="1.4399">
        <ele>121</ele>
        <time>2011-04-07T08:54:11</time>
      </trkpt>
      <trkpt lat="44.44286" lon="1.43988">
        <ele>121</ele>
        <time>2011-04-07T08:54:12</time>
      </trkpt>
      <trkpt lat="44.44288" lon="1.43991">
        <ele>121</ele>
        <time>2011-04-07T08:54:14</time>
      </trkpt>
      <trkpt lat="44.4429" lon="1.43995">
        <ele>121</ele>
        <time>2011-04-07T08:54:15</time>
      </trkpt>
      <trkpt lat="44.44291" lon="1.44003">
        <ele>121</ele>
        <time>2011-04-07T08:54:17</time>
      </trkpt>
      <trkpt lat="44.44292" lon="1.44007">
        <ele>122</ele>
        <time>2011-04-07T08:54:18</time>
      </trkpt>
      <trkpt lat="44.44292" lon="1.44007">
        <ele>122</ele>
        <time>2011-04-07T08:54:37</time>
      </trkpt>
      <trkpt lat="44.44291" lon="1.44013">
        <ele>121</ele>
        <time>2011-04-07T08:55:05</time>
      </trkpt>
      <trkpt lat="44.4429" lon="1.44016">
        <ele>121</ele>
        <time>2011-04-07T08:55:07</time>
      </trkpt>
      <trkpt lat="44.4429" lon="1.44016">
        <ele>121</ele>
        <time>2011-04-07T08:55:07</time>
      </trkpt>
      <trkpt lat="44.44287" lon="1.44018">
        <ele>121</ele>
        <time>2011-04-07T08:55:13</time>
      </trkpt>
      <trkpt lat="44.44285" lon="1.4402">
        <ele>121</ele>
        <time>2011-04-07T08:55:16</time>
      </trkpt>
      <trkpt lat="44.44285" lon="1.44021">
        <ele>121</ele>
        <time>2011-04-07T08:55:17</time>
      </trkpt>
      <trkpt lat="44.44283" lon="1.44024">
        <ele>121</ele>
        <time>2011-04-07T08:55:20</time>
      </trkpt>
      <trkpt lat="44.44283" lon="1.44024">
        <ele>121</ele>
        <time>2011-04-07T08:55:38</time>
      </trkpt>
      <trkpt lat="44.44281" lon="1.44024">
        <ele>121</ele>
        <time>2011-04-07T08:55:42</time>
      </trkpt>
      <trkpt lat="44.44281" lon="1.44024">
        <ele>121</ele>
        <time>2011-04-07T08:55:56</time>
      </trkpt>
    </trkseg>
  </trk>
</gpx>